[[{"header":{"parameterUnit":"m.s-1","parameterCategory":1,"la1":30.6,"la2":29.2853,"lo1":-89.7004,"lo2":-87.6739,"dy":0.0162,"dx":0.0183,"nx":112,"ny":82,"refTime":"2026-03-04T12:00:00:Z","depth":0,"parameterNumber":2,"parameterNumberName":"U-component_of_WINDS"},"data":[0.0,0.0,0.0,0.0,0.0,0.0,0.0,0.0,0.0,0.0,0.0,0.0,0.0,0.0,0.0,0.0,0.0,0.0,0.0,0.0,0.0,0.0,0.0,0.0,0.0,0.0,0.0,0.0,0.0,0.0,0.0,0.0,0.0,0.0,0.0,0.0,0.0,0.0,0.0,0.0,0.0,0.0,0.0,0.0,0.0,0.0,0.0,0.0,0.0,0.0,0.0,0.0,0.0,0.0,0.0,0.0,0.0,0.0,0.0,0.0,0.0,0.0,0.0,0.0,0.0,0.0,0.0,0.0,0.0,0.0,0.0,0.0,0.0,0.0,0.0,0.0,0.0,0.0,0.0,0.0,0.0,0.0,0.0,0.0,0.0,0.0,0.0,0.0,0.0,0.0,-4.1739,-4.3044,-4.4749,-4.58,-4.58,-4.6121,-4.4729,-4.1015,0.0,0.0,0.0,0.0,0.0,0.0,0.0,0.0,0.0,0.0,0.0,0.0,0.0,0.0,0.0,0.0,0.0,0.0,0.0,0.0,0.0,0.0,0.0,0.0,0.0,0.0,0.0,0.0,0.0,0.0,0.0,0.0,0.0,0.0,0.0,0.0,0.0,0.0,0.0,0.0,0.0,0.0,0.0,0.0,0.0,0.0,0.0,0.0,0.0,0.0,0.0,0.0,0.0,0.0,0.0,0.0,0.0,0.0,0.0,0.0,0.0,0.0,0.0,0.0,0.0,0.0,0.0,0.0,0.0,0.0,0.0,0.0,0.0,0.0,0.0,0.0,0.0,0.0,0.0,0.0,0.0,0.0,0.0,0.0,0.0,0.0,0.0,0.0,0.0,0.0,0.0,0.0,0.0,0.0,0.0,0.0,0.0,0.0,0.0,0.0,0.0,0.0,0.0,0.0,-4.1611,-4.46,-4.5444,-4.58,-4.58,-4.5592,-4.3971,-4.0434,0.0,0.0,0.0,0.0,0.0,0.0,0.0,0.0,0.0,0.0,0.0,0.0,0.0,0.0,0.0,0.0,0.0,0.0,0.0,0.0,0.0,0.0,0.0,0.0,0.0,0.0,0.0,0.0,0.0,0.0,0.0,0.0,0.0,0.0,0.0,0.0,0.0,0.0,0.0,0.0,0.0,0.0,0.0,0.0,0.0,0.0,0.0,0.0,0.0,0.0,0.0,0.0,0.0,0.0,0.0,0.0,0.0,0.0,0.0,0.0,0.0,0.0,0.0,0.0,0.0,0.0,0.0,0.0,0.0,0.0,0.0,0.0,0.0,0.0,0.0,0.0,0.0,0.0,0.0,0.0,0.0,0.0,0.0,0.0,0.0,0.0,0.0,0.0,0.0,0.0,0.0,0.0,0.0,0.0,0.0,0.0,0.0,0.0,0.0,0.0,0.0,0.0,0.0,-4.0011,-4.1373,-4.3649,-4.4019,-4.4235,-4.4529,-4.4159,-4.274,-3.9998,-3.9717,0.0,0.0,0.0,0.0,0.0,0.0,0.0,0.0,0.0,0.0,0.0,0.0,0.0,0.0,0.0,0.0,0.0,0.0,0.0,0.0,0.0,0.0,0.0,0.0,0.0,0.0,0.0,0.0,0.0,0.0,0.0,0.0,0.0,0.0,0.0,0.0,0.0,0.0,0.0,0.0,0.0,0.0,0.0,0.0,0.0,0.0,0.0,0.0,0.0,0.0,0.0,0.0,0.0,0.0,0.0,0.0,0.0,0.0,0.0,0.0,0.0,0.0,0.0,0.0,0.0,0.0,0.0,0.0,0.0,0.0,0.0,0.0,0.0,0.0,0.0,0.0,0.0,0.0,0.0,0.0,0.0,0.0,0.0,0.0,0.0,0.0,0.0,0.0,0.0,0.0,0.0,0.0,0.0,0.0,0.0,0.0,0.0,0.0,0.0,0.0,0.0,0.0,-4.0254,-4.12,-4.2368,-4.248,-4.2656,-4.3069,-4.2552,-4.1405,-3.9519,-3.88,0.0,0.0,0.0,0.0,0.0,0.0,0.0,0.0,0.0,0.0,0.0,0.0,0.0,0.0,0.0,0.0,0.0,0.0,0.0,0.0,0.0,0.0,0.0,0.0,0.0,0.0,0.0,0.0,0.0,0.0,0.0,0.0,0.0,0.0,0.0,0.0,0.0,0.0,0.0,0.0,0.0,0.0,0.0,0.0,0.0,0.0,0.0,0.0,0.0,0.0,0.0,0.0,0.0,0.0,0.0,0.0,0.0,0.0,0.0,0.0,0.0,0.0,0.0,0.0,0.0,0.0,0.0,0.0,0.0,0.0,0.0,0.0,0.0,0.0,0.0,0.0,0.0,0.0,0.0,0.0,0.0,0.0,0.0,0.0,0.0,0.0,0.0,0.0,0.0,0.0,0.0,0.0,0.0,0.0,0.0,0.0,0.0,0.0,0.0,0.0,0.0,0.0,-4.0018,-4.1131,-4.1793,-4.1874,-4.1874,-4.1916,-4.1262,-4.0256,-3.886,-3.8078,0.0,0.0,0.0,0.0,0.0,0.0,0.0,0.0,0.0,0.0,0.0,0.0,0.0,0.0,0.0,0.0,0.0,0.0,0.0,0.0,0.0,0.0,0.0,0.0,0.0,0.0,0.0,0.0,0.0,0.0,0.0,0.0,0.0,0.0,0.0,0.0,0.0,0.0,0.0,0.0,0.0,0.0,0.0,0.0,0.0,0.0,0.0,0.0,0.0,0.0,0.0,0.0,0.0,0.0,0.0,0.0,0.0,0.0,0.0,0.0,0.0,0.0,0.0,0.0,0.0,0.0,0.0,0.0,0.0,0.0,0.0,0.0,0.0,0.0,0.0,0.0,0.0,0.0,0.0,0.0,0.0,0.0,0.0,0.0,0.0,0.0,0.0,0.0,0.0,0.0,0.0,0.0,0.0,0.0,0.0,0.0,0.0,0.0,0.0,0.0,0.0,0.0,-3.8564,-4.0109,-4.1126,-4.1246,-4.1402,-4.1771,-4.1205,-4.0219,-3.8786,0.0,0.0,0.0,0.0,0.0,0.0,0.0,0.0,0.0,0.0,0.0,0.0,0.0,0.0,0.0,0.0,0.0,0.0,0.0,0.0,0.0,0.0,0.0,0.0,0.0,0.0,0.0,0.0,0.0,0.0,0.0,0.0,0.0,0.0,0.0,0.0,0.0,0.0,0.0,0.0,0.0,0.0,0.0,0.0,0.0,0.0,0.0,0.0,0.0,0.0,0.0,0.0,0.0,0.0,0.0,0.0,0.0,0.0,0.0,0.0,0.0,0.0,0.0,0.0,0.0,0.0,0.0,0.0,0.0,0.0,0.0,0.0,0.0,0.0,0.0,0.0,0.0,0.0,0.0,0.0,0.0,0.0,0.0,0.0,0.0,0.0,0.0,0.0,0.0,0.0,0.0,0.0,0.0,0.0,0.0,0.0,0.0,0.0,0.0,0.0,0.0,0.0,-3.5447,-3.7323,-3.8948,-3.9834,-3.9935,-4.0075,-4.0494,-3.9927,-3.896,-3.7515,0.0,0.0,0.0,0.0,0.0,0.0,0.0,0.0,0.0,0.0,0.0,0.0,0.0,0.0,0.0,0.0,0.0,0.0,0.0,0.0,0.0,0.0,0.0,0.0,0.0,0.0,0.0,0.0,0.0,0.0,0.0,0.0,0.0,0.0,0.0,0.0,0.0,0.0,0.0,0.0,0.0,0.0,0.0,0.0,0.0,0.0,0.0,0.0,0.0,0.0,0.0,0.0,0.0,0.0,0.0,0.0,0.0,0.0,0.0,0.0,0.0,0.0,0.0,0.0,0.0,0.0,0.0,0.0,0.0,0.0,0.0,0.0,0.0,0.0,0.0,0.0,0.0,0.0,0.0,0.0,0.0,0.0,0.0,0.0,0.0,0.0,0.0,0.0,0.0,0.0,0.0,0.0,0.0,0.0,0.0,0.0,0.0,0.0,0.0,0.0,0.0,0.0,-3.4664,-3.651,-3.7793,-3.7793,-3.7793,-3.7793,-3.7793,-3.7121,-3.6114,0.0,0.0,0.0,0.0,0.0,0.0,0.0,0.0,0.0,0.0,0.0,0.0,0.0,0.0,0.0,0.0,0.0,0.0,0.0,0.0,0.0,0.0,0.0,0.0,0.0,0.0,0.0,0.0,0.0,0.0,0.0,0.0,0.0,0.0,0.0,0.0,0.0,0.0,0.0,0.0,0.0,0.0,0.0,0.0,0.0,0.0,0.0,0.0,0.0,0.0,0.0,0.0,0.0,0.0,0.0,0.0,0.0,0.0,0.0,0.0,0.0,0.0,0.0,0.0,0.0,0.0,0.0,0.0,0.0,0.0,0.0,0.0,0.0,0.0,0.0,0.0,0.0,0.0,0.0,0.0,0.0,0.0,0.0,0.0,0.0,0.0,0.0,0.0,0.0,0.0,0.0,0.0,0.0,0.0,0.0,0.0,0.0,0.0,0.0,0.0,0.0,0.0,0.0,-3.3285,-3.5911,-3.7793,-3.7793,-3.7793,-3.7793,-3.7793,-3.7178,-3.6197,-3.4803,0.0,0.0,0.0,0.0,0.0,0.0,0.0,0.0,0.0,0.0,0.0,0.0,0.0,0.0,0.0,0.0,0.0,0.0,0.0,0.0,0.0,0.0,0.0,0.0,0.0,0.0,0.0,0.0,0.0,0.0,0.0,0.0,0.0,0.0,0.0,0.0,0.0,0.0,0.0,0.0,0.0,0.0,0.0,0.0,0.0,0.0,0.0,0.0,0.0,0.0,0.0,0.0,0.0,0.0,0.0,0.0,0.0,0.0,0.0,0.0,0.0,0.0,0.0,0.0,0.0,0.0,0.0,0.0,0.0,0.0,0.0,0.0,0.0,0.0,0.0,0.0,0.0,0.0,0.0,0.0,0.0,0.0,0.0,0.0,0.0,0.0,0.0,0.0,0.0,0.0,0.0,0.0,0.0,0.0,0.0,0.0,0.0,0.0,0.0,0.0,0.0,0.0,-3.2198,-3.4725,-3.6578,-3.6859,-3.689,-3.689,-3.689,-3.653,-3.5453,-3.3533,0.0,0.0,0.0,0.0,0.0,0.0,0.0,0.0,0.0,0.0,0.0,0.0,0.0,0.0,0.0,0.0,0.0,0.0,0.0,0.0,0.0,0.0,0.0,0.0,0.0,0.0,0.0,0.0,0.0,0.0,0.0,0.0,0.0,0.0,0.0,0.0,0.0,0.0,0.0,0.0,0.0,0.0,0.0,0.0,0.0,0.0,0.0,0.0,0.0,0.0,0.0,0.0,0.0,0.0,0.0,0.0,0.0,0.0,0.0,0.0,0.0,0.0,0.0,0.0,0.0,0.0,0.0,0.0,0.0,0.0,0.0,0.0,0.0,0.0,0.0,0.0,0.0,0.0,0.0,0.0,0.0,0.0,0.0,0.0,0.0,0.0,0.0,0.0,0.0,0.0,0.0,0.0,0.0,0.0,0.0,0.0,0.0,0.0,0.0,0.0,0.0,0.0,-3.1188,-3.3016,-3.4488,-3.5172,-3.5213,-3.5213,-3.5213,-3.5267,-3.4196,-3.1633,0.0,0.0,0.0,0.0,0.0,0.0,0.0,0.0,0.0,0.0,0.0,0.0,0.0,0.0,0.0,0.0,0.0,0.0,0.0,0.0,0.0,0.0,0.0,0.0,0.0,0.0,0.0,0.0,0.0,0.0,0.0,0.0,0.0,0.0,0.0,0.0,0.0,0.0,0.0,0.0,0.0,0.0,0.0,0.0,0.0,0.0,0.0,0.0,0.0,0.0,0.0,0.0,0.0,0.0,0.0,0.0,0.0,0.0,0.0,0.0,-3.2845,0.0,0.0,0.0,0.0,0.0,0.0,0.0,0.0,0.0,0.0,0.0,0.0,0.0,0.0,0.0,0.0,0.0,0.0,0.0,0.0,0.0,0.0,0.0,0.0,0.0,0.0,0.0,0.0,0.0,0.0,0.0,0.0,0.0,0.0,0.0,0.0,0.0,0.0,0.0,0.0,0.0,-2.9451,-3.1218,-3.2599,-3.315,-3.322,-3.322,-3.322,-3.346,-3.2916,-3.1304,-3.0205,0.0,0.0,0.0,0.0,0.0,0.0,0.0,0.0,0.0,0.0,0.0,0.0,0.0,0.0,0.0,0.0,0.0,0.0,0.0,0.0,0.0,0.0,0.0,0.0,0.0,0.0,0.0,0.0,0.0,0.0,0.0,0.0,0.0,0.0,0.0,0.0,0.0,0.0,0.0,0.0,0.0,0.0,0.0,0.0,0.0,0.0,0.0,0.0,0.0,0.0,0.0,0.0,0.0,0.0,0.0,0.0,0.0,0.0,0.0,0.0,-3.1831,0.0,0.0,0.0,0.0,0.0,0.0,0.0,0.0,0.0,0.0,0.0,0.0,0.0,0.0,0.0,0.0,0.0,0.0,0.0,0.0,0.0,0.0,0.0,0.0,0.0,0.0,0.0,0.0,0.0,0.0,0.0,0.0,0.0,0.0,0.0,0.0,0.0,0.0,0.0,0.0,-2.8553,-3.0214,-3.1536,-3.2131,-3.2463,-3.2593,-3.2593,-3.2751,-3.2289,-3.0937,-2.978,0.0,0.0,0.0,0.0,0.0,0.0,0.0,0.0,0.0,0.0,0.0,0.0,0.0,0.0,0.0,0.0,0.0,0.0,0.0,0.0,0.0,0.0,0.0,0.0,0.0,0.0,0.0,0.0,0.0,0.0,0.0,0.0,0.0,0.0,0.0,0.0,0.0,0.0,0.0,0.0,0.0,0.0,0.0,0.0,0.0,0.0,0.0,0.0,0.0,0.0,0.0,0.0,0.0,-2.6602,-2.6645,-2.6645,-2.6645,-2.6645,-2.6713,-2.8359,-2.9302,-2.9816,-3.073,0.0,0.0,0.0,0.0,0.0,0.0,0.0,0.0,0.0,0.0,0.0,0.0,0.0,0.0,0.0,0.0,0.0,0.0,0.0,0.0,0.0,0.0,0.0,0.0,-2.4414,-2.5158,-2.7,0.0,0.0,0.0,0.0,0.0,0.0,0.0,0.0,0.0,0.0,0.0,-2.7394,-2.8936,-3.0282,-3.121,-3.1692,-3.1996,-3.2105,-3.2249,-3.182,-3.0624,-2.9506,-2.8448,0.0,0.0,0.0,0.0,0.0,0.0,0.0,0.0,0.0,0.0,0.0,0.0,0.0,0.0,0.0,0.0,0.0,0.0,0.0,0.0,0.0,0.0,0.0,0.0,0.0,0.0,0.0,0.0,0.0,0.0,0.0,0.0,-2.7184,-2.7057,0.0,0.0,0.0,0.0,0.0,0.0,0.0,0.0,0.0,0.0,0.0,0.0,0.0,-2.2265,-2.135,-2.1715,-2.1879,-2.1879,-2.2313,-2.2469,-2.2469,-2.2469,-2.2469,-2.2518,-2.2763,0.0,-2.8076,-2.8735,0.0,0.0,0.0,0.0,0.0,0.0,0.0,0.0,0.0,0.0,0.0,0.0,0.0,0.0,0.0,0.0,0.0,0.0,0.0,0.0,0.0,0.0,-2.4173,-2.4598,-2.4397,-2.4429,0.0,-2.4448,-2.3119,-2.29,-2.2708,0.0,0.0,0.0,0.0,0.0,0.0,0.0,-2.4621,-2.5761,-2.7163,-2.9086,-2.9338,-2.9592,-3.0139,-3.0908,-3.1073,-3.0315,-2.9724,-2.9389,-2.9342,-2.7001,0.0,0.0,0.0,0.0,0.0,0.0,0.0,0.0,0.0,0.0,0.0,0.0,0.0,0.0,0.0,0.0,0.0,0.0,0.0,0.0,0.0,0.0,0.0,0.0,0.0,0.0,0.0,0.0,0.0,-2.6238,-2.6224,-2.5357,-2.5456,-2.5118,0.0,0.0,0.0,0.0,0.0,0.0,0.0,0.0,0.0,-2.1431,-2.1448,-2.1324,-2.1123,-2.1337,-2.1412,-2.1412,-2.1627,-2.1702,-2.1702,-2.1702,-2.1702,-2.1702,-2.1702,-2.2723,-2.444,-2.5847,-2.6798,-2.742,0.0,0.0,0.0,0.0,-2.5558,-2.5037,-2.5828,-2.613,-2.6131,-2.6309,0.0,0.0,0.0,0.0,0.0,0.0,0.0,0.0,0.0,0.0,-2.166,-2.1988,-2.2277,-2.2601,-2.3077,-2.2818,-2.26,0.0,-2.3064,-2.2769,-2.1431,0.0,0.0,0.0,0.0,-2.2645,-2.3305,-2.4296,-2.5326,-2.6233,-2.6602,-2.7032,-2.7514,-2.7945,-2.8128,-2.8135,-2.7627,-2.763,-2.8314,-2.6629,-2.5874,0.0,0.0,0.0,0.0,0.0,0.0,0.0,0.0,0.0,0.0,0.0,0.0,0.0,0.0,0.0,0.0,0.0,0.0,0.0,0.0,0.0,0.0,0.0,0.0,0.0,0.0,0.0,0.0,-2.467,-2.4385,-2.3231,-2.342,-2.2999,0.0,0.0,0.0,0.0,0.0,0.0,-2.0037,-1.9744,-1.9753,-2.0139,-2.0147,-2.0323,-2.0633,-2.0633,-2.0633,-2.0633,-2.0633,-2.0633,-2.0633,-2.0633,-2.0633,-2.0633,-2.0633,-2.0837,-2.1322,-2.317,-2.4748,-2.5976,-2.5976,-2.533,-2.4326,-2.4326,-2.3702,-2.3066,-2.4465,-2.4964,-2.5023,-2.541,-2.5493,-2.4854,-2.1831,0.0,0.0,0.0,0.0,-1.969,-2.0132,-2.0089,-1.986,-1.9816,-2.032,-2.0845,-2.0845,-2.1306,-2.1999,0.0,-2.3274,-2.2902,-2.1312,0.0,0.0,0.0,0.0,-2.2071,-2.2322,-2.3169,-2.3844,-2.428,-2.4705,-2.5189,-2.5756,-2.5813,-2.5986,-2.6491,-2.6084,-2.6194,-2.7081,-2.6138,-2.5772,-2.6066,0.0,0.0,0.0,0.0,0.0,0.0,0.0,0.0,0.0,0.0,0.0,0.0,0.0,0.0,0.0,0.0,0.0,0.0,0.0,0.0,0.0,0.0,0.0,0.0,0.0,0.0,0.0,0.0,0.0,-2.1147,-2.142,0.0,0.0,0.0,0.0,-2.0401,-1.9269,-1.8741,-1.9054,-1.7976,-1.7513,-1.7752,-1.7765,-1.7772,-1.7786,-1.7786,-1.7786,-1.7786,-1.7786,-1.7786,-1.7786,-1.7786,-1.7786,-1.7786,-1.7786,-1.8558,-1.9826,-2.1271,-2.1645,-2.1352,-2.1352,-2.1053,-2.0657,-2.0657,-2.0609,-2.0561,-2.0674,-2.073,-2.078,-2.1177,-2.1044,-2.0587,-1.9662,-1.9494,0.0,0.0,-1.9796,-2.0254,-1.9991,-1.9901,-1.9849,-1.9596,-1.955,-1.9579,-1.9579,-1.9617,-2.0204,0.0,-2.1891,-2.1184,-2.0702,0.0,-1.9838,-1.9462,-1.9767,-2.0379,-2.1319,-2.185,-2.2681,-2.4122,-2.4314,-2.4718,-2.5734,-2.5813,-2.5986,-2.6491,-2.6449,-2.6479,-2.6521,-2.5923,-2.5368,-2.4876,-2.3892,0.0,0.0,0.0,0.0,0.0,0.0,0.0,0.0,0.0,0.0,0.0,0.0,0.0,0.0,0.0,0.0,0.0,0.0,0.0,0.0,0.0,0.0,0.0,0.0,0.0,0.0,0.0,0.0,-2.1302,-2.1835,0.0,-1.9857,-1.9921,-1.9662,-1.8687,-1.8555,-1.8524,-1.8688,-1.8096,-1.7776,-1.7822,-1.7689,-1.7582,-1.7582,-1.7582,-1.7582,-1.7582,-1.7582,-1.7582,-1.7582,-1.7582,-1.7582,-1.7582,-1.7582,-1.7891,-1.8349,-1.8857,-2.0,-2.1453,-2.1453,-2.0827,-1.9876,-1.9876,-1.9327,-1.8724,-1.9573,-1.9876,-2.0004,-2.0743,-2.0181,-1.9133,-1.8847,-1.8331,-1.7766,-1.7908,-1.8152,-1.8297,-1.8181,-1.7994,-1.7763,-1.75,-1.792,-1.8319,-1.8319,-1.8948,-1.9661,-2.0184,-1.9822,-1.9383,-1.9384,-1.9351,-1.9399,-1.9644,-2.0059,-2.0485,-2.0847,-2.1026,-2.1331,-2.1858,-2.1917,-2.2288,-2.3216,-2.3299,-2.3567,-2.4265,-2.4307,-2.4638,-2.5378,-2.5217,-2.5183,-2.5305,-2.4637,-2.3253,0.0,0.0,0.0,0.0,0.0,0.0,0.0,0.0,0.0,0.0,0.0,0.0,0.0,0.0,0.0,0.0,0.0,0.0,0.0,0.0,0.0,0.0,0.0,0.0,0.0,-1.9921,-1.968,-1.9687,-1.9668,-1.9047,-1.7364,-1.7541,-1.7373,-1.6343,-1.6673,-1.6881,-1.6881,-1.6631,-1.6708,-1.721,-1.6977,-1.7094,-1.7582,-1.7582,-1.7582,-1.7582,-1.7582,-1.7582,-1.7582,-1.7582,-1.7582,-1.7582,-1.7582,-1.7582,-1.7582,-1.7582,-1.8648,-2.0333,-2.0333,-1.9775,-1.8916,-1.8916,-1.8349,-1.7733,-1.8603,-1.8916,-1.9028,-1.9664,-1.9099,-1.8175,-1.8067,-1.7564,-1.7021,-1.7172,-1.7199,-1.7179,-1.7079,-1.678,-1.6486,-1.6192,-1.6633,-1.7037,-1.7037,-1.7677,-1.8164,-1.7914,-1.8145,-1.8396,-1.8484,-1.8428,-1.8541,-1.8946,-1.9295,-1.9638,-2.0001,-2.004,-2.0206,-2.0566,-2.0605,-2.0899,-2.1602,-2.1313,-2.1393,-2.2078,-2.1761,-2.1906,-2.2683,-2.2726,-2.2874,-2.3217,-2.2583,-2.1244,-1.9189,0.0,0.0,0.0,0.0,0.0,0.0,0.0,0.0,0.0,0.0,0.0,0.0,0.0,0.0,0.0,0.0,0.0,0.0,0.0,0.0,0.0,0.0,0.0,-1.8815,-1.7148,-1.5751,-1.6007,-1.4932,-1.4059,-1.3725,-1.3705,-1.371,-1.37,-1.3705,-1.3715,-1.3715,-1.3567,-1.4167,-1.5609,-1.545,-1.6009,-1.747,-1.7477,-1.7477,-1.7477,-1.7477,-1.7477,-1.7477,-1.7523,-1.7529,-1.7477,-1.7582,-1.7529,-1.7477,-1.7523,-1.7529,-1.7529,-1.7582,-1.7582,-1.7582,-1.7582,-1.7582,-1.7582,-1.7582,-1.7582,-1.7582,-1.7582,-1.7582,-1.7528,-1.73,-1.7414,-1.7522,-1.7293,-1.7206,-1.7132,-1.678,-1.6486,-1.6199,-1.5899,-1.5784,-1.5784,-1.5784,-1.5784,-1.5738,-1.5438,-1.6951,-1.8214,-1.7987,-1.7582,-1.7261,-1.7293,-1.7302,0.0,-1.8798,-1.8957,-1.9362,-2.0401,-2.0489,-2.0673,-2.1091,-2.0142,-1.9747,-2.0153,-1.9187,-1.8587,-1.8587,-1.8587,-1.8587,-1.8587,-1.7747,-1.69,-1.6016,0.0,0.0,0.0,0.0,0.0,0.0,0.0,0.0,0.0,0.0,0.0,0.0,0.0,0.0,0.0,0.0,0.0,0.0,0.0,0.0,0.0,-1.4404,-1.4082,-1.6084,-1.5038,-1.4248,-1.4693,-1.46,-1.4353,-1.4001,-1.4194,-1.4283,-1.4059,-1.4263,-1.4353,-1.4353,-1.3991,-1.3953,-1.4403,-1.4069,-1.4073,-1.4502,-1.4502,-1.4502,-1.4502,-1.4502,-1.4502,-1.4502,-1.553,-1.547,-1.4615,-1.6717,-1.6393,-1.4561,-1.5583,-1.6015,-1.6121,-1.7199,-1.7582,-1.7582,-1.7582,-1.7582,-1.7582,-1.7582,-1.7582,-1.7582,-1.7582,-1.7582,-1.7569,-1.7488,-1.7515,-1.7562,-1.7482,-1.7367,-1.7132,-1.678,-1.6486,-1.6199,-1.5899,-1.5784,-1.5784,-1.5784,-1.5784,-1.5678,-1.5177,-1.5542,-1.6074,-1.6541,-1.6331,-1.6396,-1.7172,-1.7302,0.0,-1.7747,-1.7787,-1.7859,-1.8189,-1.8221,-1.8449,-1.9107,-1.8708,-1.8735,-1.9383,-1.8902,-1.8587,-1.8587,-1.8587,-1.8587,-1.8587,-1.7747,-1.7023,0.0,0.0,0.0,0.0,0.0,0.0,0.0,0.0,0.0,0.0,0.0,0.0,0.0,0.0,0.0,0.0,0.0,0.0,0.0,0.0,0.0,0.0,-1.3043,-1.2647,-1.3659,-1.3238,-1.2926,-1.3302,-1.2916,-1.2525,-1.2348,-1.2444,-1.2525,-1.2348,-1.2508,-1.2573,-1.2573,-1.2207,-1.2285,-1.2908,-1.2565,-1.2674,-1.3264,-1.3318,-1.3318,-1.3318,-1.3318,-1.3318,-1.3318,-1.4126,-1.4073,-1.3372,-1.5043,-1.4829,-1.3372,-1.418,-1.4502,0.0,0.0,0.0,0.0,0.0,-1.5796,-1.5796,-1.5796,-1.5796,-1.5796,-1.5796,-1.5796,-1.5796,-1.5796,-1.6227,-1.6658,-1.6658,-1.6801,-1.6978,-1.6747,-1.64,-1.6046,-1.5872,-1.5784,-1.5784,-1.5784,-1.5684,-1.5511,-1.5102,-1.4908,0.0,-1.5212,-1.5133,-1.522,-1.5876,-1.5959,-1.6124,-1.656,-1.6642,-1.6805,-1.7253,-1.7302,-1.7532,-1.81,-1.7485,0.0,0.0,0.0,-1.6707,-1.6707,-1.6707,0.0,0.0,0.0,0.0,0.0,0.0,0.0,0.0,-1.5952,-1.6197,0.0,0.0,0.0,0.0,0.0,0.0,0.0,0.0,0.0,0.0,0.0,0.0,0.0,0.0,0.0,0.0,-1.1855,-1.122,-1.1514,-1.1563,-1.168,-1.1896,-1.066,-0.9822,-0.9822,-0.9822,-0.9822,-0.9822,-0.9822,-0.9815,-0.9798,0.0,0.0,0.0,0.0,-1.1487,-1.2783,-1.2783,-1.2783,-1.2783,-1.2783,-1.2783,-1.2832,-1.2999,-1.294,-1.2832,-1.3156,-1.3102,-1.2832,-1.2999,-1.294,-1.2837,-1.3161,-1.4073,-1.4984,-1.375,-1.3318,-1.3318,-1.3318,0.0,0.0,-1.3318,-1.3318,-1.3318,-1.3318,-1.418,-1.515,-1.515,-1.5786,-1.645,-1.645,-1.612,-1.5784,-1.5784,-1.5784,-1.5784,-1.5784,-1.5605,-1.5311,-1.5068,-1.4723,-1.4429,-1.4135,-1.4088,-1.4088,-1.4088,-1.4088,-1.4454,-1.5421,-1.5538,-1.5869,-1.6854,0.0,0.0,-1.7393,-1.6266,-1.5629,-1.5911,-1.4809,-1.4135,-1.4135,-1.4168,-1.4309,-1.4563,-1.4569,-1.4703,-1.5008,-1.5008,-1.5028,-1.5028,-1.5372,-1.5503,0.0,0.0,0.0,0.0,0.0,0.0,0.0,0.0,0.0,0.0,0.0,0.0,0.0,0.0,0.0,-1.1454,-1.059,-0.9989,-1.0169,-1.0197,-1.0208,-1.0236,-1.0001,-0.9822,-0.9822,-0.9822,-0.9822,-0.9822,-0.9822,-0.9771,-0.9656,-0.9479,-0.9496,-0.9649,-0.9412,-0.9482,-0.9754,-0.9754,-0.9754,-0.9754,0.0,0.0,-0.9809,-1.1,-1.0891,-0.986,-1.2295,-1.1973,-0.986,-1.1055,-1.0836,-0.997,-1.2349,-1.348,-1.3696,-1.3372,-1.3318,-1.3318,-1.3318,-1.3318,-1.3318,-1.3318,-1.3318,-1.3318,-1.3318,-1.348,0.0,-1.3696,-1.4316,-1.5014,-1.4957,-1.5366,-1.5784,-1.5784,-1.5784,-1.5784,-1.5784,-1.5605,-1.5311,-1.5068,-1.4723,-1.4429,-1.4135,-1.4088,-1.4088,-1.4088,-1.4088,-1.4166,-1.437,-1.4412,-1.4496,-1.4699,-1.4699,-1.4824,-1.5124,-1.471,-1.4535,-1.4793,-1.4549,-1.4436,-1.4436,-1.4669,-1.4867,-1.4921,-1.4877,-1.4948,-1.5008,-1.5008,-1.5129,-1.5297,-1.4123,-1.354,0.0,0.0,0.0,0.0,0.0,0.0,0.0,0.0,0.0,0.0,0.0,-1.1554,-1.1649,0.0,-1.0115,-1.031,-0.9914,-0.9659,-0.9802,-0.9822,-0.9822,-0.9822,-0.9822,-0.9822,-0.9822,-0.9822,-0.9822,-0.9822,-0.9822,-0.9758,-0.9615,-0.9462,-0.931,-0.9214,-0.9015,-0.8885,-0.8885,-0.8885,-0.8885,-0.8885,-0.8885,-0.8885,-0.8937,-0.9644,-0.9588,-0.8992,-1.0457,-1.0241,-0.8937,-0.9699,-0.9592,-0.9047,-1.0511,-1.1105,-1.1105,-1.1105,-1.1105,-1.1105,-1.1105,-1.1105,-1.1105,-1.1105,-1.1105,-1.1105,-1.1105,-1.1592,-1.2186,-1.2186,-1.2893,-1.3574,-1.3569,-1.3716,-1.4028,-1.4704,-1.4854,-1.4997,-1.5683,-1.5605,-1.5311,-1.5068,-1.4723,-1.4429,-1.4135,-1.4088,-1.4088,-1.4088,-1.4088,-1.4088,-1.4088,-1.4088,-1.4088,-1.4088,-1.4088,-1.4208,-1.4496,-1.4522,-1.4633,-1.4736,-1.4743,-1.4743,-1.4743,-1.4928,-1.5075,-1.5223,-1.5177,-1.5251,-1.5398,-1.5398,-1.5471,-1.5558,-1.3414,-1.3164,0.0,0.0,0.0,0.0,0.0,0.0,0.0,-1.3179,-1.2135,-1.2216,-1.1256,-1.0498,-1.0579,-0.9863,-0.932,-0.9568,-0.9632,-0.969,-0.9805,-0.9822,-0.9822,-0.9822,-0.9822,-0.9822,-0.9822,-0.9822,-0.9822,-0.9822,-0.9795,-0.9717,-0.9571,-0.9418,-0.9266,-0.9173,-0.8998,-0.8885,-0.8885,-0.8885,-0.8885,-0.8885,-0.8885,-0.8885,-0.8885,-0.8885,-0.8885,-0.8885,-0.8885,-0.8885,-0.8885,-0.8885,-0.8885,-0.8885,-0.8885,-0.8885,-0.8885,-0.8885,-0.8885,-0.8885,-0.8885,-0.8885,-0.8885,-0.8885,-0.8885,-0.8885,-0.8885,-0.9754,-1.0668,-1.0631,-1.1385,-1.2177,-1.2133,-1.2039,-1.2188,-1.3247,-1.3734,-1.4166,-1.5194,-1.5404,-1.5331,-1.5142,-1.4763,-1.4442,-1.4208,-1.4122,-1.4088,-1.4088,-1.4088,-1.4088,-1.4088,-1.4088,-1.4088,-1.4088,-1.4088,-1.4208,-1.4496,-1.4796,-1.5008,-1.5008,-1.5062,-1.5095,-1.5095,-1.5149,-1.5244,-1.5478,-1.5478,-1.5451,-1.5439,-1.5439,-1.5296,-1.5003,-1.2866,-1.3156,-1.5472,-1.3847,-1.2746,-1.2974,-1.2684,-1.2608,0.0,-1.2301,-1.1185,-1.1517,-1.0478,-0.954,-0.9554,-0.9573,-0.9568,-0.9605,-0.9717,-0.9802,-0.9819,-0.9822,-0.9822,-0.9822,-0.9822,-0.9822,-0.9822,-0.9822,-0.9822,-0.9822,-0.9703,-0.9568,-0.9415,-0.932,-0.9113,-0.8967,-0.8892,-0.8885,-0.8885,-0.8885,-0.8885,-0.8885,-0.8885,-0.8885,-0.8885,-0.8885,-0.8885,-0.8885,-0.8885,-0.8885,-0.8885,-0.8885,-0.8885,-0.8885,-0.8885,-0.8885,-0.8885,-0.8885,-0.8885,-0.8885,-0.8885,-0.8885,-0.8885,-0.8885,-0.8885,-0.8885,-0.8885,-0.8992,-0.9127,-0.8988,-0.9765,-1.0608,-1.0488,-1.1182,-1.1945,-1.2091,-1.3006,-1.3926,-1.407,-1.4782,-1.5384,-1.5351,-1.4897,-1.4509,-1.4476,-1.4255,-1.4088,-1.4088,-1.4088,-1.4088,-1.4088,-1.4088,-1.4088,-1.4088,-1.4088,-1.4208,-1.4496,-1.4796,-1.5008,-1.5008,-1.5204,-1.5351,-1.5351,-1.5591,-1.5698,-1.5731,-1.5785,-1.521,-1.4118,-1.4118,-1.3494,-1.2334,-1.2042,-1.2668,-1.4233,-1.2615,-1.1671,-1.2615,-1.1702,-1.0852,-1.208,-1.1146,-1.0043,-1.0137,-0.9774,-0.9381,-0.9381,-0.9507,-0.9635,-0.972,-0.9781,-0.9822,-0.9822,-0.9751,-0.9696,-0.9696,-0.9618,-0.9632,-0.9805,-0.9822,-0.9788,-0.9703,-0.9642,-0.9503,-0.932,-0.9245,-0.9086,-0.8888,-0.8885,-0.8885,-0.8885,-0.8885,-0.8885,-0.8885,-0.8885,-0.8885,-0.8885,-0.8885,-0.8885,-0.8885,-0.8885,-0.8885,-0.8885,-0.8885,-0.8885,-0.8885,-0.8885,-0.8885,-0.8885,-0.8885,-0.8885,-0.8885,-0.8885,-0.8885,-0.8885,-0.8885,-0.8885,-0.8885,-0.8885,-0.8885,-0.8868,-0.8807,-0.9037,-0.9294,-0.922,-0.9415,-0.985,-1.0632,-1.1214,-1.2032,-1.3584,-1.4231,-1.4681,-1.5286,-1.5197,-1.4923,-1.4576,-1.4422,-1.4282,-1.4115,-1.4088,-1.4088,-1.4088,-1.4088,-1.4155,-1.4322,-1.4496,-1.4716,-1.5003,-1.5144,-1.5291,-1.5458,-1.5578,-1.5651,-1.5651,-1.5718,-1.5784,-1.5784,-1.5784,-1.5188,-1.3926,-1.3926,-1.3199,-1.1901,-1.2082,-1.2877,-1.2775,-1.1385,-1.0625,-1.1678,-1.0599,-0.9528,-1.0659,-1.012,-0.9351,-0.9296,-0.9303,-0.9381,-0.9381,-0.9473,-0.9595,-0.9741,-0.9764,-0.9778,-0.9815,-0.97,-0.9608,-0.9608,-0.9473,-0.9466,-0.968,-0.97,-0.9656,-0.9554,-0.9507,-0.9388,-0.9221,-0.9173,-0.9045,-0.8888,-0.8885,-0.8885,-0.8885,-0.8885,-0.8885,-0.8885,-0.8885,-0.8885,-0.8885,-0.8885,-0.8885,-0.8885,-0.8885,-0.8885,-0.8885,-0.8885,-0.8885,-0.8885,-0.8885,-0.8885,-0.8885,-0.8885,-0.8885,-0.8885,-0.8885,-0.8885,-0.8885,-0.8885,-0.8885,-0.8885,-0.8885,-0.8854,-0.8811,-0.8825,-0.8625,-0.8414,-0.837,-0.8201,-0.8237,-0.9217,-0.9756,-1.0632,-1.2861,-1.3632,-1.4208,-1.5318,-1.5166,-1.4832,-1.4741,-1.4374,-1.4163,-1.4312,-1.4329,-1.4269,-1.4108,-1.4155,-1.4322,-1.4616,-1.4903,-1.517,-1.5378,-1.5471,-1.5605,-1.5764,-1.5784,-1.5784,-1.5784,-1.5784,-1.5784,-1.5784,-1.5439,-1.4657,-1.3349,-1.3006,-1.2134,-1.0832,-1.193,-1.2909,-1.1033,-0.9996,-0.9019,-0.9279,-0.9373,-0.9432,-0.9436,-0.9439,-0.9381,-0.9374,-0.9378,-0.9381,-0.9381,-0.9384,-0.9439,-0.9591,-0.9615,-0.9663,-0.9802,-0.97,-0.9608,-0.9608,-0.9473,-0.9384,0.0,-0.9395,-0.9395,-0.9388,-0.9309,-0.9221,-0.921,-0.9022,-0.8888,-0.8885,-0.8885,-0.8885,-0.8885,-0.8885,-0.8885,-0.8885,-0.8885,-0.8885,-0.8885,-0.8885,-0.8885,-0.8885,-0.8885,-0.8885,-0.8885,-0.8885,-0.8885,-0.8885,-0.8885,-0.8885,-0.8885,-0.8885,-0.8885,-0.8885,-0.8885,-0.8885,-0.8885,-0.8885,-0.8885,-0.8885,-0.8885,-0.8835,-0.8686,-0.8537,-0.8391,-0.8241,-0.8042,-0.7995,-0.7988,-0.8038,-0.9069,-1.0337,-1.1702,-1.2963,-1.4262,-1.552,-1.4528,-1.3863,-1.5134,-1.4104,-1.3465,-1.4796,-1.4981,-1.4774,-1.4162,-1.4335,-1.4623,-1.4961,-1.5211,-1.5384,-1.5398,-1.5658,-1.5771,-1.5784,-1.5784,-1.5784,-1.5784,-1.5784,-1.5784,-1.5784,-1.4609,-1.3295,-1.1945,-1.073,-0.941,-0.8191,-1.1084,-1.2546,-0.9813,-0.9352,-0.914,-0.9395,-0.9496,-0.9557,-0.9652,-0.9673,-0.9618,-0.9422,-0.93,-0.9286,-0.9286,-0.915,-0.9201,-0.9554,-0.9608,-0.9659,-0.9802,-0.97,-0.9571,-0.9469,-0.9323,-0.9191,0.0,0.0,0.0,-0.9296,-0.9241,-0.9169,-0.9015,-0.8908,-0.8885,-0.8885,-0.8885,-0.8885,-0.8885,-0.8885,-0.8885,-0.8885,-0.8885,-0.8885,-0.8885,-0.8885,-0.8885,-0.8885,-0.8885,-0.8885,-0.8885,-0.8885,-0.8885,-0.8885,-0.8885,-0.8885,-0.8885,-0.8885,-0.8885,-0.8885,-0.8885,-0.8885,-0.8885,-0.8885,-0.8885,-0.8885,-0.8885,-0.8832,-0.8699,-0.8648,-0.8459,-0.831,-0.8208,-0.8116,-0.7988,-0.7988,-0.8333,-0.9019,-1.0337,-1.1653,-1.2963,-1.4268,-1.4772,-1.4801,-1.4186,-1.4364,-1.4382,-1.3785,-1.445,-1.4934,-1.474,-1.4923,-1.5144,-1.5244,-1.5511,-1.5685,-1.5685,-1.5772,-1.5439,-1.4609,-1.4555,-1.4124,-1.3258,-1.3204,-1.3204,-1.3204,-1.277,-1.194,-1.0632,-1.0194,-0.9863,-0.9636,-1.1687,-1.3284,-0.9276,-0.9205,-0.9374,-0.9625,-0.9686,-0.9696,-0.9737,-0.9744,-0.9659,-0.9361,-0.9181,-0.9059,-0.9005,-0.8876,-0.8923,-0.9374,-0.9445,-0.9534,-0.9785,-0.97,-0.9554,-0.9398,-0.9303,-0.9096,-0.8898,-0.911,0.0,-0.9083,-0.9076,-0.9035,-0.8888,-0.8885,-0.8885,-0.8885,-0.8885,-0.8885,-0.8885,-0.8885,-0.8885,-0.8885,-0.8885,-0.8885,-0.8885,-0.8885,-0.8885,-0.8885,-0.8885,-0.8885,-0.8885,-0.8885,-0.8885,-0.8885,-0.8885,-0.8885,-0.8885,-0.8885,-0.8885,-0.8885,-0.8885,-0.8885,-0.8885,-0.8885,-0.8885,-0.8885,-0.8885,-0.8794,-0.8628,-0.8628,-0.8414,-0.8187,-0.8187,-0.8113,-0.7988,-0.7988,-0.7988,-0.8382,-0.9706,-1.0632,-1.1745,-1.3536,-1.4172,-1.422,-1.3655,-1.392,-1.3819,-1.2757,-1.3344,-1.3875,-1.3771,-1.3912,-1.4052,-1.4155,-1.4314,-1.4418,-1.4418,-1.4418,-1.4076,-1.3247,-1.3199,-1.2813,-1.1945,-1.1896,-1.1896,-1.1896,-1.1463,-1.0828,-0.9998,-0.9509,-0.9647,-1.0428,-1.2043,-1.3659,-0.9351,-0.9503,-0.9652,-0.9788,-0.9822,-0.9785,-0.9652,-0.9615,-0.9523,-0.9282,-0.9039,-0.8828,-0.8747,-0.8591,-0.8632,-0.9146,-0.9221,-0.9374,-0.9758,-0.9703,-0.9564,-0.9412,-0.9316,-0.911,-0.8908,-0.8888,0.0,-0.8885,0.0,-0.8885,-0.8885,-0.8885,-0.8885,-0.8885,-0.8885,-0.8885,-0.8885,-0.8885,-0.8885,-0.8885,-0.8885,-0.8885,-0.8885,-0.8885,-0.8885,-0.8885,-0.8885,-0.8885,-0.8885,-0.8885,-0.8885,-0.8885,-0.8885,-0.8885,-0.8885,-0.8885,-0.8885,-0.8885,-0.8885,-0.8885,-0.8885,-0.8885,-0.8885,-0.8885,-0.8885,-0.873,-0.8492,-0.8482,-0.8272,-0.8002,-0.7992,-0.7988,-0.7988,-0.7988,-0.7988,-0.8333,-0.9608,-0.9948,-1.0725,-1.3199,-1.2668,-1.2237,-1.3584,-1.2668,-1.1804,-1.1804,-1.1804,-1.1719,-1.1547,-1.1522,-1.1602,-1.1876,-1.1896,-1.1896,-1.1896,-1.1896,-1.1853,-1.1799,-1.1804,-1.175,-1.1702,-1.1702,-1.1702,-1.1702,-1.0534,-0.9903,-0.9903,-0.8676,-0.8911,-1.0542,-1.2149,-1.3767,-0.951,-0.9656,-0.9774,-0.9812,-0.9822,-0.9812,-0.9774,-0.9686,-0.9554,-0.9361,-0.9028,-0.8791,-0.8811,-0.8662,-0.8665,-0.9232,-0.9323,-0.9439,-0.9774,-0.9788,-0.9713,-0.9568,-0.9415,-0.9262,-0.9113,-0.9001,-0.8885,0.0,-0.8885,-0.8885,-0.8885,-0.8885,-0.8885,-0.8885,-0.8885,-0.8885,-0.8885,-0.8885,-0.8885,-0.8885,-0.8885,-0.8885,-0.8885,-0.8885,-0.8885,-0.8885,-0.8885,-0.8885,-0.8885,-0.8885,-0.8885,-0.8885,-0.8885,-0.8885,-0.8885,-0.8885,-0.8885,-0.8885,-0.8885,-0.8885,-0.8885,-0.8885,-0.8885,-0.8885,-0.8885,-0.8804,-0.8628,-0.8513,-0.835,-0.8184,-0.8019,-0.7988,-0.7988,-0.7988,-0.7988,-0.8088,-0.8432,-0.9316,-1.019,-1.0872,-1.0725,-1.0877,-1.2188,-1.1361,-1.0485,-1.0485,-1.0485,-1.0805,-1.1671,-1.1811,-1.1831,-1.1891,-1.1896,-1.1896,-1.1896,-1.1896,-1.1512,-1.0534,-1.0485,-1.0047,-0.9019,-0.897,-0.897,-0.897,-0.8676,-0.8528,-0.8528,-0.9167,-1.0412,-1.2215,-1.3649,-1.5255,-0.9663,-0.9761,-0.9822,-0.9822,-0.9822,-0.9788,-0.9656,-0.9564,-0.9429,-0.9144,-0.8832,-0.8635,-0.8723,-0.8547,-0.8584,-0.9241,-0.934,-0.9408,-0.9771,-0.9822,-0.9768,-0.9629,-0.9473,-0.932,-0.9224,-0.9022,-0.8885,-0.8885,-0.8885,-0.8885,-0.8885,-0.8885,-0.8885,-0.8885,-0.8885,-0.8885,-0.8885,-0.8885,-0.8885,-0.8885,-0.8885,-0.8885,-0.8885,-0.8885,-0.8885,-0.8885,0.0,-0.8885,-0.8885,-0.8885,-0.8885,-0.8885,-0.8885,-0.8885,-0.8885,-0.8885,-0.8885,-0.8885,-0.8885,-0.8885,-0.8885,-0.8885,-0.8885,-0.8885,-0.8885,-0.8832,-0.8679,-0.8526,-0.8425,-0.833,-0.818,-0.814,-0.814,-0.814,-0.8039,-0.7988,-0.7988,-0.8577,-0.946,-1.0632,-1.0391,-1.0386,-1.1702,-1.0337,-0.9118,-0.9118,-0.9118,-0.9361,-1.0092,-1.019,-1.019,-1.019,-1.019,-1.019,-1.019,-1.019,-0.9899,-0.9167,-0.9118,-0.8775,-0.8038,-0.7988,-0.7988,-0.7988,-0.7988,-0.8368,-0.908,-0.9821,-1.1414,-1.3846,-1.4619,-1.5936,-0.9788,-0.9822,-0.9822,-0.9822,-0.9926,-1.0017,-0.9731,-0.9636,-0.9486,-0.9063,-0.8676,-0.8465,-0.8506,-0.8394,-0.8545,-0.9142,-0.9241,-0.9391,-0.9761,-0.9822,-0.9774,-0.9652,-0.9503,-0.9351,-0.9255,-0.9069,-0.8925,-0.8888,-0.8902,-0.8902,-0.8885,-0.8885,-0.8885,-0.8885,-0.8885,-0.8885,-0.8885,-0.8885,-0.8885,-0.8885,-0.8885,-0.8885,-0.8885,-0.8885,-0.8885,-0.8885,-0.8885,-0.8885,-0.8885,-0.8885,-0.8885,-0.8885,-0.8885,-0.8885,-0.8885,-0.8885,-0.8885,-0.8885,-0.8885,-0.8885,-0.8885,-0.8885,-0.8885,-0.8885,-0.8885,-0.8845,-0.871,-0.8557,-0.8513,-0.8479,-0.8336,-0.835,-0.835,-0.835,-0.818,-0.8019,-0.8019,-0.8005,-0.8676,-1.0925,-1.0485,-1.0096,-1.1165,-0.9505,-0.7988,-0.7988,-0.7988,-0.7988,-0.7988,-0.7988,-0.7988,-0.7988,-0.7988,-0.7988,-0.7988,-0.7988,-0.7988,-0.7988,-0.7988,-0.7988,-0.7988,-0.7988,-0.7988,-0.7988,-0.8204,-0.9022,-1.0424,-1.0799,-1.2429,-1.5209,-1.5371,-1.6241,-0.9815,-0.9822,-0.9822,-0.9822,-1.0621,-1.1346,-1.1025,-1.0868,-1.0696,-1.0403,-0.9272,-0.8381,-0.8625,-0.8547,-0.8642,-0.9245,-0.934,-0.9452,-0.9774,-0.9822,-0.9812,-0.9788,-0.9656,-0.951,-0.9357,-0.932,-0.9201,0.0,-0.9049,-0.9062,-0.8892,-0.8885,-0.8885,-0.8885,-0.8885,-0.8885,-0.8885,-0.8885,-0.8885,-0.8885,-0.8885,-0.8885,-0.8885,-0.8885,-0.8885,-0.8885,-0.8885,0.0,-0.8885,-0.8885,-0.8885,-0.8885,-0.8885,-0.8885,-0.8885,-0.8885,-0.8885,-0.8885,-0.8885,-0.8885,-0.8885,-0.8885,-0.8885,-0.8885,-0.8885,-0.8865,-0.8811,-0.8713,-0.8669,-0.8635,-0.8486,-0.8445,-0.8445,-0.8445,-0.8336,-0.8231,-0.8231,-0.813,-0.8137,-0.8577,-0.8478,-0.8432,-0.8627,-0.8283,-0.7988,-0.7988,-0.7988,-0.7988,-0.7988,-0.7988,-0.7988,-0.7988,-0.7988,-0.7988,-0.7988,-0.7988,-0.7988,-0.7988,-0.7988,-0.7988,-0.7988,-0.7988,-0.7988,-0.7988,-0.9303,-1.0142,-1.0424,-1.2856,-1.4435,-1.5209,-1.6362,-1.7146,-1.2277,-1.2277,-1.2277,-1.2277,-1.2662,-1.2931,-1.2464,-1.1645,-1.0852,-1.0424,-0.9154,-0.8218,-0.8442,-0.8421,-0.8543,-0.9066,-0.9083,-0.9191,-0.9646,-0.9642,-0.9622,-0.97,-0.9581,-0.9432,-0.9333,-0.9195,-0.9093,-0.8895,-0.9001,-0.9011,-0.8888,-0.8885,-0.8885,-0.8885,-0.8885,-0.8885,-0.8885,-0.8885,-0.8885,-0.8885,-0.8885,-0.8885,-0.8885,-0.8885,-0.8885,-0.8885,-0.8885,-0.8885,-0.8885,-0.8885,-0.8885,-0.8885,-0.8885,-0.8885,-0.8885,-0.8885,-0.8885,-0.8885,-0.8885,-0.8885,-0.8885,-0.8885,-0.8885,-0.8885,-0.8885,-0.8885,-0.8851,-0.8754,-0.8767,-0.8794,-0.8638,-0.8601,-0.8601,-0.8601,-0.8431,-0.8323,-0.8323,-0.8211,-0.8355,-0.8994,-0.8664,-0.8473,-0.9126,-0.8661,-0.816,-0.816,-0.8092,-0.7988,-0.7988,-0.7988,-0.7988,-0.7988,-0.7988,-0.7988,-0.7988,-0.7988,-0.7988,-0.7988,-0.8116,-0.816,-0.816,-0.8231,-0.8619,-0.9372,-1.0161,-1.1327,-1.2879,-1.4333,-1.5512,-1.6474,-1.7108,-1.7501,-1.4589,-1.4564,-1.4538,-1.4589,-1.459,-1.436,-1.3832,-1.2685,-1.1548,-1.0937,-0.9554,-0.8478,-0.8689,-0.847,-0.8418,-0.8811,-0.8838,-0.8957,-0.953,-0.9507,-0.9473,-0.9595,-0.9503,-0.9357,-0.9228,-0.9079,-0.8952,-0.8888,-0.8885,-0.8885,-0.8885,-0.8885,-0.8885,-0.8885,-0.8885,-0.8885,-0.8885,-0.8885,-0.8885,-0.8885,-0.8885,-0.8885,-0.8885,-0.8885,-0.8885,-0.8885,-0.8885,-0.8885,0.0,-0.8885,-0.8885,-0.8885,-0.8885,-0.8885,-0.8885,-0.8885,-0.8885,-0.8885,-0.8885,-0.8885,-0.8885,-0.8885,-0.8885,-0.8885,-0.8885,-0.8885,-0.8858,-0.8794,-0.8845,-0.8854,-0.8791,-0.876,-0.875,-0.8716,-0.8533,-0.8353,-0.8323,-0.8368,-0.8618,-0.9619,-0.9116,-0.8793,-0.9823,-0.9054,-0.8368,-0.8368,-0.8187,-0.8039,-0.8039,-0.8012,-0.7988,-0.7988,-0.7988,-0.7988,-0.7988,-0.8019,-0.8039,-0.8039,-0.8231,-0.8368,-0.8368,-0.873,-0.9511,-1.0694,-1.1356,-1.2811,-1.5209,-1.5529,-1.635,-1.7582,-1.7582,-1.7582,-1.4543,-1.4447,-1.4278,-1.4548,-1.5104,-1.547,-1.5118,-1.4723,-1.4273,-1.3693,-1.1551,-0.9855,-0.9982,-0.9067,-0.8418,-0.8811,-0.8871,-0.9023,-0.9544,-0.9598,-0.9595,-0.9608,-0.9598,-0.9473,-0.9238,-0.9266,-0.9228,-0.8902,-0.8885,-0.8885,-0.8885,-0.8885,-0.8885,-0.8885,-0.8885,-0.8885,-0.8885,-0.8885,-0.8885,-0.8885,-0.8885,-0.8885,-0.8885,-0.8885,-0.8885,-0.8885,-0.8885,-0.8885,0.0,-0.8885,-0.8885,-0.8885,-0.8885,-0.8885,-0.8885,-0.8885,-0.8885,-0.8885,-0.8885,-0.8885,-0.8885,-0.8885,-0.8885,-0.8885,-0.8885,-0.8885,-0.8878,-0.8865,-0.8871,-0.8878,-0.8865,-0.8861,-0.8828,-0.8743,-0.8689,-0.8632,-0.8492,-0.8462,-0.8514,-0.8615,-0.8573,-0.8535,-0.8636,-0.8573,-0.8462,-0.8462,-0.834,-0.8248,-0.8248,-0.8126,-0.7988,-0.7988,-0.7988,-0.7988,-0.7988,-0.817,-0.8248,-0.8248,-0.8384,-0.8462,-0.8462,-0.9763,-1.0539,-1.0694,-1.3377,-1.492,-1.5209,-1.6669,-1.745,-1.7582,-1.7582,-1.7582,-1.734,-1.7434,-1.7374,-1.7489,-1.7563,-1.7437,-1.681,-1.5833,-1.4802,-1.4062,-1.2425,-1.0949,-1.019,-0.9663,-0.9174,-0.865,-0.8459,-0.8534,-0.9074,-0.9127,-0.9167,-0.9442,-0.9391,-0.9344,-0.9221,-0.913,-0.9066,-0.8892,-0.8885,-0.8885,-0.8885,-0.8885,-0.8885,-0.8885,-0.8885,-0.8885,-0.8885,-0.8885,-0.8885,-0.8885,-0.8885,-0.8885,-0.8885,-0.8885,-0.8885,-0.8885,-0.8885,-0.8885,0.0,-0.8885,-0.8885,-0.8885,-0.8885,-0.8885,-0.8885,-0.8885,-0.8885,-0.8885,-0.8885,-0.8885,-0.8885,-0.8885,-0.8885,-0.8885,-0.8885,-0.8885,-0.8885,-0.8885,-0.8885,-0.8885,-0.8885,-0.8885,-0.8868,-0.8807,-0.8777,-0.8693,-0.8632,-0.8618,-0.8618,-0.8618,-0.8696,-0.8757,-0.8757,-0.8679,-0.8618,-0.8618,-0.8492,-0.8397,-0.8397,-0.8343,-0.8306,-0.8306,-0.8096,-0.8025,-0.817,-0.8235,-0.8357,-0.8391,-0.8537,-0.8618,-0.8618,-1.0137,-1.1358,-1.2259,-1.4261,-1.5751,-1.6663,-1.7312,-1.7582,-1.7582,-1.7582,-1.7582,-1.9185,-1.9305,-1.9239,-1.9239,-1.8945,-1.845,-1.7642,-1.6542,-1.5403,-1.4612,-1.3397,-1.2231,-1.1307,-1.0534,-0.9863,-0.9497,-0.8711,-0.845,-0.9348,-0.9061,-0.8896,-0.9211,-0.9154,-0.9072,-0.9084,-0.8971,-0.8885,-0.8885,-0.8885,-0.8885,-0.8885,-0.8885,-0.8885,-0.8885,-0.8885,-0.8885,-0.8885,-0.8885,-0.8885,-0.8885,-0.8885,-0.8885,-0.8885,-0.8885,-0.8885,-0.8885,-0.8885,-0.8885,0.0,-0.8885,-0.8885,-0.8885,-0.8885,-0.8885,-0.8885,-0.8885,-0.8885,-0.8885,-0.8885,-0.8885,-0.8885,-0.8885,-0.8885,-0.8885,-0.8885,-0.8885,-0.8885,-0.8885,-0.8885,-0.8885,-0.8885,-0.8885,-0.8885,-0.8885,-0.8801,-0.8777,-0.8777,-0.8777,-0.8777,-0.8777,-0.8811,-0.8885,-0.8885,-0.8849,-0.8777,-0.8777,-0.8648,-0.855,-0.855,-0.8509,-0.8482,-0.8482,-0.8296,-0.8214,-0.8323,-0.8374,-0.8442,-0.8543,-0.9115,-0.9417,-0.9417,-1.1305,-1.2886,-1.3911,-1.531,-1.6552,-1.7582,-1.7582,-1.7582,-1.7582,-1.7582,-1.7582,-1.9132,-1.9152,-1.8925,-1.8925,-1.8435,-1.7896,-1.7347,-1.6921,-1.649,-1.5904,-1.4752,-1.3878,-1.3872,-1.1745,-1.0452,-1.1934,-1.0113,0.0,-1.0665,-0.9746,-0.8885,-0.8888,-0.8888,-0.8824,-0.873,-0.8797,-0.8885,-0.8885,-0.8885,0.0,-0.8885,-0.8885,-0.8885,-0.8885,-0.8885,-0.8885,-0.8885,-0.8885,-0.8885,-0.8885,-0.8885,-0.8885,-0.8885,-0.8885,-0.8885,-0.8885,-0.8885,-0.8885,0.0,-0.8885,-0.8885,-0.8885,-0.8885,-0.8885,-0.8885,-0.8885,-0.8885,-0.8885,-0.8885,-0.8885,-0.8885,-0.8885,-0.8885,-0.8885,-0.8885,-0.8885,-0.8885,-0.8885,-0.8885,-0.8885,-0.8885,-0.8885,-0.8885,-0.8885,-0.8881,-0.8881,-0.8881,-0.8881,-0.8881,-0.8881,-0.8881,-0.8885,-0.8885,-0.8881,-0.8881,-0.8881,-0.8804,-0.871,-0.871,-0.8574,-0.8482,-0.8482,-0.8479,-0.8479,-0.8479,-0.8618,-0.8706,-0.871,-1.0194,-1.1105,-1.1105,-1.3852,-1.5364,-1.5364,-1.6823,-1.7582,-1.7582,-1.7582,-1.7582,-1.7582,-1.7582,-1.7582,-1.8016,-1.8384,-1.8577,-1.8322,-1.8337,-1.8143,-1.7387,-1.7125,-1.6787,-1.5992,-1.5486,-1.4949,-1.407,-1.3199,-1.2597,-1.2388,-1.0822,-0.9927,-1.0682,-0.9616,-0.8821,-0.8871,-0.9025,-0.9028,-0.8879,-0.8854,-0.8885,-0.8885,-0.8885,-0.8885,-0.8885,-0.8885,-0.8885,-0.8885,-0.8885,-0.8885,-0.8885,-0.8885,-0.8885,-0.8885,-0.8885,-0.8885,-0.8885,-0.8885,-0.8885,-0.8885,-0.8885,-0.8885,0.0,-0.8885,-0.8885,-0.8885,-0.8885,-0.8885,-0.8885,-0.8885,-0.8885,-0.8885,-0.8885,-0.8885,-0.8885,-0.8885,-0.8885,-0.8885,-0.8885,-0.8885,-0.8885,-0.8885,-0.8885,-0.8885,-0.8885,-0.8885,-0.8885,-0.8885,-0.8885,-0.8885,-0.8885,-0.8885,-0.8885,-0.8885,-0.8885,-0.8885,-0.8885,-0.8885,-0.8885,-0.8885,-0.8844,-0.8811,-0.8811,-0.8825,-0.8794,-0.8794,-0.8794,-0.8754,-0.8648,-0.8682,-0.8754,-0.8804,-1.0265,-1.1105,-1.1105,-1.3857,-1.5417,-1.5417,-1.6876,-1.7582,-1.7582,-1.7582,-1.7582,-1.7582,-1.7582,-1.7582,-1.7649,-1.8036,-1.8277,-1.8042,-1.8135,-1.809,-1.7188,-1.7032,-1.676,-1.5992,-1.5784,-1.5581,-1.4752,-1.4214,-1.3835,-1.3705,-1.1783,-1.051,-1.1245,-0.9818,-0.8747,-0.8842,-0.893,-0.8974,-0.8888,-0.8885,-0.8885,-0.8885,-0.8885,-0.8885,-0.8885,-0.8885,-0.8885,-0.8885,-0.8885,-0.8885,-0.8885,-0.8885,-0.8854,-0.8797,-0.8854,-0.8854,-0.8801,-0.8858,-0.8885,-0.8885,-0.8885,0.0,0.0,-0.8885,-0.8885,-0.8885,-0.8885,-0.8885,-0.8885,-0.8885,-0.8885,-0.8885,-0.8885,-0.8885,-0.8885,-0.8885,-0.8885,-0.8885,-0.8885,-0.8885,-0.8885,-0.8885,-0.8885,-0.8885,-0.8885,-0.8885,-0.8885,-0.8885,-0.8885,-0.8885,-0.8885,-0.8885,-0.8885,-0.8885,-0.8885,-0.8885,-0.8885,-0.8885,-0.8885,-0.8885,-0.8885,-0.8885,-0.8885,-0.8885,-0.8885,-0.8885,-0.8885,-0.8844,-0.8804,-0.8798,-0.9054,-0.9691,-1.1105,-1.2186,-1.2724,-1.4984,-1.6227,-1.6227,-1.7147,-1.7582,-1.7582,-1.7582,-1.7582,-1.7582,-1.7582,-1.7582,0.0,-1.7942,-1.7955,-1.7935,-1.7949,-1.7729,-1.6907,-1.6707,0.0,-1.5904,-1.5784,-1.5791,-1.5804,-1.486,-1.4424,-1.564,-1.288,-1.0958,-1.2248,-1.029,-0.8713,-0.8726,-0.8726,-0.8781,-0.8868,-0.8885,-0.8885,-0.8885,-0.8885,-0.8885,-0.8885,-0.8885,-0.8885,-0.8885,-0.8871,-0.8868,-0.8868,-0.8858,-0.8835,-0.8696,-0.8838,-0.8835,-0.8716,-0.8804,-0.8871,0.0,-0.8885,0.0,0.0,-0.8885,-0.8885,-0.8885,-0.8885,-0.8885,-0.8885,-0.8885,-0.8885,-0.8885,-0.8885,-0.8885,-0.8885,-0.8885,-0.8885,-0.8885,-0.8885,-0.8885,-0.8885,-0.8885,-0.8885,-0.8885,-0.8885,-0.8885,-0.8885,-0.8885,-0.8885,-0.8885,-0.8885,-0.8885,-0.8885,-0.8885,-0.8885,-0.8885,-0.8885,-0.8885,-0.8885,-0.8885,-0.8885,-0.8885,-0.8885,-0.8885,-0.8885,-0.8885,-0.8885,-0.8937,-0.9047,-0.9047,-0.9644,-1.0996,-1.2566,-1.4019,-1.5364,-1.6823,-1.7582,-1.7582,-1.7582,-1.7582,-1.7582,-1.7582,-1.7582,-1.7582,-1.7582,-1.7582,-1.7261,0.0,-1.7635,-1.7415,-1.7528,-1.7515,0.0,-1.6707,-1.654,-1.5904,-1.5784,-1.5899,-1.6126,-1.5732,-1.5582,-1.6377,-1.3909,-1.2088,-1.2495,-1.0343,-0.8754,-0.8817,-0.8828,-0.8844,-0.8878,-0.8885,-0.8885,-0.8885,-0.8885,-0.8885,-0.8885,-0.8885,-0.8885,-0.8885,-0.8825,-0.8764,-0.8764,-0.8648,-0.857,-0.8537,-0.857,-0.8632,-0.8713,-0.8747,-0.8828,-0.8885,0.0,0.0,-0.8885,-0.8885,-0.8885,-0.8885,-0.8885,-0.8885,-0.8885,-0.8885,-0.8885,-0.8885,-0.8885,-0.8885,-0.8885,-0.8885,-0.8885,-0.8885,-0.8885,-0.8885,-0.8885,-0.8885,-0.8885,-0.8885,-0.8885,-0.8885,-0.8885,-0.8885,-0.8885,-0.8885,-0.8885,-0.8885,-0.8885,-0.8885,-0.8885,-0.8885,-0.8885,-0.8885,-0.8885,-0.8885,-0.8885,-0.8885,-0.8885,-0.8885,-0.8885,-0.8885,-0.8885,-0.9375,-1.0511,-1.0566,-1.0726,-1.1055,-1.3475,-1.5037,-1.5417,-1.6823,-1.7582,-1.7582,-1.7582,-1.7582,-1.7582,-1.7582,-1.7582,-1.7582,-1.7582,-1.7582,-1.7353,-1.742,-1.7427,-1.7407,-1.742,-1.7313,-1.6807,-1.66,-1.638,-1.5878,-1.5784,-1.5681,-1.5248,-1.511,-1.4942,-1.468,-1.2931,-1.144,-1.0947,-0.9669,-0.8845,-0.8871,-0.8885,-0.8885,0.0,-0.8885,-0.8885,-0.8885,-0.8885,-0.8885,-0.8885,-0.8885,-0.8885,-0.8885,-0.8791,-0.871,-0.871,-0.856,-0.8448,-0.8387,-0.8523,-0.8594,-0.8611,-0.875,-0.8804,-0.8885,0.0,0.0,-0.8885,-0.8885,-0.8885,-0.8885,-0.8885,-0.8885,-0.8885,-0.8885,-0.8885,-0.8885,-0.8885,-0.8885,-0.8885,-0.8885,-0.8885,-0.8885,-0.8885,-0.8885,-0.8885,-0.8885,-0.8885,-0.8885,-0.8885,-0.8885,-0.8885,-0.8885,-0.8885,-0.8885,-0.8885,-0.8885,-0.8885,-0.8885,-0.8885,-0.8885,-0.8885,-0.8885,-0.8885,-0.8885,-0.8885,-0.8885,-0.8885,-0.8885,-0.9154,-0.986,-0.9915,-1.0511,-1.1969,-1.2724,-1.3048,-1.3048,-1.4556,-1.5689,-1.6387,-1.7206,-1.7582,-1.7582,-1.7582,-1.7582,-1.7582,-1.7582,-1.7582,-1.7582,-1.7582,-1.7582,-1.7582,-1.7435,-1.7387,-1.7528,-1.7454,-1.7179,-1.678,-1.6513,-1.6239,-1.5899,-1.5635,-1.522,-1.4177,-1.3898,-1.3491,-1.246,-1.1401,-1.0258,-0.9078,-0.8885,-0.8885,-0.8885,-0.8885,-0.8885,-0.8885,-0.8885,-0.8885,-0.8885,-0.8885,-0.8885,-0.8885,-0.8885,-0.8885,-0.8885,-0.8767,-0.8676,-0.8676,-0.8526,-0.8377,-0.8238,-0.8489,-0.8564,-0.8489,-0.875,-0.8841,-0.8885,0.0,0.0,-0.8885,-0.8885,-0.8885,-0.8885,-0.8885,-0.8885,-0.8885,-0.8885,-0.8885,-0.8885,-0.8885,-0.8885,-0.8885,-0.8885,-0.8885,-0.8885,-0.8885,-0.8885,-0.8885,-0.8885,-0.8885,-0.8885,-0.8885,-0.8885,-0.8885,-0.8885,-0.8885,-0.8885,-0.8885,-0.8885,-0.8885,-0.8885,-0.8885,-0.8885,-0.8885,-0.8885,-0.8885,-0.8885,-0.8885,-0.8885,-0.8885,-0.9103,-0.9644,-1.0672,-1.116,-1.1919,-1.321,-1.4609,-1.5524,-1.5737,-1.5743,-1.628,-1.7529,-1.7582,-1.7582,-1.7582,-1.7582,-1.7582,-1.7582,-1.7582,-1.7582,-1.7582,-1.7582,-1.7582,-1.7582,-1.7742,-1.7856,-1.7635,-1.7549,-1.7375,-1.6827,-1.6667,-1.6486,-1.5945,-1.4949,-1.4256,-1.4454,-1.3379,-1.2541,-1.2665,-1.1583,-1.0258,-0.9078,-0.8885,-0.8885,-0.8885,-0.8885,-0.8885,-0.8885,-0.8885,-0.8885,-0.8885,-0.8885,-0.8885,-0.8885,-0.8885,-0.8885,-0.8885,-0.8665,-0.8516,-0.8516,-0.8374,-0.8225,-0.8025,-0.8069,-0.8262,-0.8482,-0.853,-0.8693,-0.8885,0.0,-0.8885,-0.8885,-0.8885,-0.8885,-0.8885,-0.8885,-0.8885,-0.8885,-0.8885,-0.8885,-0.8885,-0.8885,-0.8885,-0.8885,-0.8885,-0.8885,-0.8885,-0.8885,-0.8885,-0.8885,-0.8885,-0.8885,-0.8885,-0.8885,-0.8885,-0.8885,-0.8885,-0.8885,-0.8885,-0.8885,-0.8885,-0.8885,-0.8885,-0.8885,-0.8885,-0.8885,-0.8885,-0.8885,-0.8885,-0.8885,-0.8885,-0.8885,-0.997,-1.0351,-0.9375,-1.1483,-1.3048,-1.327,-1.4609,-1.5956,-1.7199,-1.7252,-1.7364,-1.7582,-1.7582,-1.7582,-1.7582,-1.7582,-1.7582,-1.7582,-1.7582,-1.7582,-1.7582,-1.7582,-1.7582,-1.6304,-1.6208,-1.6374,-1.6505,-1.6446,-1.6287,-1.5888,-1.5059,-1.428,-1.4,-1.3496,-1.2912,-1.2408,-1.1883,-1.1385,-1.0916,-1.0312,-0.9655,-0.8992,-0.8885,-0.8885,-0.8885,-0.8885,-0.8885,-0.8885,-0.8885,-0.8885,-0.8885,-0.8885,-0.8885,-0.8885,-0.8885,-0.8885,-0.8885,-0.8801,-0.8648,-0.8482,-0.8418,-0.8269,-0.7992,-0.8201,-0.835,-0.8486,-0.8655,-0.8804,-0.8885,0.0,-0.8885,-0.8885,-0.8885,-0.8885,-0.8885,-0.8885,-0.8885,-0.8885,-0.8885,-0.8885,-0.8885,-0.8885,-0.8885,-0.8885,-0.8885,-0.8885,-0.8885,-0.8885,-0.8885,-0.8885,-0.8885,-0.8885,-0.8885,-0.8885,-0.8885,-0.8885,-0.8885,-0.8885,-0.8885,-0.8885,-0.8885,-0.8885,-0.8885,-0.8885,-0.8885,-0.8885,-0.8885,-0.8885,-0.8885,-0.8885,-0.8885,-0.8885,-1.0186,-1.116,-1.1269,-1.3156,-1.4776,-1.5583,-1.6227,-1.6876,-1.7582,-1.7582,-1.7582,-1.7582,-1.7582,-1.7582,-1.7582,-1.7582,-1.7582,-1.7582,-1.7582,-1.7582,-1.7582,-1.7582,-1.7582,-1.5209,-1.4728,-1.4664,-1.4911,-1.495,-1.4955,-1.5141,-1.3813,-1.2556,-1.2499,-1.2252,-1.1718,-1.0718,-1.0513,-1.0212,-0.9255,-0.9187,-0.9103,-0.8902,-0.8885,-0.8885,-0.8885,-0.8885,-0.8885,-0.8885,-0.8885,-0.8885,-0.8885,-0.8885,-0.8885,-0.8885,-0.8885,-0.8885,-0.8885,-0.8848,-0.8771,-0.8537,-0.8469,-0.8299,-0.7992,-0.8306,-0.8452,-0.8489,-0.876,-0.8851,-0.8885,-0.8885,-0.8885,-0.8885,-0.8885,-0.8885,-0.8885,-0.8885,-0.8885,-0.8885,-0.8885,-0.8885,-0.8885,-0.8885,-0.8885,-0.8885,-0.8885,-0.8885,-0.8885,-0.8885,-0.9154,-0.932,-0.8992,-0.9372,-0.986,-0.9482,-0.9427,-0.9427,-0.9427,-0.9427,-0.9427,-0.9427,-0.9427,-0.9427,-0.9427,-0.9158,-0.8885,-0.8885,-0.8885,-0.8885,-0.8885,-0.8885,-0.9047,-0.9372,-1.0672,-1.2023,-1.3156,-1.4883,-1.6387,-1.7477,-1.7582,-1.7582,-1.7582,-1.7582,-1.7582,-1.7582,-1.7582,-1.7582,-1.7582,-1.7582,-1.7582,-1.7582,-1.7582,-1.7582,-1.7582,-1.7582,-1.7582,-1.5185,-1.43,-1.3362,-1.3209,-1.3321,-1.3862,-1.5324,-1.4256,-1.2896,-1.2783,-1.1724,-1.0811,-1.0866,-1.0017,-0.9205,-0.8974,-0.9066,-0.9103,-0.8902,-0.8885,-0.8885,-0.8885,-0.8885,-0.8885,-0.8885,-0.8885,-0.8885,-0.8885,-0.8885,-0.8885,-0.8885,-0.8885,-0.8885,-0.8885,-0.8801,-0.8716,-0.8696,-0.8421,-0.8204,-0.7992,-0.8208,-0.8357,-0.8486,-0.8652,-0.8804,-0.8885,-0.8885,-0.8885,-0.8885,-0.8885,-0.8885,-0.8885,-0.8885,-0.8885,-0.8885,-0.8885,-0.8885,-0.8885,-0.8885,-0.8885,-0.8885,-0.8885,-0.8885,-0.8885,-0.8885,-0.986,-1.0676,-0.9261,-1.0891,-1.2674,-1.1324,-1.0945,-1.0945,-1.0945,-1.0945,-1.0945,-1.0945,-1.0945,-1.0945,-1.0945,-0.986,-0.8885,-0.8885,-0.8885,-0.8885,-0.8885,-0.8885,-0.9372,-1.0781,-1.224,-1.3156,-1.3264,-1.5796,-1.747,-1.7582,-1.7582,-1.7582,-1.7582,-1.7582,-1.7582,-1.7582,-1.7582,-1.7582,-1.7582,-1.7582,-1.7582,-1.7582,-1.7582,-1.7582,-1.7582,-1.7582,-1.7582,-1.4909,-1.4366,-1.4201,-1.4509,-1.3305,-1.2225,-1.2853,-1.2423,-1.1689,-1.0868,-1.0284,-0.9927,-0.9982,-0.9595,-0.9245,-0.9096,-0.9198,-0.9211,-0.8915,-0.8885,-0.8885,-0.8885,-0.8885,-0.8885,-0.8885,-0.8885,-0.8885,-0.8885,-0.8885,-0.8885,-0.8885,-0.8885,-0.8885,-0.8885,-0.8828,-0.8808,-0.8713,-0.8601,-0.8469,-0.8316,-0.8374,-0.8431,-0.8489,-0.8737,-0.8828,-0.8885,-0.8885,-0.8885,-0.8885,-0.8885,-0.8885,-0.8885,-0.8885,-0.8885,-0.8885,-0.8885,-0.8885,-0.8885,-0.8885,-0.8885,-0.9047,-0.997,-1.0296,-1.0457,-1.1378,-1.2028,-1.2349,-1.181,-1.3048,-1.4073,-1.1701,-1.1755,-1.2457,-1.2457,-1.2457,-1.2457,-1.2457,-1.2457,-1.2457,-1.2457,-1.2023,-1.1324,-1.0457,-1.0296,-0.997,-0.9047,-0.8885,-0.9427,-1.0891,-1.2403,-1.3642,-1.4502,-1.6393,-1.7582,-1.7582,-1.7582,-1.7582,-1.7582,-1.7582,-1.7582,-1.7582,-1.7582,-1.7582,-1.7582,-1.7582,-1.7582,-1.7582,-1.7582,-1.7582,-1.7582,-1.7582,-1.7582,-1.4628,-1.4033,-1.3875,-1.4473,-1.3595,-1.2344,-1.153,-1.1057,-1.0528,-0.9721,-0.9445,-0.9367,-0.9317,-0.9347,-0.9317,-0.9117,-0.9252,-0.9276,-0.8925,-0.8885,-0.8885,-0.8885,-0.8885,-0.8885,-0.8885,-0.8885,-0.8885,-0.8885,-0.8885,-0.8885,-0.8885,-0.8885,-0.8885,-0.8885,-0.8885,-0.8834,-0.8784,-0.8733,-0.8659,-0.8554,-0.8554,-0.8554,-0.8564,-0.8821,-0.8885,-0.8885,-0.8885,-0.8885,-0.8885,-0.8885,-0.8885,-0.8885,-0.8885,-0.8885,-0.8885,-0.8885,-0.8885,-0.8885,-0.8885,-0.921,-0.9754,-1.0781,-1.1428,-1.1969,-1.2994,-1.3588,-1.3857,-1.3426,-1.4663,-1.5524,-1.3102,-1.321,-1.3965,-1.3965,-1.3965,-1.3965,-1.3965,-1.3965,-1.3965,-1.3965,-1.3588,-1.2999,-1.1969,-1.181,-1.1428,-1.0457,-1.0296,-1.0836,-1.2295,-1.3318,-1.4502,-1.5956,-1.6982,-1.7582,-1.7582,-1.7582,-1.7582,-1.7582,-1.7582,-1.7582,-1.7582,-1.7582,-1.7582,-1.7582,-1.7582,-1.7582,-1.7582,-1.7582,-1.7582,-1.7582,-1.7582,-1.7582,-1.4424,-1.3144,-1.2056,-1.2542,-1.3925,-1.4512,-1.2094,-1.0537,-0.9649,-0.9791,-0.9588,-0.9337,-0.9241,-0.9337,-0.9283,-0.8932,-0.9188,-0.9276,-0.8925,-0.8885,-0.8885,-0.8885,-0.8885,-0.8885,-0.8885,-0.8885,-0.8885,-0.8885,-0.8885,-0.8885,-0.8885,-0.8885,-0.8885,-0.8885,-0.8885,-0.8885,-0.8885,-0.8788,-0.8713,-0.8713,-0.8713,-0.8713,-0.8716,-0.8814,-0.8885,-0.8885,-0.8885,-0.8885,-0.8885,-0.8885,-0.894,-0.8937,-0.8937,-0.8937,-0.8937,-0.8937,-0.8937,-0.8937,-0.8937,-0.9915,-1.1105,-1.116,-1.2132,-1.3318,-1.3318,-1.4288,-1.515,-1.375,-1.5417,-1.7252,-1.5796,-1.5417,-1.5417,-1.5417,-1.5417,-1.5417,-1.5417,-1.5417,-1.5417,-1.5417,-1.4288,-1.3318,-1.3318,-1.3318,-1.3324,-1.3318,-1.3318,-1.3804,-1.5204,-1.5417,-1.5956,-1.7417,-1.7582,-1.7582,-1.7582,-1.7582,-1.7582,-1.7582,-1.7582,-1.7582,-1.7582,-1.7582,-1.7582,-1.7582,-1.7582,-1.7582,-1.7582,-1.7582,-1.7582,-1.7582,-1.7582,-1.7582,-1.5793,-1.5498,-1.5413,-1.5954,-1.5141,-1.4045,-1.3761,-1.3215,-1.2279,-1.0208,-0.9673,-0.9496,-0.9344,-0.9351,-0.9283,-0.8932,-0.9096,-0.9154,-0.8908,-0.8885,-0.8885,-0.8885,-0.8885,-0.8885,-0.8885,-0.8885,-0.8885,-0.8885,-0.8885,-0.8885,-0.8885,-0.8885,-0.8885,-0.8885,-0.8885,-0.8885,-0.8885,-0.8838,-0.8814,-0.8814,-0.8814,-0.8815,-0.8716,-0.8814,-0.8885,-0.8885,-0.8885,-0.8885,-0.8885,-0.8885,-1.0131,-1.1914,-1.0836,-1.1055,-1.1973,-1.1973,-1.1973,-1.1973,-1.1973,-1.2295,-1.2832,-1.3804,-1.4395,-1.499,-1.6015,-1.6605,-1.6876,-1.6446,-1.6929,-1.7477,-1.7041,-1.6935,-1.6935,-1.6935,-1.6935,-1.6935,-1.6935,-1.6935,-1.6935,-1.6935,-1.6605,-1.6015,-1.4936,-1.477,-1.4449,-1.3426,-1.3318,-1.3804,-1.5204,-1.6333,-1.7094,-1.7529,-1.7582,-1.7582,-1.7582,-1.7582,-1.7582,-1.7582,-1.7582,-1.7582,-1.7582,-1.7582,-1.7582,-1.7582,-1.7582,-1.7582,-1.7582,-1.7582,-1.7582,-1.7582,-1.7582,-1.7582,-1.578,-1.6247,-1.6886,-1.6767,-1.6138,-1.5421,-1.4734,-1.3487,-1.1954,-1.0158,-0.9707,-0.9561,-0.9408,-0.9381,-0.9303,-0.9062,-0.9096,-0.918,-0.9035,-0.8974,-0.8885,-0.8885,-0.8885,-0.8885,-0.8885,-0.8885,-0.8885,-0.8885,-0.8885,-0.8885,-0.8885,-0.8885,-0.8885,-0.8885,-0.8885,-0.8885,-0.8885,-0.8885,-0.8885,-0.8885,-0.8885,-0.8834,-0.8804,-0.8841,-0.8885,-0.8878,-0.8817,-0.917,-0.9654,-0.9064,-1.0607,-1.3156,-1.1701,-1.2023,-1.3318,-1.3318,-1.3318,-1.3318,-1.3318,-1.3642,-1.4288,-1.5097,-1.5796,-1.6446,-1.7312,-1.7582,-1.7582,-1.7582,-1.7582,-1.7582,-1.7582,-1.7582,-1.7582,-1.7582,-1.7582,-1.7582,-1.7582,-1.7582,-1.7582,-1.7582,-1.7582,-1.7312,-1.6446,-1.628,-1.6009,-1.515,-1.499,-1.531,-1.6174,-1.7041,-1.7582,-1.7582,-1.7582,-1.7582,-1.7582,-1.7582,-1.7582,-1.7582,-1.7582,-1.7582,-1.7582,-1.7582,-1.7582,-1.7582,-1.7582,-1.7582,-1.7582,-1.7582,-1.7582,-1.7582,-1.7582,-1.7582,-1.4856,-1.5634,-1.6574,-1.5524,-1.6612,-1.7265,-1.4744,-1.1916,-0.9819,-0.9805,-0.97,-0.9557,-0.9391,-0.9371,-0.9327,-0.9217,-0.92,-0.9204,-0.919,-0.9022,-0.8885,-0.8885,-0.8885,-0.8885,-0.8885,-0.8885,-0.8885,-0.8885,-0.8885,-0.8885,-0.8885,-0.8885,-0.8885,-0.8885,-0.8885,-0.8885,-0.8885,-0.8885,-0.8885,-0.8885,-0.8868,-0.8972,-0.9082,-0.893,-0.8985,-0.9071,-0.8916,-0.9754,-1.1141,-0.9663,-1.0882,-1.3534,-1.2077,-1.2403,-1.3696,-1.3696,-1.3696,-1.3696,-1.3696,-1.4556,-1.5583,-1.5583,-1.6499,-1.7582,-1.7582,-1.7582,-1.7582,-1.7582,-1.7582,-1.7582,-1.7582,-1.7582,-1.7582,-1.7582,-1.7582,-1.7582,-1.7582,-1.7582,-1.7582,-1.7582,-1.7582,-1.7582,-1.7582,-1.7582,-1.7582,-1.7582,-1.7582,-1.7582,-1.7582,-1.7582,-1.7582,-1.7582,-1.7582,-1.7582,-1.7582,-1.7582,-1.7582,-1.7582,-1.7582,-1.7582,-1.7582,-1.7582,-1.7582,-1.7582,-1.7582,-1.7582,-1.7582,-1.7582,-1.7582,-1.7582,-1.7733,-1.7786,-1.4451,-1.4156,-1.3938,-1.4068,-1.3831,-1.3063,-1.1242,-1.0301,-0.9788,-0.968,-0.9632,-0.9527,-0.9309,-0.93,-0.9293,-0.9028,-0.9079,-0.9169,-0.9001,-0.8902,-0.8885,-0.8885,-0.8885,-0.8885,-0.8885,-0.8885,-0.8885,-0.8885,-0.8885,-0.8885,-0.8885,-0.8885,-0.8885,-0.8885,-0.8885,-0.8885,-0.8885,-0.8885,-0.8885,0.0,-0.8818,-0.9295,-1.0258,-0.9318,-0.9413,-1.0299,-1.0116,-1.1574,-1.3986,-1.2509,-1.3805,-1.6552,-1.5037,-1.5364,-1.6664,-1.6664,-1.6664,-1.6664,-1.6664,-1.6876,-1.7147,-1.7147,-1.7364,-1.7582,-1.7582,-1.7582,-1.7582,-1.7582,-1.7582,-1.7582,-1.7582,-1.7582,-1.7582,-1.7582,-1.7582,-1.7582,-1.7582,-1.7582,-1.7582,-1.7582,-1.7582,-1.7582,-1.7582,-1.7582,-1.7582,-1.7582,-1.7582,-1.7582,-1.7582,-1.7582,-1.7582,-1.7582,-1.7582,-1.7582,-1.7582,-1.7582,-1.7582,-1.7582,-1.7582,-1.7582,-1.7582,-1.7582,-1.7582,-1.7582,-1.7582,-1.7582,-1.7582,-1.7582,-1.7582,-1.7635,-1.8655,-1.9169,-1.2807,-1.2981,-1.3447,-1.3994,-1.319,-1.1976,-1.1137,-1.0361,-0.9781,-0.9639,-0.9608,-0.9537,-0.9306,-0.9323,-0.9222,-0.9066,-0.9045,-0.9049,-0.9042,-0.8981,-0.8885,-0.8885,-0.8885,-0.8885,-0.8885,-0.8885,-0.8885,-0.8885,-0.8885,-0.8885,-0.8885,-0.8885,-0.8885,-0.8885,-0.8885,-0.8885,-0.8885,-0.8811,-0.8828,-0.8828,-0.9308,-1.0265,-1.1677,-1.1035,-1.1082,-1.1631,-1.1617,-1.2863,-1.4808,-1.3461,-1.4756,-1.747,-1.5956,-1.628,-1.7582,-1.7582,-1.7582,-1.7582,-1.7582,-1.7582,-1.7582,-1.7582,-1.7582,-1.7582,-1.7582,-1.7582,-1.7582,-1.7582,-1.7582,-1.7582,-1.7582,-1.7582,-1.7582,-1.7582,-1.7582,-1.7582,-1.7582,-1.7582,-1.7582,-1.7582,-1.7582,-1.7582,-1.7582,-1.7582,-1.7582,-1.7582,-1.7582,-1.7582,-1.7582,-1.7582,-1.7582,-1.7582,-1.7582,-1.7582,-1.7582,-1.7582,-1.7582,-1.7582,-1.7582,-1.7582,-1.7582,-1.7582,-1.7582,-1.7582,-1.7582,-1.7582,-1.7582,-1.7582,-1.7943,-1.8551,-1.9272,-1.9981,-1.1098,-1.1851,-1.3064,-1.3633,-1.2726,-1.1796,-1.1796,-1.0781,-0.9788,-0.9669,-0.9605,-0.9523,-0.9371,-0.9296,-0.92,-0.9176,-0.9035,-0.9008,-0.9103,-0.9015,-0.8885,-0.8885,-0.8885,-0.8885,-0.8885,-0.8885,-0.8885,-0.8885,-0.8885,-0.8885,-0.8885,-0.8885,-0.8885,-0.8885,-0.8885,-0.8871,-0.8844,-0.8774,-0.8696,-0.8669,-1.01,-1.1609,-1.3137,-1.3441,-1.3351,-1.3023,-1.3221,-1.4029,-1.5143,-1.4153,-1.5287,-1.747,-1.628,-1.6552,-1.7582,-1.7582,-1.7582,-1.7582,-1.7582,-1.7582,-1.7582,-1.7582,-1.7582,-1.7582,-1.7582,-1.7582,-1.7582,-1.7582,-1.7582,-1.7582,-1.7582,-1.7582,-1.7582,-1.7582,-1.7582,-1.7582,-1.7582,-1.7582,-1.7582,-1.7582,-1.7582,-1.7582,-1.7582,-1.7582,-1.7582,-1.7582,-1.7582,-1.7582,-1.7582,-1.7582,-1.7582,-1.7582,-1.7582,-1.7582,-1.7582,-1.7582,-1.7582,-1.7582,-1.7582,-1.7582,-1.7582,-1.7582,-1.7582,-1.7582,-1.7582,-1.7582,-1.7582,-1.7582,-1.8297,-1.9627,-1.9826,-2.0692,-1.0781,-1.0225,-1.0026,-1.0232,-1.0204,-1.0119,-1.0119,-0.994,-0.9815,-0.9795,-0.9588,-0.9364,-0.9268,-0.9224,-0.9169,-0.8988,-0.9055,-0.9086,-0.8981,-0.8895,-0.8885,-0.8885,-0.8885,-0.8885,-0.8885,-0.8885,-0.8885,-0.8885,-0.8885,-0.8885,-0.8885,-0.8885,-0.8885,-0.8885,-0.8885,-0.8821,-0.8743,-0.872,-0.8645,-0.8562,-1.1122,-1.3074,-1.4599,-1.5978,-1.5911,-1.466,-1.4572,-1.5426,-1.6883,-1.671,-1.6996,-1.7582,-1.7364,-1.7417,-1.7582,-1.7582,-1.7582,-1.7582,-1.7582,-1.7582,-1.7582,-1.7582,-1.7582,-1.7582,-1.7582,-1.7582,-1.7582,-1.7582,-1.7582,-1.7582,-1.7582,-1.7582,-1.7582,-1.7582,-1.7582,-1.7582,-1.7582,-1.7582,-1.7582,-1.7582,-1.7582,-1.7582,-1.7582,-1.7582,-1.7582,-1.7582,-1.7582,-1.7582,-1.7582,-1.7582,-1.7582,-1.7582,-1.7582,-1.7582,-1.7582,-1.7582,-1.7582,-1.7582,-1.7582,-1.7582,-1.7582,-1.7582,-1.7582,-1.7582,-1.7582,-1.7582,-1.7582,-1.7582,-1.8297,-1.9627,-2.0837,-2.2156,-1.075,-0.989,-0.9379,-1.0575,-1.0242,-0.9724,-0.9802,-0.9822,-0.9822,-0.9822,-0.9656,-0.9462,-0.931,-0.9268,-0.9106,-0.8905,-0.8991,-0.9011,-0.8892,-0.8885,-0.8885,-0.8885,-0.8885,-0.8885,-0.8885,-0.8885,-0.8885,-0.8885,-0.8885,-0.8885,-0.8885,-0.8885,-0.8885,-0.8885,-0.8801,-0.8777,-0.871,-0.8547,-0.9198,-1.0697,-1.1914,-1.3774,-1.617,-1.6876,-1.6832,-1.6252,-1.6336,-1.6704,-1.7213,-1.738,-1.7468,-1.7582,-1.7582,-1.7582,-1.7582,-1.7582,-1.7582,-1.7582,-1.7582,-1.7582,-1.7582,-1.7582,-1.7582,-1.7582,-1.7582,-1.7582,-1.7582,-1.7582,-1.7582,-1.7582,-1.7582,-1.7582,-1.7582,-1.7582,-1.7582,-1.7582,-1.7582,-1.7582,-1.7582,-1.7582,-1.7582,-1.7582,-1.7582,-1.7582,-1.7582,-1.7582,-1.7582,-1.7582,-1.7582,-1.7582,-1.7582,-1.7582,-1.7582,-1.7582,-1.7582,-1.7582,-1.7582,-1.7582,-1.7582,-1.7582,-1.7582,-1.7582,-1.7582,-1.7582,-1.7582,-1.7582,-1.7582,-1.8349,-1.942,-2.0786,-2.2156,-2.3534,-1.107,-1.0506,-1.0061,-1.1261,-1.079,-0.9939,-0.9736,-0.9741,-0.9768,-0.9768,-0.971,-0.9605,-0.9415,-0.9313,-0.9106,-0.8905,-0.8885,-0.8885,-0.8885,-0.8885,-0.8885,-0.8885,-0.8885,-0.8885,-0.8885,-0.8885,-0.8885,-0.8885,-0.8885,-0.8885,-0.8885,-0.8885,-0.8885,-0.8885,-0.8791,-0.8693,-0.8652,-0.836,-0.9633,-1.2379,-1.249,-1.4145,-1.7206,-1.728,-1.7306,-1.7326,-1.7488,-1.7514,-1.7326,-1.7548,-1.7582,-1.7582,-1.7582,-1.7582,-1.7582,-1.7582,-1.7582,-1.7582,-1.7582,-1.7582,-1.7582,-1.7582,-1.7582,-1.7582,-1.7582,-1.7582,-1.7582,-1.7582,-1.7582,-1.7582,-1.7582,-1.7582,-1.7582,-1.7582,-1.7582,-1.7582,-1.7582,-1.7582,-1.7582,-1.7582,-1.7582,-1.7582,-1.7582,-1.7582,-1.7582,-1.7582,-1.7582,-1.7582,-1.7582,-1.7582,-1.7582,-1.7582,-1.7582,-1.7582,-1.7582,-1.7582,-1.7582,-1.7582,-1.7582,-1.7582,-1.7582,-1.7582,-1.7582,-1.7582,-1.7943,-1.8094,-1.8094,-1.9117,-2.0487,-2.2206,-2.3226,-2.4402,-1.2089,-1.2161,-1.2021,-1.115,-1.1001,-1.073,-0.9654,-0.9517,-0.9618,-0.9618,-0.9724,-0.9724,-0.9435,-0.9313,-0.9106,-0.8905,-0.8885,-0.8885,-0.8885,-0.8885,-0.8885,-0.8885,-0.8885,-0.8885,-0.8885,-0.8885,-0.8885,-0.8885,-0.8885,-0.8885,-0.8885,-0.8885,-0.8885,-0.8885,-0.8791,-0.8638,-0.8496,-0.8201,-0.9506,-1.2384,-1.2644,-1.431,-1.7213,-1.7435,-1.7562,-1.7562,-1.7575,-1.7575,-1.7562,-1.7575,-1.7582,-1.7582,-1.7582,-1.7582,-1.7582,-1.7582,-1.7582,-1.7582,-1.7582,-1.7582,-1.7582,-1.7582,-1.7582,-1.7582,-1.7582,-1.7582,-1.7582,-1.7582,-1.7582,-1.7582,-1.7582,-1.7582,-1.7582,-1.7582,-1.7582,-1.7582,-1.7582,-1.7582,-1.7582,-1.7582,-1.7582,-1.7582,-1.7582,-1.7582,-1.7582,-1.7582,-1.7582,-1.7582,-1.7582,-1.7582,-1.7582,-1.7582,-1.7582,-1.7582,-1.7582,-1.7582,-1.7582,-1.7582,-1.7582,-1.7582,-1.7582,-1.7582,-1.7582,-1.7582,-1.8864,-1.948,-1.948,-1.9583,-2.0998,-2.3592,-2.3683,-2.4402,-1.3488,-1.2163,-1.1341,-1.2712,-1.1352,-0.9824,-1.0379,-0.9983,-0.9462,-0.9462,-0.9503,-0.9476,-0.933,-0.9326,-0.9222,-0.8922,-0.8885,-0.8885,-0.8885,-0.8885,-0.8885,-0.8885,-0.8885,-0.8885,-0.8885,-0.8885,-0.8885,-0.8885,-0.8885,-0.8885,-0.8885,-0.8885,-0.8838,-0.8794,-0.8645,-0.8445,-0.8201,-0.9086,-1.0567,-1.2649,-1.3802,-1.5411,-1.7481,-1.7535,-1.7582,-1.7582,-1.7582,-1.7582,-1.7582,-1.7582,-1.7582,-1.7582,-1.7582,-1.7582,-1.7582,-1.7582,-1.7582,-1.7582,-1.7582,-1.7582,-1.7582,-1.7582,-1.7582,-1.7582,-1.7582,-1.7582,-1.7582,-1.7582,-1.7582,-1.7582,-1.7582,-1.7582,-1.7582,-1.7582,-1.7582,-1.7582,-1.7582,-1.7582,-1.7582,-1.7582,-1.7582,-1.7582,-1.7582,-1.7582,-1.7582,-1.7582,-1.7582,-1.7582,-1.7582,-1.7582,-1.7582,-1.7582,-1.7582,-1.7582,-1.7582,-1.7582,-1.7582,-1.7582,-1.7582,-1.7669,-1.7869,-1.7883,-1.829,-1.9173,-1.8816,-1.8921,-1.9576,-2.1355,-2.2726,-2.3741,-2.4559,-2.5226,-1.5166,-1.3789,-1.2974,-1.4003,-1.2096,-1.0216,-1.0943,-1.0107,-0.9245,-0.9296,-0.9347,-0.9334,-0.9238,-0.9292,-0.9225,-0.8922,-0.8885,-0.8885,-0.8885,-0.8885,-0.8885,-0.8885,-0.8885,-0.8885,-0.8885,-0.8885,-0.8885,-0.8885,-0.8885,0.0,-0.8885,-0.8885,-0.879,-0.8638,-0.8898,-0.8944,-0.868,-1.028,-1.188,-1.3478,-1.4665,-1.6033,-1.7582,-1.7582,-1.7582,-1.7582,-1.7582,-1.7582,-1.7582,-1.7582,-1.7582,-1.7582,-1.7582,-1.7582,-1.7582,-1.7582,-1.7582,-1.7582,-1.7582,-1.7582,-1.7582,-1.7582,-1.7582,-1.7582,-1.7582,-1.7582,-1.7582,-1.7582,-1.7582,-1.7582,-1.7582,-1.7582,-1.7582,-1.7582,-1.7582,-1.7582,-1.7582,-1.7582,-1.7582,-1.7582,-1.7582,-1.7582,-1.7582,-1.7582,-1.7582,-1.7582,-1.7582,-1.7582,-1.7582,-1.7582,-1.7582,-1.7582,-1.7582,-1.7582,-1.7582,-1.7582,-1.7622,-1.7736,-1.7736,-1.7876,-1.8183,-1.8196,-1.8612,-1.9564,-1.9557,-1.9922,-2.063,-2.2232,-2.3484,-2.4402,-2.5477,-2.6035,0.0,0.0,0.0,-1.4753,-1.3193,-1.2025,-1.1267,-1.0002,-0.8964,-0.9166,-0.9316,-0.9317,-0.9231,-0.9204,-0.91,-0.8905,-0.8885,-0.8885,-0.8885,-0.8885,-0.8885,-0.8885,-0.8885,-0.8885,-0.8885,-0.8885,-0.8885,-0.8885,-0.8885,-0.8937,-0.8937,-0.8989,-0.89,-0.8542,-0.965,-1.0179,-1.0055,-1.1681,-1.3256,-1.4811,-1.5142,-1.6091,-1.7582,-1.7582,-1.7582,-1.7582,-1.7582,-1.7582,-1.7582,-1.7582,-1.7582,-1.7582,-1.7582,-1.7582,-1.7582,-1.7582,-1.7582,-1.7582,-1.7582,-1.7582,-1.7582,-1.7582,-1.7582,-1.7582,-1.7582,-1.7582,-1.7582,-1.7582,-1.7582,-1.7582,-1.7582,-1.7582,-1.7582,-1.7582,-1.7582,-1.7582,-1.7582,-1.7582,-1.7582,-1.7582,-1.7582,-1.7582,-1.7582,-1.7582,-1.7582,-1.7582,-1.7582,-1.7582,-1.7582,-1.7582,-1.7582,-1.7582,-1.7582,-1.7582,-1.7582,-1.7589,-1.7722,-1.7975,-1.8002,-1.819,-1.8546,-1.8553,-1.8608,-1.8719,-2.1333,-2.2757,-2.2855,-2.2185,-2.3203,-2.5713,-2.6191,-2.6621,-1.874,0.0,0.0,0.0,0.0,0.0,-1.1563,-1.0712,-0.9758,-0.9019,-0.8866,-0.8916,-0.8984,-0.8998,-0.8984,-0.8892,-0.8885,-0.8885,-0.8885,-0.8885,-0.8885,-0.8885,-0.8885,-0.8885,-0.8885,-0.8885,-0.8885,0.0,-0.8885,-0.9372,-1.0457,-1.1347,-1.1261,-0.9931,-1.1124,-1.1749,-1.1741,-1.3306,-1.4474,-1.5102,-1.6313,-1.718,-1.7582,-1.7582,-1.7582,-1.7582,-1.7582,-1.7582,-1.7582,-1.7582,-1.7582,-1.7582,-1.7582,-1.7582,-1.7582,-1.7582,-1.7582,-1.7582,-1.7582,-1.7582,-1.7582,-1.7582,-1.7582,-1.7582,-1.7582,-1.7582,-1.7582,-1.7582,-1.7582,-1.7582,-1.7582,-1.7582,-1.7582,-1.7582,-1.7582,-1.7582,-1.7582,-1.7582,-1.7582,-1.7582,-1.7582,-1.7582,-1.7582,-1.7582,-1.7582,-1.7582,-1.7582,-1.7582,-1.7582,-1.7582,-1.7582,-1.7582,-1.7582,-1.7582,-1.7582,-1.7789,-1.7902,-1.7989,-1.825,-1.8975,-2.0294,-2.0364,-2.1344,-2.3453,-2.3299,-2.4093,-2.5834,-2.561,-2.5762,-2.6211,-2.6328,-2.6787,-1.9904,-1.8681,-1.7681,-1.7122,0.0,0.0,-1.2759,-1.1427,-1.0095,-0.9617,-0.9083,-0.8916,-0.9669,-0.9263,-0.9027,-0.9688,-0.932,-0.8885,-0.8885,-0.8885,-0.8885,-0.8885,-0.8885,-0.8885,-0.8885,-0.8885,-0.9154,-0.9754,-0.9805,-1.0457,-1.1919,-1.2622,-1.2546,-1.1542,-1.2582,-1.3171,-1.3171,-1.4775,-1.5657,-1.5825,-1.701,-1.7582,-1.7582,-1.7582,-1.7582,-1.7582,-1.7582,-1.7582,-1.7582,-1.7582,-1.7582,-1.7582,-1.7582,-1.7582,-1.7582,-1.7582,-1.7582,-1.7582,-1.7582,-1.7582,-1.7582,-1.7582,-1.7582,-1.7582,-1.7582,-1.7582,-1.7582,-1.7582,-1.7582,-1.7582,-1.7582,-1.7582,-1.7582,-1.7582,-1.7582,-1.7582,-1.7582,-1.7689,-1.7736,-1.7609,-1.7582,-1.7582,-1.7582,-1.7582,-1.7582,-1.7582,-1.7695,-1.7729,-1.7602,-1.7695,-1.7722,-1.7595,-1.7702,-1.7776,-1.7776,-1.8056,-1.8283,-1.8348,-1.9161,-2.0093,-2.1279,-2.1902,-2.3004,-2.4711,-2.4602,-2.5541,-2.7549,-2.6643,-2.6442,-2.6914,-2.6738,-2.7109,-2.0856,-2.0864,-2.0695,-1.8213,-1.6536,0.0,-1.4364,-1.2242,-1.0484,-1.0775,-0.9914,-0.9555,-1.0958,-1.0058,-0.9578,-1.1016,-1.0143,-0.9244,-0.8933,-0.8885,-0.8885,-0.8885,-0.8885,-0.8937,-0.9103,-0.9154,-0.9754,-1.1214,-1.1483,-1.2077,-1.3264,-1.3444,-1.342,-1.3241,-1.4123,-1.4646,-1.4646,-1.6058,-1.6774,-1.6807,-1.7335,-1.7582,-1.7582,-1.7582,-1.7582,-1.7582,-1.7582,-1.7582,-1.7582,-1.7582,-1.7582,-1.7582,-1.7582,-1.7582,-1.7582,-1.7582,-1.7582,-1.7582,-1.7582,-1.7582,-1.7582,-1.7582,-1.7582,-1.7582,-1.7582,-1.7582,-1.7582,-1.7582,-1.7582,-1.7582,-1.7582,-1.7582,-1.7582,-1.7582,-1.7609,-1.7629,-1.7629,-1.7876,-1.8016,-1.7736,-1.7682,-1.7682,-1.7682,-1.7682,-1.7682,-1.7682,-1.7923,-1.7996,-1.7722,-1.7923,-1.7935,-1.7716,-1.7929,-1.8042,-1.8042,-1.8529,-1.8861,-1.9124,-2.0587,-2.1607,-2.2073,-2.3375,-2.4156,-2.4322,-2.5654,-2.6997,-2.8291,-2.6274,-2.6167,-2.7777,-2.7295,-2.7519,-2.2544,-2.1764,-2.0849,-2.0333,-1.8483,0.0,-1.5001,-1.3861,-1.2856,-1.1717,-1.1523,-1.1652,-1.2072,-1.1869,-1.1756,-1.2106,-1.2097,-1.1308,-0.9192,-0.8885,-0.8885,-0.8885,-0.8885,-0.9372,-1.0566,-1.0676,-1.1269,-1.2783,-1.3911,-1.418,-1.3372,-1.5476,-1.6048,-1.4671,-1.5933,-1.6611,-1.6611,-1.6925,-1.7233,-1.7415,-1.7528,-1.7582,-1.7582,-1.7582,-1.7582,-1.7582,-1.7582,-1.7582,-1.7582,-1.7582,-1.7582,-1.7582,-1.7582,-1.7582,-1.7582,-1.7582,-1.7582,-1.7582,-1.7582,-1.7582,-1.7582,-1.7582,-1.7582,-1.7582,-1.7582,-1.7582,-1.7582,-1.7582,-1.7582,-1.7582,-1.7582,-1.7582,-1.7582,-1.7582,-1.7776,-1.7902,-1.7902,-1.819,-1.839,-1.8323,-1.831,-1.831,-1.831,-1.831,-1.831,-1.831,-1.8364,-1.8384,-1.8317,-1.8364,-1.8384,-1.8317,-1.8364,-1.8404,-1.8404,-1.9743,-2.0644,-2.0647,-2.2339,-2.3859,-2.5151,-2.548,-2.6218,-2.7394,-2.7726,-2.8014,-2.8291,-2.7563,-2.7534,-2.8164,-2.7734,-2.7812,-2.3042,-2.2567,-2.1817,-2.1074,0.0,0.0,0.0,-1.5113,-1.4163,-1.2973,-1.2183,-1.2121,-1.3234,-1.2673,-1.2344,-1.3282,-1.3096,-1.2336,-1.1007,-1.0346,-0.9699,-0.8992,-0.9533,-1.0296,-1.1055,-1.1755,-1.2778,-1.4234,-1.5689,-1.6174,-1.5476,-1.6823,-1.7193,-1.6298,-1.6905,-1.7199,-1.7199,-1.7199,-1.7273,-1.742,-1.7515,-1.7582,-1.7582,-1.7582,-1.7582,-1.7582,-1.7582,-1.7582,-1.7582,-1.7582,-1.7582,-1.7582,-1.7582,-1.7582,-1.7582,-1.7582,-1.7582,-1.7582,-1.7582,-1.7582,-1.7582,-1.7582,-1.7582,-1.7582,-1.7582,-1.7582,-1.7582,-1.7582,-1.7582,-1.7582,-1.7582,-1.7582,-1.7622,-1.7776,-1.7876,-1.8035,-1.8237,-1.8497,-1.8704,-1.8704,-1.8824,-1.8831,-1.8544,-1.849,-1.849,-1.849,-1.8611,-1.8651,-1.851,-1.8617,-1.8651,-1.8504,-1.8617,-1.8704,-1.8704,-1.9631,-2.0246,-2.0246,-2.2503,-2.4156,-2.4931,-2.6381,-2.7555,-2.8291,-2.8291,-2.8291,-2.8291,-2.8086,-2.8086,-2.8291,-2.8076,-2.8096,-2.3091,-2.3091,-2.2809,-2.1528,0.0,-2.0234,0.0,0.0,0.0,0.0,-1.3255,-1.2872,-1.4477,-1.3516,-1.2981,-1.4486,0.0,0.0,0.0,-1.2307,0.0,-0.9908,-1.0781,-1.1647,-1.1919,-1.3224,-1.4559,-1.5737,-1.6884,-1.7522,-1.7582,-1.7582,-1.7582,-1.7582,-1.7407,-1.7286,-1.7286,-1.7286,-1.7286,-1.7286,-1.7521,-1.7582,-1.7582,-1.7582,-1.7582,-1.7582,-1.7582,-1.7582,-1.7582,-1.7582,-1.7582,-1.7582,-1.7582,-1.7582,-1.7582,-1.7582,-1.7582,-1.7582,-1.7582,-1.7582,-1.7582,-1.7582,-1.7582,-1.7582,-1.7582,-1.7582,-1.7582,-1.7582,-1.7582,-1.7595,-1.7655,-1.7669,-1.7749,-1.8009,-1.8122,-1.8229,-1.8524,-1.8804,-1.9011,-1.9011,-1.9205,-1.9276,-1.8744,-1.8657,-1.8657,-1.8657,-1.8858,-1.8925,-1.8691,-1.8865,-1.9031,-1.9111,-1.9302,-1.9559,-1.9836,-2.0338,-2.0709,-2.0709,-2.3215,-2.4663,-2.4663,-2.7006,-2.8291,-2.8291,-2.8291,-2.8291,-2.8291,-2.8291,-2.8291,-2.8291,-2.8291,-2.8291,0.0,0.0,0.0,0.0,-2.1521,0.0,0.0,0.0,-1.7561,-1.6507,0.0,0.0,0.0,0.0,0.0,0.0,0.0,0.0,-1.4155,-1.4066,-1.3814,-1.2896,-1.2945,-1.3534,-1.477,-1.6011,-1.6931,-1.7345,-1.7289,-1.7367,-1.7569,-1.7582,-1.7582,-1.7582,-1.7549,-1.7528,-1.7528,-1.7528,-1.7528,-1.7528,-1.7569,-1.7582,-1.7582,-1.7582,-1.7582,-1.7582,-1.7582,-1.7582,-1.7582,-1.7582,-1.7582,-1.7582,-1.7582,-1.7582,-1.7582,-1.7582,-1.7582,-1.7582,-1.7582,-1.7582,-1.7582,-1.7582,-1.7582,-1.7582,-1.7582,-1.7582,-1.7582,-1.7582,-1.7582,-1.7649,-1.7869,-1.7935,-1.8015,-1.837,-1.8637,-1.8831,-1.8865,-1.9112,-1.9319,-1.9319,-1.9345,-1.9403,-1.9336,-1.933,-1.933,-1.933,-1.9299,-1.9305,-1.9272,-1.9299,-1.9805,-2.1092,-2.1284,-2.1809,-2.3151,-2.4518,-2.5316,-2.5316,-2.6888,-2.7789,-2.7789,-2.8121,-2.8291,-2.8291,-2.8291,-2.8291,-2.8291,-2.8291,-2.8291,-2.8291,-2.8291,-2.8291,0.0,0.0,0.0,0.0,0.0,0.0,-1.993,0.0,-1.905,0.0,0.0,0.0,0.0,0.0,0.0,0.0,-1.6079,0.0,0.0,0.0,-1.5041,0.0,0.0,0.0,-1.6022,-1.68,-1.7253,-1.7373,-1.7266,-1.7326,-1.7569,-1.7582,-1.7582,-1.7582,-1.7582,-1.7582,-1.7582,-1.7582,-1.7582,-1.7582,-1.7582,-1.7582,-1.7582,-1.7582,-1.7582,-1.7582,-1.7582,-1.7582,-1.7582,-1.7582,-1.7582,-1.7582,-1.7582,-1.7582,-1.7582,-1.7582,-1.7582,-1.7582,-1.7582,-1.7582,-1.7582,-1.7582,-1.7582,-1.7582,-1.7582,-1.7582,-1.7582,-1.7582,-1.7709,-1.7883,-1.7962,-1.8122,-1.8377,-1.8671,-1.8831,-1.8971,-1.9145,-1.9279,-1.9424,-1.9424,-1.9424,-1.9424,-1.9424,-1.9424,-1.9424,-1.9424,-1.9424,-1.9424,-1.9424,-1.9424,-1.9649,-2.0256,-2.1088,-2.1862,-2.2476,-2.3877,-2.4765,-2.4765,-2.6218,-2.7394,-2.8237,-2.8291,-2.8291,-2.8291,-2.8291,-2.8291,-2.8291,-2.8291,-2.8291,-2.8291,-2.8291,-2.8291,-2.3305,0.0,0.0,0.0,0.0,0.0,0.0,0.0,0.0,0.0,0.0,0.0,0.0,0.0,0.0,0.0,0.0,-1.667,0.0,-1.657,0.0,0.0,0.0,0.0,0.0,-1.6827,-1.7032,-1.7192,-1.7125,-1.7239,-1.7562,-1.7582,-1.7582,-1.7582,-1.7582,-1.7582,-1.7582,-1.7582,-1.7582,-1.7582,-1.7582,-1.7582,-1.7582,-1.7582,-1.7582,-1.7582,-1.7582,-1.7582,-1.7582,-1.7582,-1.7582,-1.7582,-1.7582,-1.7582,-1.7582,-1.7582,-1.7582,-1.7582,-1.7582,-1.7582,-1.7582,-1.7582,-1.7582,-1.7582,-1.7582,-1.7582,-1.7602,-1.7689,-1.7869,-1.8029,-1.8189,-1.845,-1.8684,-1.8978,-1.9045,-1.9105,-1.9377,-1.9424,-1.9424,-1.9424,-1.9424,-1.9424,-1.9424,-1.9424,-1.9424,-1.9424,-1.9424,-1.9424,-1.9424,-1.9758,-2.0148,-2.0537,-2.1926,-2.2975,-2.3431,-2.4433,-2.5049,-2.5049,-2.61,-2.7168,-2.8237,-2.8291,-2.8291,-2.8291,-2.8291,-2.8291,-2.8291,-2.8291,-2.8291,-2.8291,-2.8291,-2.8291,0.0,0.0,0.0,-2.2725,0.0,0.0,0.0,0.0,-2.1058,0.0,0.0,0.0,0.0,0.0,0.0,0.0,0.0,0.0,0.0,0.0,0.0,0.0,0.0,0.0,0.0,-1.646,-1.6583,0.0,-1.6881,-1.6974,-1.7555,-1.7582,-1.7582,-1.7582,-1.7582,-1.7582,-1.7582,-1.7582,-1.7582,-1.7582,-1.7582,-1.7582,-1.7582,-1.7582,-1.7582,-1.7582,-1.7582,-1.7582,-1.7582,-1.7582,-1.7582,-1.7582,-1.7582,-1.7582,-1.7582,-1.7582,-1.7582,-1.7582,-1.7582,-1.7582,-1.7582,-1.7582,-1.7582,-1.7582,-1.7582,-1.7582,-1.7649,-1.7896,-1.7982,-1.8122,-1.8751,-1.8905,-1.8985,-1.9279,-1.9352,-1.9417,-1.9424,-1.9424,-1.9424,-1.9424,-1.9424,-1.9424,-1.9424,-1.9424,-1.9424,-1.9424,-1.9424,-1.9424,-1.9424,-2.0644,-2.2089,-2.3487,-2.5041,-2.6545,-2.795,-2.8121,-2.8184,-2.8184,-2.8184,-2.8237,-2.8291,-2.8291,-2.8291,-2.8291,-2.8291,-2.8291,-2.8291,-2.8291,-2.8291,-2.8291,-2.8291,-2.8291,0.0,0.0,-2.3652,-2.3066,0.0,0.0,0.0,0.0,0.0,0.0,0.0,0.0,0.0,0.0,0.0,0.0,0.0,0.0,0.0,0.0,0.0,0.0,0.0,0.0,0.0,0.0,0.0,-1.6603,-1.648,0.0,-1.7313,-1.7347,-1.7434,-1.7575,-1.7582,-1.7582,-1.7582,-1.7582,-1.7582,-1.7582,-1.7582,-1.7582,-1.7582,-1.7582,-1.7582,-1.7582,-1.7582,-1.7582,-1.7582,-1.7582,-1.7582,-1.7582,-1.7582,-1.7582,-1.7582,-1.7582,-1.7582,-1.7582,-1.7582,-1.7582,-1.7582,-1.7582,-1.7582,-1.7582,-1.7582,-1.7722,-1.7856,-1.7962,-1.8275,-1.8615,-1.8871,-1.9072,-1.9239,-1.9345,-1.9424,-1.9424,-1.9424,-1.9424,-1.9424,-1.9424,-1.9424,-1.9424,-1.9424,-1.9424,-1.9424,-1.9424,-2.0256,-2.0866,-2.0866,-2.2153,-2.3263,-2.3766,-2.5151,-2.6318,-2.6825,-2.7736,-2.8291,-2.8291,-2.8291,-2.8291,-2.8291,-2.8291,-2.8291,-2.8291,-2.8291,-2.8291,-2.8291,-2.8291,-2.8291,-2.8291,-2.8291,-2.8291,-2.3815,-2.3728,0.0,-2.3567,-2.3281,0.0,-2.2627,0.0,0.0,0.0,0.0,0.0,0.0,0.0,0.0,0.0,0.0,0.0,0.0,-1.8818,0.0,0.0,0.0,0.0,0.0,0.0,-1.6159,-1.6315,-1.6321,-1.6536,0.0,0.0,-1.7286,-1.7474,-1.7528,-1.7582,-1.7582,-1.7582,-1.7582,-1.7582,-1.7582,-1.7582,-1.7582,-1.7582,-1.7582,-1.7582,-1.7582,-1.7582,-1.7582,-1.7582,-1.7582,-1.7582,-1.7582,-1.7582,-1.7582,-1.7582,-1.7582,-1.7582,-1.7582,-1.7582,-1.7582,-1.7582,-1.7582,-1.7602,-1.7716,-1.7883,-1.8035,-1.8242,-1.8575,-1.8951,-1.9052,-1.9225,-1.9424,-1.9424,-1.9424,-1.9424,-1.9424,-1.9424,-1.9424,-1.9424,-1.9424,-1.9424,-1.9424,-1.9424,-1.9424,-1.9424,-2.0644,-2.1586,-2.1586,-2.3375,-2.4599,-2.4599,-2.5991,-2.6879,-2.6879,-2.7726,-2.8291,-2.8291,-2.8291,-2.8291,-2.8291,-2.8291,-2.8291,-2.8291,-2.8291,-2.8291,-2.8291,-2.8291,-2.8291,-2.8291,-2.8291,-2.8291]},{"header":{"parameterUnit":"m.s-1","parameterCategory":1,"la1":30.6,"la2":29.2853,"lo1":-89.7004,"lo2":-87.6739,"dy":0.0162,"dx":0.0183,"nx":112,"ny":82,"refTime":"2026-03-04T12:00:00:Z","depth":0,"parameterNumber":3,"parameterNumberName":"V-component_of_WINDS"},"data":[0.0,0.0,0.0,0.0,0.0,0.0,0.0,0.0,0.0,0.0,0.0,0.0,0.0,0.0,0.0,0.0,0.0,0.0,0.0,0.0,0.0,0.0,0.0,0.0,0.0,0.0,0.0,0.0,0.0,0.0,0.0,0.0,0.0,0.0,0.0,0.0,0.0,0.0,0.0,0.0,0.0,0.0,0.0,0.0,0.0,0.0,0.0,0.0,0.0,0.0,0.0,0.0,0.0,0.0,0.0,0.0,0.0,0.0,0.0,0.0,0.0,0.0,0.0,0.0,0.0,0.0,0.0,0.0,0.0,0.0,0.0,0.0,0.0,0.0,0.0,0.0,0.0,0.0,0.0,0.0,0.0,0.0,0.0,0.0,0.0,0.0,0.0,0.0,0.0,0.0,1.6179,1.3778,1.2726,1.2219,1.2219,1.3607,1.4533,1.4827,0.0,0.0,0.0,0.0,0.0,0.0,0.0,0.0,0.0,0.0,0.0,0.0,0.0,0.0,0.0,0.0,0.0,0.0,0.0,0.0,0.0,0.0,0.0,0.0,0.0,0.0,0.0,0.0,0.0,0.0,0.0,0.0,0.0,0.0,0.0,0.0,0.0,0.0,0.0,0.0,0.0,0.0,0.0,0.0,0.0,0.0,0.0,0.0,0.0,0.0,0.0,0.0,0.0,0.0,0.0,0.0,0.0,0.0,0.0,0.0,0.0,0.0,0.0,0.0,0.0,0.0,0.0,0.0,0.0,0.0,0.0,0.0,0.0,0.0,0.0,0.0,0.0,0.0,0.0,0.0,0.0,0.0,0.0,0.0,0.0,0.0,0.0,0.0,0.0,0.0,0.0,0.0,0.0,0.0,0.0,0.0,0.0,0.0,0.0,0.0,0.0,0.0,0.0,0.0,1.6025,1.4169,1.2924,1.2219,1.2219,1.3397,1.4712,1.5978,0.0,0.0,0.0,0.0,0.0,0.0,0.0,0.0,0.0,0.0,0.0,0.0,0.0,0.0,0.0,0.0,0.0,0.0,0.0,0.0,0.0,0.0,0.0,0.0,0.0,0.0,0.0,0.0,0.0,0.0,0.0,0.0,0.0,0.0,0.0,0.0,0.0,0.0,0.0,0.0,0.0,0.0,0.0,0.0,0.0,0.0,0.0,0.0,0.0,0.0,0.0,0.0,0.0,0.0,0.0,0.0,0.0,0.0,0.0,0.0,0.0,0.0,0.0,0.0,0.0,0.0,0.0,0.0,0.0,0.0,0.0,0.0,0.0,0.0,0.0,0.0,0.0,0.0,0.0,0.0,0.0,0.0,0.0,0.0,0.0,0.0,0.0,0.0,0.0,0.0,0.0,0.0,0.0,0.0,0.0,0.0,0.0,0.0,0.0,0.0,0.0,0.0,0.0,1.8871,1.7349,1.6157,1.5534,1.4908,1.42,1.5313,1.6406,1.7288,1.8626,0.0,0.0,0.0,0.0,0.0,0.0,0.0,0.0,0.0,0.0,0.0,0.0,0.0,0.0,0.0,0.0,0.0,0.0,0.0,0.0,0.0,0.0,0.0,0.0,0.0,0.0,0.0,0.0,0.0,0.0,0.0,0.0,0.0,0.0,0.0,0.0,0.0,0.0,0.0,0.0,0.0,0.0,0.0,0.0,0.0,0.0,0.0,0.0,0.0,0.0,0.0,0.0,0.0,0.0,0.0,0.0,0.0,0.0,0.0,0.0,0.0,0.0,0.0,0.0,0.0,0.0,0.0,0.0,0.0,0.0,0.0,0.0,0.0,0.0,0.0,0.0,0.0,0.0,0.0,0.0,0.0,0.0,0.0,0.0,0.0,0.0,0.0,0.0,0.0,0.0,0.0,0.0,0.0,0.0,0.0,0.0,0.0,0.0,0.0,0.0,0.0,0.0,1.9851,1.9048,1.8203,1.8141,1.7723,1.6749,1.7463,1.8165,1.8586,1.9398,0.0,0.0,0.0,0.0,0.0,0.0,0.0,0.0,0.0,0.0,0.0,0.0,0.0,0.0,0.0,0.0,0.0,0.0,0.0,0.0,0.0,0.0,0.0,0.0,0.0,0.0,0.0,0.0,0.0,0.0,0.0,0.0,0.0,0.0,0.0,0.0,0.0,0.0,0.0,0.0,0.0,0.0,0.0,0.0,0.0,0.0,0.0,0.0,0.0,0.0,0.0,0.0,0.0,0.0,0.0,0.0,0.0,0.0,0.0,0.0,0.0,0.0,0.0,0.0,0.0,0.0,0.0,0.0,0.0,0.0,0.0,0.0,0.0,0.0,0.0,0.0,0.0,0.0,0.0,0.0,0.0,0.0,0.0,0.0,0.0,0.0,0.0,0.0,0.0,0.0,0.0,0.0,0.0,0.0,0.0,0.0,0.0,0.0,0.0,0.0,0.0,0.0,2.0666,2.0675,1.9488,1.936,1.936,1.9268,1.8913,1.904,1.98,1.9612,0.0,0.0,0.0,0.0,0.0,0.0,0.0,0.0,0.0,0.0,0.0,0.0,0.0,0.0,0.0,0.0,0.0,0.0,0.0,0.0,0.0,0.0,0.0,0.0,0.0,0.0,0.0,0.0,0.0,0.0,0.0,0.0,0.0,0.0,0.0,0.0,0.0,0.0,0.0,0.0,0.0,0.0,0.0,0.0,0.0,0.0,0.0,0.0,0.0,0.0,0.0,0.0,0.0,0.0,0.0,0.0,0.0,0.0,0.0,0.0,0.0,0.0,0.0,0.0,0.0,0.0,0.0,0.0,0.0,0.0,0.0,0.0,0.0,0.0,0.0,0.0,0.0,0.0,0.0,0.0,0.0,0.0,0.0,0.0,0.0,0.0,0.0,0.0,0.0,0.0,0.0,0.0,0.0,0.0,0.0,0.0,0.0,0.0,0.0,0.0,0.0,0.0,2.1874,2.1664,2.0729,2.0621,2.0305,1.9534,2.0041,2.0272,2.003,0.0,0.0,0.0,0.0,0.0,0.0,0.0,0.0,0.0,0.0,0.0,0.0,0.0,0.0,0.0,0.0,0.0,0.0,0.0,0.0,0.0,0.0,0.0,0.0,0.0,0.0,0.0,0.0,0.0,0.0,0.0,0.0,0.0,0.0,0.0,0.0,0.0,0.0,0.0,0.0,0.0,0.0,0.0,0.0,0.0,0.0,0.0,0.0,0.0,0.0,0.0,0.0,0.0,0.0,0.0,0.0,0.0,0.0,0.0,0.0,0.0,0.0,0.0,0.0,0.0,0.0,0.0,0.0,0.0,0.0,0.0,0.0,0.0,0.0,0.0,0.0,0.0,0.0,0.0,0.0,0.0,0.0,0.0,0.0,0.0,0.0,0.0,0.0,0.0,0.0,0.0,0.0,0.0,0.0,0.0,0.0,0.0,0.0,0.0,0.0,0.0,0.0,2.3019,2.3492,2.3576,2.2998,2.294,2.2615,2.1815,2.236,2.2324,2.1387,0.0,0.0,0.0,0.0,0.0,0.0,0.0,0.0,0.0,0.0,0.0,0.0,0.0,0.0,0.0,0.0,0.0,0.0,0.0,0.0,0.0,0.0,0.0,0.0,0.0,0.0,0.0,0.0,0.0,0.0,0.0,0.0,0.0,0.0,0.0,0.0,0.0,0.0,0.0,0.0,0.0,0.0,0.0,0.0,0.0,0.0,0.0,0.0,0.0,0.0,0.0,0.0,0.0,0.0,0.0,0.0,0.0,0.0,0.0,0.0,0.0,0.0,0.0,0.0,0.0,0.0,0.0,0.0,0.0,0.0,0.0,0.0,0.0,0.0,0.0,0.0,0.0,0.0,0.0,0.0,0.0,0.0,0.0,0.0,0.0,0.0,0.0,0.0,0.0,0.0,0.0,0.0,0.0,0.0,0.0,0.0,0.0,0.0,0.0,0.0,0.0,0.0,2.4216,2.5564,2.6524,2.6524,2.6524,2.6524,2.6524,2.6053,2.5346,0.0,0.0,0.0,0.0,0.0,0.0,0.0,0.0,0.0,0.0,0.0,0.0,0.0,0.0,0.0,0.0,0.0,0.0,0.0,0.0,0.0,0.0,0.0,0.0,0.0,0.0,0.0,0.0,0.0,0.0,0.0,0.0,0.0,0.0,0.0,0.0,0.0,0.0,0.0,0.0,0.0,0.0,0.0,0.0,0.0,0.0,0.0,0.0,0.0,0.0,0.0,0.0,0.0,0.0,0.0,0.0,0.0,0.0,0.0,0.0,0.0,0.0,0.0,0.0,0.0,0.0,0.0,0.0,0.0,0.0,0.0,0.0,0.0,0.0,0.0,0.0,0.0,0.0,0.0,0.0,0.0,0.0,0.0,0.0,0.0,0.0,0.0,0.0,0.0,0.0,0.0,0.0,0.0,0.0,0.0,0.0,0.0,0.0,0.0,0.0,0.0,0.0,0.0,2.4629,2.5734,2.6524,2.6524,2.6524,2.6524,2.6524,2.5972,2.5228,2.4256,0.0,0.0,0.0,0.0,0.0,0.0,0.0,0.0,0.0,0.0,0.0,0.0,0.0,0.0,0.0,0.0,0.0,0.0,0.0,0.0,0.0,0.0,0.0,0.0,0.0,0.0,0.0,0.0,0.0,0.0,0.0,0.0,0.0,0.0,0.0,0.0,0.0,0.0,0.0,0.0,0.0,0.0,0.0,0.0,0.0,0.0,0.0,0.0,0.0,0.0,0.0,0.0,0.0,0.0,0.0,0.0,0.0,0.0,0.0,0.0,0.0,0.0,0.0,0.0,0.0,0.0,0.0,0.0,0.0,0.0,0.0,0.0,0.0,0.0,0.0,0.0,0.0,0.0,0.0,0.0,0.0,0.0,0.0,0.0,0.0,0.0,0.0,0.0,0.0,0.0,0.0,0.0,0.0,0.0,0.0,0.0,0.0,0.0,0.0,0.0,0.0,0.0,2.544,2.6645,2.7564,2.7775,2.7799,2.7799,2.7799,2.7465,2.6655,2.5211,0.0,0.0,0.0,0.0,0.0,0.0,0.0,0.0,0.0,0.0,0.0,0.0,0.0,0.0,0.0,0.0,0.0,0.0,0.0,0.0,0.0,0.0,0.0,0.0,0.0,0.0,0.0,0.0,0.0,0.0,0.0,0.0,0.0,0.0,0.0,0.0,0.0,0.0,0.0,0.0,0.0,0.0,0.0,0.0,0.0,0.0,0.0,0.0,0.0,0.0,0.0,0.0,0.0,0.0,0.0,0.0,0.0,0.0,0.0,0.0,0.0,0.0,0.0,0.0,0.0,0.0,0.0,0.0,0.0,0.0,0.0,0.0,0.0,0.0,0.0,0.0,0.0,0.0,0.0,0.0,0.0,0.0,0.0,0.0,0.0,0.0,0.0,0.0,0.0,0.0,0.0,0.0,0.0,0.0,0.0,0.0,0.0,0.0,0.0,0.0,0.0,0.0,2.6637,2.8136,2.939,2.9973,3.0075,3.0075,3.0075,2.9922,2.8949,2.6839,0.0,0.0,0.0,0.0,0.0,0.0,0.0,0.0,0.0,0.0,0.0,0.0,0.0,0.0,0.0,0.0,0.0,0.0,0.0,0.0,0.0,0.0,0.0,0.0,0.0,0.0,0.0,0.0,0.0,0.0,0.0,0.0,0.0,0.0,0.0,0.0,0.0,0.0,0.0,0.0,0.0,0.0,0.0,0.0,0.0,0.0,0.0,0.0,0.0,0.0,0.0,0.0,0.0,0.0,0.0,0.0,0.0,0.0,0.0,0.0,3.3716,0.0,0.0,0.0,0.0,0.0,0.0,0.0,0.0,0.0,0.0,0.0,0.0,0.0,0.0,0.0,0.0,0.0,0.0,0.0,0.0,0.0,0.0,0.0,0.0,0.0,0.0,0.0,0.0,0.0,0.0,0.0,0.0,0.0,0.0,0.0,0.0,0.0,0.0,0.0,0.0,0.0,2.8378,2.995,3.1275,3.1942,3.201,3.201,3.201,3.093,2.9702,2.831,2.7137,0.0,0.0,0.0,0.0,0.0,0.0,0.0,0.0,0.0,0.0,0.0,0.0,0.0,0.0,0.0,0.0,0.0,0.0,0.0,0.0,0.0,0.0,0.0,0.0,0.0,0.0,0.0,0.0,0.0,0.0,0.0,0.0,0.0,0.0,0.0,0.0,0.0,0.0,0.0,0.0,0.0,0.0,0.0,0.0,0.0,0.0,0.0,0.0,0.0,0.0,0.0,0.0,0.0,0.0,0.0,0.0,0.0,0.0,0.0,0.0,3.4967,0.0,0.0,0.0,0.0,0.0,0.0,0.0,0.0,0.0,0.0,0.0,0.0,0.0,0.0,0.0,0.0,0.0,0.0,0.0,0.0,0.0,0.0,0.0,0.0,0.0,0.0,0.0,0.0,0.0,0.0,0.0,0.0,0.0,0.0,0.0,0.0,0.0,0.0,0.0,0.0,2.8429,3.0083,3.1468,3.2061,3.2392,3.2593,3.2593,3.1905,3.0978,2.9876,2.8571,0.0,0.0,0.0,0.0,0.0,0.0,0.0,0.0,0.0,0.0,0.0,0.0,0.0,0.0,0.0,0.0,0.0,0.0,0.0,0.0,0.0,0.0,0.0,0.0,0.0,0.0,0.0,0.0,0.0,0.0,0.0,0.0,0.0,0.0,0.0,0.0,0.0,0.0,0.0,0.0,0.0,0.0,0.0,0.0,0.0,0.0,0.0,0.0,0.0,0.0,0.0,0.0,0.0,4.1062,4.1127,4.1127,4.1127,4.1127,4.1036,3.9484,3.8102,3.6901,3.622,0.0,0.0,0.0,0.0,0.0,0.0,0.0,0.0,0.0,0.0,0.0,0.0,0.0,0.0,0.0,0.0,0.0,0.0,0.0,0.0,0.0,0.0,0.0,0.0,3.5856,3.5027,3.072,0.0,0.0,0.0,0.0,0.0,0.0,0.0,0.0,0.0,0.0,0.0,2.8554,3.0161,3.1495,3.2038,3.2604,3.2989,3.3101,3.2961,3.2451,3.1436,3.0289,2.9139,0.0,0.0,0.0,0.0,0.0,0.0,0.0,0.0,0.0,0.0,0.0,0.0,0.0,0.0,0.0,0.0,0.0,0.0,0.0,0.0,0.0,0.0,0.0,0.0,0.0,0.0,0.0,0.0,0.0,0.0,0.0,0.0,3.8642,3.8731,0.0,0.0,0.0,0.0,0.0,0.0,0.0,0.0,0.0,0.0,0.0,0.0,0.0,4.2885,4.3652,4.4278,4.4611,4.4611,4.5246,4.5562,4.5562,4.5562,4.5562,4.5537,4.5284,0.0,3.9543,4.0008,0.0,0.0,0.0,0.0,0.0,0.0,0.0,0.0,0.0,0.0,0.0,0.0,0.0,0.0,0.0,0.0,0.0,0.0,0.0,0.0,0.0,0.0,4.023,3.8704,3.8021,3.7349,0.0,3.3805,3.2114,3.2031,3.1471,0.0,0.0,0.0,0.0,0.0,0.0,0.0,3.0953,3.2242,3.3394,3.4055,3.4199,3.4495,3.5055,3.4327,3.3541,3.2939,3.2155,3.1105,2.9794,2.8766,0.0,0.0,0.0,0.0,0.0,0.0,0.0,0.0,0.0,0.0,0.0,0.0,0.0,0.0,0.0,0.0,0.0,0.0,0.0,0.0,0.0,0.0,0.0,0.0,0.0,0.0,0.0,0.0,0.0,3.9736,4.0189,4.0188,4.0541,4.0591,0.0,0.0,0.0,0.0,0.0,0.0,0.0,0.0,0.0,4.4308,4.4343,4.4706,4.5427,4.5758,4.5917,4.5917,4.6248,4.6407,4.6407,4.6407,4.6407,4.6407,4.6407,4.5326,4.353,4.2595,4.1167,3.9526,0.0,0.0,0.0,0.0,3.9829,4.0067,3.9771,3.9667,3.9479,3.837,0.0,0.0,0.0,0.0,0.0,0.0,0.0,0.0,0.0,0.0,4.2055,4.1354,4.0397,3.9544,3.9177,3.7603,3.5646,0.0,3.3324,3.2745,3.082,0.0,0.0,0.0,0.0,3.2116,3.2076,3.3287,3.4227,3.4499,3.4905,3.5388,3.6101,3.5768,3.56,3.5769,3.5124,3.4273,3.3224,3.2089,3.1041,0.0,0.0,0.0,0.0,0.0,0.0,0.0,0.0,0.0,0.0,0.0,0.0,0.0,0.0,0.0,0.0,0.0,0.0,0.0,0.0,0.0,0.0,0.0,0.0,0.0,0.0,0.0,0.0,4.157,4.2236,4.2236,4.2911,4.3028,0.0,0.0,0.0,0.0,0.0,0.0,4.4741,4.4872,4.5294,4.6042,4.606,4.6324,4.6892,4.6892,4.6892,4.6892,4.6892,4.6892,4.6892,4.6892,4.6892,4.6892,4.6892,4.6801,4.6518,4.4748,4.2973,4.1368,4.1368,4.1538,4.1818,4.1818,4.2108,4.2482,4.2482,4.2486,4.227,4.0962,4.0403,4.0066,3.9082,0.0,0.0,0.0,0.0,4.2711,4.3669,4.3452,4.2955,4.2739,4.1894,4.1133,4.1133,4.0389,3.8785,0.0,3.5163,3.4519,3.2199,0.0,0.0,0.0,0.0,3.3031,3.2862,3.3869,3.4613,3.4595,3.5037,3.5724,3.6614,3.6694,3.7025,3.7745,3.7338,3.6807,3.6183,3.5083,3.3892,3.2623,0.0,0.0,0.0,0.0,0.0,0.0,0.0,0.0,0.0,0.0,0.0,0.0,0.0,0.0,0.0,0.0,0.0,0.0,0.0,0.0,0.0,0.0,0.0,0.0,0.0,0.0,0.0,0.0,0.0,4.5092,4.5805,0.0,0.0,0.0,0.0,4.4125,4.4716,4.5384,4.6143,4.6678,4.7312,4.8119,4.8155,4.8174,4.821,4.821,4.821,4.821,4.821,4.821,4.821,4.821,4.821,4.821,4.821,4.7877,4.7281,4.6541,4.5764,4.5017,4.5017,4.464,4.4049,4.4049,4.4071,4.4094,4.4084,4.4079,4.4185,4.4776,4.4493,4.365,4.2164,4.2285,0.0,0.0,4.2942,4.3935,4.3239,4.3044,4.281,4.2023,4.1807,4.175,4.175,4.1711,4.1082,0.0,3.7631,3.6415,3.5498,0.0,3.4103,3.3372,3.3895,3.4169,3.3545,3.4133,3.4595,3.4611,3.4643,3.5219,3.6582,3.6694,3.7025,3.7745,3.7774,3.7729,3.77,3.7022,3.6313,3.5609,3.42,0.0,0.0,0.0,0.0,0.0,0.0,0.0,0.0,0.0,0.0,0.0,0.0,0.0,0.0,0.0,0.0,0.0,0.0,0.0,0.0,0.0,0.0,0.0,0.0,0.0,0.0,0.0,0.0,4.6076,4.7228,0.0,4.6079,4.6647,4.7032,4.6839,4.8024,4.8894,4.9165,4.8887,4.8838,4.9133,4.86,4.8306,4.8306,4.8306,4.8306,4.8306,4.8306,4.8306,4.8306,4.8306,4.8306,4.8306,4.8306,4.8172,4.7957,4.7718,4.6974,4.6006,4.6006,4.61,4.6262,4.6262,4.6516,4.6783,4.6392,4.6262,4.6143,4.5516,4.5062,4.4668,4.4132,4.4391,4.4957,4.5173,4.5644,4.6007,4.5716,4.5245,4.4664,4.3864,4.2997,4.2382,4.2382,4.2062,4.1453,4.0263,3.9221,3.8042,3.6456,3.592,3.536,3.4283,3.4742,3.5127,3.4868,3.508,3.5238,3.5236,3.5245,3.5842,3.7335,3.7468,3.7991,3.9212,3.9279,3.9049,3.8525,3.828,3.76,3.6477,3.5514,3.4071,0.0,0.0,0.0,0.0,0.0,0.0,0.0,0.0,0.0,0.0,0.0,0.0,0.0,0.0,0.0,0.0,0.0,0.0,0.0,0.0,0.0,0.0,0.0,0.0,0.0,4.6647,4.7807,4.8121,4.9455,4.9781,4.8364,4.9193,4.9749,4.9562,5.0564,5.1195,5.1195,5.0434,4.9935,4.9806,4.8956,4.8439,4.8306,4.8306,4.8306,4.8306,4.8306,4.8306,4.8306,4.8306,4.8306,4.8306,4.8306,4.8306,4.8306,4.8306,4.78,4.7044,4.7044,4.7302,4.7715,4.7715,4.7957,4.823,4.7838,4.7715,4.7544,4.6608,4.6251,4.6139,4.5867,4.6208,4.6764,4.7021,4.7094,4.7039,4.6764,4.6104,4.5296,4.4488,4.3616,4.2976,4.2976,4.2675,4.2151,4.1323,4.0281,3.9005,3.7379,3.6861,3.6388,3.5539,3.5817,3.6075,3.5898,3.5876,3.5805,3.5622,3.56,3.6107,3.7415,3.767,3.8297,3.9525,3.9767,3.9621,3.9091,3.9066,3.8639,3.7702,3.6762,3.5268,3.3237,0.0,0.0,0.0,0.0,0.0,0.0,0.0,0.0,0.0,0.0,0.0,0.0,0.0,0.0,0.0,0.0,0.0,0.0,0.0,0.0,0.0,0.0,0.0,4.7461,4.9104,5.0532,5.1352,5.2508,5.293,5.213,5.2054,5.2073,5.2035,5.2054,5.2092,5.2092,5.1303,5.0654,5.0269,4.9377,4.8727,4.8326,4.8344,4.8344,4.8344,4.8344,4.8344,4.8344,4.8307,4.8325,4.8344,4.8306,4.8325,4.8344,4.8307,4.8325,4.8325,4.8306,4.8306,4.8306,4.8306,4.8306,4.8306,4.8306,4.8306,4.8306,4.8306,4.8306,4.8159,4.7369,4.7681,4.8141,4.7351,4.7113,4.6911,4.6104,4.5296,4.4507,4.3681,4.3515,4.3515,4.3515,4.3515,4.324,4.2415,4.0798,3.9284,3.8463,3.7704,3.7228,3.7192,3.7209,0.0,3.6498,3.6416,3.6224,3.5694,3.5667,3.5989,3.6808,3.7291,3.7832,3.8611,3.9122,3.9411,3.9411,3.9411,3.9411,3.9411,3.795,3.6448,3.4942,0.0,0.0,0.0,0.0,0.0,0.0,0.0,0.0,0.0,0.0,0.0,0.0,0.0,0.0,0.0,0.0,0.0,0.0,0.0,0.0,0.0,4.786,4.8708,4.8599,4.977,5.1158,5.2535,5.3553,5.3802,5.2946,5.344,5.3538,5.293,5.3462,5.3802,5.3802,5.2443,5.1624,5.15,5.0093,4.928,4.9155,4.9155,4.9155,4.9155,4.9155,4.9155,4.9155,4.8881,4.888,4.9142,4.855,4.864,4.9158,4.8864,4.8745,4.871,4.8402,4.8306,4.8306,4.8306,4.8306,4.8306,4.8306,4.8306,4.8306,4.8306,4.8306,4.8269,4.8049,4.8122,4.8251,4.8031,4.7553,4.6911,4.6104,4.5296,4.4507,4.3681,4.3515,4.3515,4.3515,4.3515,4.3075,4.1699,4.1022,4.0291,3.9085,3.8241,3.7596,3.7248,3.7209,0.0,3.6999,3.698,3.6923,3.6783,3.6746,3.7309,3.8639,3.8357,3.8626,3.9961,3.9629,3.9411,3.9411,3.9411,3.9411,3.9411,3.795,3.6714,0.0,0.0,0.0,0.0,0.0,0.0,0.0,0.0,0.0,0.0,0.0,0.0,0.0,0.0,0.0,0.0,0.0,0.0,0.0,0.0,0.0,0.0,4.9542,5.0491,5.0975,5.1651,5.2575,5.385,5.4586,5.4798,5.4297,5.4716,5.4798,5.4297,5.4721,5.5007,5.5007,5.3408,5.2428,5.2257,5.0632,4.9678,4.9504,4.9489,4.9489,4.9489,4.9489,4.9489,4.9489,4.9265,4.928,4.9475,4.9013,4.9078,4.9475,4.9249,4.9155,0.0,0.0,0.0,0.0,0.0,4.8796,4.8796,4.8796,4.8796,4.8796,4.8796,4.8796,4.8796,4.8796,4.8675,4.855,4.855,4.7611,4.6489,4.6012,4.5057,4.4085,4.3608,4.3515,4.3515,4.3515,4.3239,4.2616,4.1352,4.082,0.0,3.9119,3.8542,3.815,3.7861,3.7826,3.7756,3.7524,3.7488,3.7415,3.721,3.7209,3.7705,3.8927,3.8479,0.0,0.0,0.0,3.9121,3.9121,3.9121,0.0,0.0,0.0,0.0,0.0,0.0,0.0,0.0,3.5935,3.6061,0.0,0.0,0.0,0.0,0.0,0.0,0.0,0.0,0.0,0.0,0.0,0.0,0.0,0.0,0.0,0.0,5.0843,5.2226,5.3881,5.411,5.4365,5.5078,5.5489,5.5703,5.5703,5.5703,5.5703,5.5703,5.5703,5.5665,5.5568,0.0,0.0,0.0,0.0,5.0006,4.965,4.965,4.965,4.965,4.965,4.965,4.9617,4.9594,4.9589,4.9617,4.9532,4.9547,4.9617,4.9594,4.9589,4.9636,4.9551,4.928,4.9011,4.9371,4.9489,4.9489,4.9489,0.0,0.0,4.9489,4.9489,4.9489,4.9489,4.9249,4.898,4.898,4.7525,4.5974,4.5974,4.4743,4.3515,4.3515,4.3515,4.3515,4.3515,4.2873,4.2066,4.126,4.0451,3.9643,3.8836,3.8707,3.8707,3.8707,3.8707,3.853,3.8048,3.798,3.7843,3.7414,0.0,0.0,3.8499,3.8205,3.8322,3.9135,3.896,3.8836,3.8836,3.8927,3.9313,4.001,4.0029,4.0396,4.1095,4.1095,4.115,4.115,3.7457,3.7085,0.0,0.0,0.0,0.0,0.0,0.0,0.0,0.0,0.0,0.0,0.0,0.0,0.0,0.0,0.0,5.0875,5.2637,5.4224,5.5204,5.5358,5.5415,5.5569,5.5651,5.5703,5.5703,5.5703,5.5703,5.5703,5.5703,5.5415,5.4761,5.376,5.2845,5.2062,5.1093,5.0544,5.0472,5.0472,5.0472,5.0472,0.0,0.0,5.0462,5.0135,5.0159,5.0432,4.9773,4.9872,5.0432,5.0123,5.0171,5.041,4.976,4.9445,4.9386,4.9475,4.9489,4.9489,4.9489,4.9489,4.9489,4.9489,4.9489,4.9489,4.9489,4.9445,0.0,4.9386,4.7947,4.638,4.6378,4.4946,4.3515,4.3515,4.3515,4.3515,4.3515,4.2873,4.2066,4.126,4.0451,3.9643,3.8836,3.8707,3.8707,3.8707,3.8707,3.8658,3.8562,3.8546,3.8515,3.8417,3.8417,3.8745,3.9529,3.8956,3.8875,3.9697,3.9703,3.9662,3.9662,4.0304,4.071,4.0857,4.0873,4.093,4.1095,4.1095,4.1425,4.2029,4.0871,4.0615,0.0,0.0,0.0,0.0,0.0,0.0,0.0,0.0,0.0,0.0,0.0,4.8125,4.8523,0.0,5.1437,5.2732,5.3821,5.478,5.5588,5.5703,5.5703,5.5703,5.5703,5.5703,5.5703,5.5703,5.5703,5.5703,5.5703,5.5338,5.453,5.3664,5.2799,5.1923,5.1125,5.0712,5.0712,5.0712,5.0712,5.0712,5.0712,5.0712,5.0683,5.0493,5.0504,5.0673,5.0272,5.0336,5.0683,5.0483,5.0523,5.0663,5.026,5.0092,5.0092,5.0092,5.0092,5.0092,5.0092,5.0092,5.0092,5.0092,5.0092,5.0092,5.0092,4.9962,4.98,4.98,4.8329,4.6761,4.6742,4.5395,4.3989,4.3788,4.3758,4.371,4.3531,4.2873,4.2066,4.126,4.0451,3.9643,3.8836,3.8707,3.8707,3.8707,3.8707,3.8707,3.8707,3.8707,3.8707,3.8707,3.8707,3.9038,3.9827,3.99,4.0068,4.0487,4.0506,4.0506,4.0506,4.0875,4.1279,4.1682,4.1699,4.1901,4.2304,4.2304,4.2506,4.289,4.3036,4.2889,0.0,0.0,0.0,0.0,0.0,0.0,0.0,4.7523,4.778,4.8102,4.8997,4.9924,5.0585,5.1645,5.2856,5.426,5.4626,5.4953,5.5607,5.5703,5.5703,5.5703,5.5703,5.5703,5.5703,5.5703,5.5703,5.5703,5.5549,5.5107,5.428,5.3414,5.2549,5.1692,5.1029,5.0712,5.0712,5.0712,5.0712,5.0712,5.0712,5.0712,5.0712,5.0712,5.0712,5.0712,5.0712,5.0712,5.0712,5.0712,5.0712,5.0712,5.0712,5.0712,5.0712,5.0712,5.0712,5.0712,5.0712,5.0712,5.0712,5.0712,5.0712,5.0712,5.0712,5.0472,5.0187,5.0015,4.8586,4.7084,4.6913,4.5727,4.4514,4.419,4.4061,4.3924,4.3662,4.2904,4.2121,4.1462,4.0561,3.968,3.9038,3.8799,3.8707,3.8707,3.8707,3.8707,3.8707,3.8707,3.8707,3.8707,3.8707,3.9038,3.9827,4.0653,4.1095,4.1095,4.1242,4.1334,4.1334,4.148,4.1882,4.2525,4.2525,4.2887,4.3597,4.3597,4.3647,4.3728,4.4323,4.4237,4.6579,4.6008,4.5961,4.6586,4.6929,4.7677,0.0,5.0033,5.0194,5.1681,5.238,5.2758,5.2834,5.3605,5.426,5.4472,5.5107,5.5588,5.5684,5.5703,5.5703,5.5703,5.5703,5.5703,5.5703,5.5703,5.5703,5.5703,5.503,5.426,5.3395,5.2519,5.1683,5.0856,5.075,5.0712,5.0712,5.0712,5.0712,5.0712,5.0712,5.0712,5.0712,5.0712,5.0712,5.0712,5.0712,5.0712,5.0712,5.0712,5.0712,5.0712,5.0712,5.0712,5.0712,5.0712,5.0712,5.0712,5.0712,5.0712,5.0712,5.0712,5.0712,5.0712,5.0712,5.0673,5.047,4.9702,4.8539,4.7362,4.6588,4.5481,4.458,4.454,4.4261,4.4001,4.3955,4.3081,4.2268,4.2176,4.0928,3.9863,3.9772,3.9166,3.8707,3.8707,3.8707,3.8707,3.8707,3.8707,3.8707,3.8707,3.8707,3.9038,3.9827,4.0653,4.1095,4.1095,4.1772,4.2176,4.2176,4.2837,4.3276,4.3368,4.3369,4.3553,4.394,4.394,4.4136,4.4474,4.4553,4.4359,4.7666,4.7494,4.7694,4.8342,4.9214,5.0248,5.1553,5.1882,5.1968,5.2149,5.2735,5.3203,5.3203,5.3914,5.4645,5.5126,5.5472,5.5703,5.5703,5.5299,5.4991,5.4991,5.4549,5.4626,5.5607,5.5703,5.5511,5.503,5.4684,5.3895,5.2519,5.2096,5.1529,5.0731,5.0712,5.0712,5.0712,5.0712,5.0712,5.0712,5.0712,5.0712,5.0712,5.0712,5.0712,5.0712,5.0712,5.0712,5.0712,5.0712,5.0712,5.0712,5.0712,5.0712,5.0712,5.0712,5.0712,5.0712,5.0712,5.0712,5.0712,5.0712,5.0712,5.0712,5.0712,5.0712,5.0616,5.0269,4.9057,4.7816,4.7432,4.6278,4.5129,4.4931,4.4769,4.4516,4.4087,4.3636,4.3095,4.2428,4.1754,4.1001,4.0047,3.9625,3.9239,3.8781,3.8707,3.8707,3.8707,3.8707,3.8891,3.935,3.9827,4.0432,4.1222,4.1607,4.2011,4.247,4.28,4.3002,4.3002,4.3331,4.3515,4.3515,4.3515,4.3644,4.4001,4.4001,4.4204,4.4612,4.5089,4.5092,4.8522,4.8827,4.9457,5.0082,5.1239,5.2363,5.2682,5.2987,5.3029,5.2385,5.276,5.3203,5.3203,5.3722,5.4414,5.5241,5.5376,5.5453,5.5665,5.5011,5.4491,5.4491,5.3722,5.3683,5.4895,5.5011,5.4761,5.4184,5.3914,5.3241,5.1962,5.1692,5.1298,5.0731,5.0712,5.0712,5.0712,5.0712,5.0712,5.0712,5.0712,5.0712,5.0712,5.0712,5.0712,5.0712,5.0712,5.0712,5.0712,5.0712,5.0712,5.0712,5.0712,5.0712,5.0712,5.0712,5.0712,5.0712,5.0712,5.0712,5.0712,5.0712,5.0712,5.0712,5.0712,5.0539,5.0289,5.0048,4.8913,4.7721,4.7471,4.6509,4.555,4.5302,4.5169,4.4931,4.4304,4.4073,4.3726,4.2811,4.2533,4.203,4.0777,4.0452,4.0133,3.9457,3.9368,3.9203,3.8762,3.8891,3.935,4.0157,4.0946,4.168,4.2249,4.2506,4.2873,4.346,4.3515,4.3515,4.3515,4.3515,4.3515,4.3515,4.3597,4.3804,4.418,4.4261,4.4508,4.4903,4.5513,4.5773,4.9008,4.9688,5.0827,5.1634,5.249,5.3154,5.3173,5.3192,5.3203,5.3164,5.3183,5.3203,5.3203,5.3222,5.353,5.4395,5.453,5.4799,5.5588,5.5011,5.4491,5.4491,5.3722,5.3222,0.0,5.328,5.328,5.3241,5.2462,5.1962,5.1904,5.1164,5.0731,5.0712,5.0712,5.0712,5.0712,5.0712,5.0712,5.0712,5.0712,5.0712,5.0712,5.0712,5.0712,5.0712,5.0712,5.0712,5.0712,5.0712,5.0712,5.0712,5.0712,5.0712,5.0712,5.0712,5.0712,5.0712,5.0712,5.0712,5.0712,5.0712,5.0712,5.0712,5.0712,5.0106,4.926,4.8413,4.7586,4.674,4.5902,4.5633,4.5594,4.5586,4.5332,4.5,4.4644,4.4294,4.3893,4.3526,4.3106,4.2667,4.2296,4.1847,4.1441,4.1068,4.1022,4.0453,3.8909,3.9386,4.0175,4.0967,4.1791,4.2268,4.2304,4.302,4.3478,4.3515,4.3515,4.3515,4.3515,4.3515,4.3515,4.3515,4.382,4.4175,4.458,4.4908,4.5243,4.5578,4.5727,4.6218,4.9904,5.0767,5.1837,5.328,5.3857,5.4203,5.4741,5.4857,5.4549,5.3433,5.2741,5.2327,5.2327,5.1895,5.2183,5.4184,5.4491,5.478,5.5588,5.5011,5.428,5.3703,5.2876,5.2125,0.0,0.0,0.0,5.2385,5.2077,5.1673,5.1125,5.0846,5.0712,5.0712,5.0712,5.0712,5.0712,5.0712,5.0712,5.0712,5.0712,5.0712,5.0712,5.0712,5.0712,5.0712,5.0712,5.0712,5.0712,5.0712,5.0712,5.0712,5.0712,5.0712,5.0712,5.0712,5.0712,5.0712,5.0712,5.0712,5.0712,5.0712,5.0712,5.0712,5.0712,5.0087,4.9336,4.9048,4.7971,4.6827,4.6547,4.6028,4.5594,4.5594,4.5513,4.5342,4.5,4.4657,4.4294,4.3912,4.3518,4.3137,4.2706,4.2316,4.1918,4.1501,4.1233,4.0893,4.0361,4.1001,4.1607,4.1882,4.2616,4.3094,4.3094,4.3332,4.3597,4.382,4.3818,4.3958,4.4227,4.4223,4.4223,4.4223,4.435,4.4561,4.4931,4.5052,4.5426,4.6073,4.6443,4.6905,5.1297,5.2202,5.3164,5.4587,5.4934,5.4991,5.5222,5.5261,5.478,5.3087,5.2068,5.1375,5.1068,5.0337,5.0606,5.3164,5.3568,5.4068,5.5491,5.5011,5.4184,5.3299,5.2423,5.1587,5.0789,5.1664,0.0,5.151,5.1471,5.1241,5.0731,5.0712,5.0712,5.0712,5.0712,5.0712,5.0712,5.0712,5.0712,5.0712,5.0712,5.0712,5.0712,5.0712,5.0712,5.0712,5.0712,5.0712,5.0712,5.0712,5.0712,5.0712,5.0712,5.0712,5.0712,5.0712,5.0712,5.0712,5.0712,5.0712,5.0712,5.0712,5.0712,5.0712,5.0712,4.9875,4.8933,4.8933,4.7721,4.6432,4.6432,4.6009,4.5594,4.5594,4.5594,4.5504,4.518,4.4931,4.4612,4.4102,4.3943,4.3763,4.3308,4.3162,4.301,4.2726,4.2485,4.2232,4.1917,4.2343,4.277,4.3086,4.3568,4.3884,4.3884,4.3884,4.3974,4.419,4.4204,4.4318,4.458,4.4593,4.4593,4.4593,4.4726,4.4884,4.5096,4.5222,4.5632,4.6321,4.6775,4.7245,5.3029,5.3895,5.4741,5.5511,5.5703,5.5491,5.4741,5.453,5.401,5.2308,5.126,5.0385,4.9606,4.8721,4.8952,5.1538,5.1962,5.2827,5.5338,5.503,5.4241,5.3376,5.25,5.1664,5.0846,5.0731,0.0,5.0712,0.0,5.0712,5.0712,5.0712,5.0712,5.0712,5.0712,5.0712,5.0712,5.0712,5.0712,5.0712,5.0712,5.0712,5.0712,5.0712,5.0712,5.0712,5.0712,5.0712,5.0712,5.0712,5.0712,5.0712,5.0712,5.0712,5.0712,5.0712,5.0712,5.0712,5.0712,5.0712,5.0712,5.0712,5.0712,5.0712,5.0712,4.951,4.8163,4.8105,4.6913,4.5671,4.5614,4.5594,4.5594,4.5594,4.5594,4.5513,4.5201,4.5107,4.4889,4.4204,4.4359,4.4501,4.4087,4.4359,4.4637,4.4637,4.4637,4.4316,4.3473,4.3379,4.3681,4.4517,4.4593,4.4593,4.4593,4.4593,4.4624,4.4618,4.4637,4.4631,4.4644,4.4644,4.4644,4.4644,4.4954,4.5137,4.5137,4.5429,4.5841,4.6355,4.6768,4.7234,5.3933,5.4761,5.5434,5.5645,5.5703,5.5645,5.5434,5.4934,5.4184,5.3087,5.1202,4.9856,5.0289,4.9125,4.9144,5.2356,5.2876,5.353,5.5434,5.5511,5.5088,5.426,5.3395,5.2529,5.1683,5.1048,5.0712,0.0,5.0712,5.0712,5.0712,5.0712,5.0712,5.0712,5.0712,5.0712,5.0712,5.0712,5.0712,5.0712,5.0712,5.0712,5.0712,5.0712,5.0712,5.0712,5.0712,5.0712,5.0712,5.0712,5.0712,5.0712,5.0712,5.0712,5.0712,5.0712,5.0712,5.0712,5.0712,5.0712,5.0712,5.0712,5.0712,5.0712,5.0712,4.9933,4.8933,4.8279,4.7355,4.6413,4.5768,4.5594,4.5594,4.5594,4.5594,4.5577,4.5495,4.5282,4.5033,4.4853,4.4889,4.4872,4.4514,4.4732,4.4966,4.4966,4.4966,4.4789,4.4329,4.4272,4.4347,4.4574,4.4593,4.4593,4.4593,4.4593,4.4714,4.4954,4.4966,4.5085,4.5342,4.5352,4.5352,4.5352,4.5429,4.5457,4.5457,4.5312,4.5784,4.6811,4.6637,4.7124,5.4799,5.5357,5.5703,5.5703,5.5703,5.5511,5.4761,5.4241,5.3472,5.1856,5.0087,4.8971,4.9471,4.8471,4.8682,5.2077,5.2635,5.3356,5.5415,5.5703,5.5395,5.4607,5.3722,5.2856,5.1981,5.1164,5.0712,5.0712,5.0712,5.0712,5.0712,5.0712,5.0712,5.0712,5.0712,5.0712,5.0712,5.0712,5.0712,5.0712,5.0712,5.0712,5.0712,5.0712,5.0712,5.0712,0.0,5.0712,5.0712,5.0712,5.0712,5.0712,5.0712,5.0712,5.0712,5.0712,5.0712,5.0712,5.0712,5.0712,5.0712,5.0712,5.0712,5.0712,5.0712,5.0087,4.9221,4.8355,4.7778,4.724,4.6394,4.6163,4.6163,4.6163,4.5883,4.5594,4.5594,4.5448,4.5232,4.4931,4.5007,4.4988,4.4644,4.5,4.5322,4.5322,4.5322,4.5253,4.5055,4.5033,4.5033,4.5033,4.5033,4.5033,4.5033,4.5033,4.5118,4.5312,4.5322,4.541,4.5586,4.5594,4.5594,4.5594,4.5594,4.5705,4.5908,4.5715,4.6209,4.7312,4.7079,4.7454,5.5511,5.5703,5.5703,5.5703,5.5585,5.5053,5.3477,5.2958,5.2132,4.9807,4.8587,4.8009,4.824,4.7605,4.8154,5.1519,5.2077,5.2923,5.5357,5.5703,5.5434,5.4741,5.3895,5.3029,5.2154,5.1433,5.0943,5.0731,5.0808,5.0808,5.0712,5.0712,5.0712,5.0712,5.0712,5.0712,5.0712,5.0712,5.0712,5.0712,5.0712,5.0712,5.0712,5.0712,5.0712,5.0712,5.0712,5.0712,5.0712,5.0712,5.0712,5.0712,5.0712,5.0712,5.0712,5.0712,5.0712,5.0712,5.0712,5.0712,5.0712,5.0712,5.0712,5.0712,5.0712,5.0164,4.9394,4.8529,4.8279,4.8086,4.7278,4.7058,4.7058,4.7058,4.6394,4.5768,4.5768,4.5691,4.5429,4.4861,4.4966,4.5074,4.4781,4.5203,4.5594,4.5594,4.5594,4.5594,4.5594,4.5594,4.5594,4.5594,4.5594,4.5594,4.5594,4.5594,4.5594,4.5594,4.5594,4.5594,4.5594,4.5594,4.5594,4.5594,4.5655,4.5879,4.6302,4.6316,4.6795,4.7692,4.7661,4.7846,5.5665,5.5703,5.5703,5.5703,5.496,5.3957,5.3006,5.1682,5.0321,4.9205,4.7979,4.7528,4.8913,4.8471,4.9009,5.2433,5.2972,5.3606,5.5434,5.5703,5.5645,5.5511,5.4761,5.3933,5.3068,5.2856,5.2183,0.0,5.1318,5.1395,5.075,5.0712,5.0712,5.0712,5.0712,5.0712,5.0712,5.0712,5.0712,5.0712,5.0712,5.0712,5.0712,5.0712,5.0712,5.0712,5.0712,0.0,5.0712,5.0712,5.0712,5.0712,5.0712,5.0712,5.0712,5.0712,5.0712,5.0712,5.0712,5.0712,5.0712,5.0712,5.0712,5.0712,5.0712,5.0596,5.0289,4.9413,4.9163,4.8971,4.8125,4.7894,4.7894,4.7894,4.7278,4.6682,4.6682,4.6105,4.5568,4.5448,4.5466,4.5495,4.5438,4.5522,4.5594,4.5594,4.5594,4.5594,4.5594,4.5594,4.5594,4.5594,4.5594,4.5594,4.5594,4.5594,4.5594,4.5594,4.5594,4.5594,4.5594,4.5594,4.5594,4.5594,4.5982,4.6225,4.6302,4.6356,4.685,4.7692,4.735,4.7591,5.5094,5.5094,5.5094,5.5094,5.4305,5.3096,5.1421,5.019,4.8948,4.7262,4.655,4.6605,4.7875,4.7759,4.8452,5.1414,5.151,5.2125,5.4703,5.4684,5.4568,5.5011,5.4337,5.3491,5.2596,5.2145,5.1568,5.077,5.1048,5.1106,5.0731,5.0712,5.0712,5.0712,5.0712,5.0712,5.0712,5.0712,5.0712,5.0712,5.0712,5.0712,5.0712,5.0712,5.0712,5.0712,5.0712,5.0712,5.0712,5.0712,5.0712,5.0712,5.0712,5.0712,5.0712,5.0712,5.0712,5.0712,5.0712,5.0712,5.0712,5.0712,5.0712,5.0712,5.0712,5.0712,5.0519,4.9644,4.9721,4.9875,4.899,4.8779,4.8779,4.8779,4.7817,4.6904,4.6904,4.6567,4.6204,4.6004,4.6465,4.6857,4.6675,4.6445,4.6278,4.6278,4.5893,4.5594,4.5594,4.5594,4.5594,4.5594,4.5594,4.5594,4.5594,4.5594,4.5594,4.5594,4.6028,4.6278,4.6278,4.6682,4.6791,4.6586,4.68,4.6954,4.7038,4.7065,4.7389,4.8014,4.7813,4.792,5.4446,5.4352,5.4258,5.4446,5.3515,5.1999,4.9875,4.8828,4.7644,4.534,4.5192,4.5744,4.6599,4.6838,4.774,5.0289,5.0125,5.0798,5.4049,5.3914,5.3722,5.4414,5.3895,5.3068,5.2,5.1491,5.1097,5.0731,5.0712,5.0712,5.0712,5.0712,5.0712,5.0712,5.0712,5.0712,5.0712,5.0712,5.0712,5.0712,5.0712,5.0712,5.0712,5.0712,5.0712,5.0712,5.0712,5.0712,0.0,5.0712,5.0712,5.0712,5.0712,5.0712,5.0712,5.0712,5.0712,5.0712,5.0712,5.0712,5.0712,5.0712,5.0712,5.0712,5.0712,5.0712,5.0558,4.9875,5.0164,5.0539,4.9856,4.9683,4.9625,4.9433,4.8394,4.7375,4.7201,4.7154,4.7069,4.6755,4.7452,4.803,4.775,4.7405,4.7154,4.7154,4.6432,4.5883,4.5883,4.5729,4.5594,4.5594,4.5594,4.5594,4.5594,4.5768,4.5883,4.5883,4.6682,4.7154,4.7154,4.7684,4.7813,4.7502,4.7529,4.7603,4.7692,4.7794,4.7994,4.8306,4.8306,4.8306,5.4277,5.3918,5.3519,5.4295,5.2459,5.021,4.9256,4.7783,4.6144,4.4442,4.4663,4.5388,4.6219,4.6646,4.774,5.0289,5.0635,5.1501,5.4126,5.4434,5.4414,5.4491,5.4434,5.3722,5.2058,5.2549,5.2337,5.0808,5.0712,5.0712,5.0712,5.0712,5.0712,5.0712,5.0712,5.0712,5.0712,5.0712,5.0712,5.0712,5.0712,5.0712,5.0712,5.0712,5.0712,5.0712,5.0712,5.0712,0.0,5.0712,5.0712,5.0712,5.0712,5.0712,5.0712,5.0712,5.0712,5.0712,5.0712,5.0712,5.0712,5.0712,5.0712,5.0712,5.0712,5.0712,5.0673,5.0596,5.0635,5.0673,5.0596,5.0577,5.0385,4.9586,4.9279,4.8952,4.8163,4.799,4.7981,4.7943,4.801,4.8096,4.8058,4.801,4.799,4.799,4.7298,4.6778,4.6778,4.6086,4.5594,4.5594,4.5594,4.5594,4.5594,4.6336,4.6778,4.6778,4.7548,4.799,4.799,4.7722,4.7537,4.7502,4.763,4.7681,4.7692,4.8071,4.8271,4.8306,4.8306,4.8306,5.3367,5.3459,5.3274,5.3626,5.2491,5.0822,4.8993,4.7839,4.6592,4.4429,4.4428,4.4955,4.5494,4.5708,4.6387,4.8135,4.7971,4.8711,5.1789,5.176,5.1991,5.3549,5.326,5.2654,5.1962,5.1779,5.1414,5.075,5.0712,5.0712,5.0712,5.0712,5.0712,5.0712,5.0712,5.0712,5.0712,5.0712,5.0712,5.0712,5.0712,5.0712,5.0712,5.0712,5.0712,5.0712,5.0712,5.0712,0.0,5.0712,5.0712,5.0712,5.0712,5.0712,5.0712,5.0712,5.0712,5.0712,5.0712,5.0712,5.0712,5.0712,5.0712,5.0712,5.0712,5.0712,5.0712,5.0712,5.0712,5.0712,5.0712,5.0712,5.0616,5.0269,4.9779,4.9298,4.8952,4.8875,4.8875,4.8875,4.9317,4.9663,4.9663,4.9221,4.8875,4.8875,4.8163,4.7625,4.7625,4.7317,4.7105,4.7105,4.621,4.5806,4.6336,4.6701,4.7096,4.7586,4.8413,4.8875,4.8875,4.9001,4.8953,4.8715,4.8534,4.8297,4.8052,4.8217,4.8306,4.8306,4.8306,4.8306,5.2711,5.3041,5.2858,5.2858,5.205,5.0692,4.8471,4.7536,4.6541,4.4313,4.4165,4.4482,4.4726,4.4954,4.5426,4.6421,4.6436,4.7318,5.0132,5.0105,5.0452,5.2241,5.1914,5.1452,5.1192,5.0875,5.0712,5.0712,5.0712,5.0712,5.0712,5.0712,5.0712,5.0712,5.0712,5.0712,5.0712,5.0712,5.0712,5.0712,5.0712,5.0712,5.0712,5.0712,5.0712,5.0712,5.0712,5.0712,0.0,5.0712,5.0712,5.0712,5.0712,5.0712,5.0712,5.0712,5.0712,5.0712,5.0712,5.0712,5.0712,5.0712,5.0712,5.0712,5.0712,5.0712,5.0712,5.0712,5.0712,5.0712,5.0712,5.0712,5.0712,5.0712,5.0231,4.9779,4.9779,4.9779,4.9779,4.9779,5.0289,5.0712,5.0712,5.0183,4.9779,4.9779,4.9048,4.849,4.849,4.8259,4.8105,4.8105,4.7048,4.6586,4.7201,4.749,4.7875,4.8452,4.9182,4.9602,4.9602,4.9707,4.9603,4.9326,4.893,4.8586,4.8306,4.8306,4.8306,4.8306,4.8306,4.8306,5.2564,5.2619,5.1995,5.1995,5.0822,4.9169,4.7498,4.6489,4.5461,4.3845,4.3772,4.4016,4.3998,4.4612,4.5274,4.5734,4.707,0.0,4.9908,5.0434,5.0712,5.0731,5.0731,5.0366,4.951,5.0212,5.0712,5.0712,5.0712,0.0,5.0712,5.0712,5.0712,5.0712,5.0712,5.0712,5.0712,5.0712,5.0712,5.0712,5.0712,5.0712,5.0712,5.0712,5.0712,5.0712,5.0712,5.0712,0.0,5.0712,5.0712,5.0712,5.0712,5.0712,5.0712,5.0712,5.0712,5.0712,5.0712,5.0712,5.0712,5.0712,5.0712,5.0712,5.0712,5.0712,5.0712,5.0712,5.0712,5.0712,5.0712,5.0712,5.0712,5.0712,5.0693,5.0693,5.0693,5.0693,5.0693,5.0693,5.0693,5.0712,5.0712,5.0693,5.0693,5.0693,4.9933,4.9394,4.9394,4.8625,4.8105,4.8105,4.8086,4.8086,4.8086,4.8875,4.9375,4.9394,4.9827,5.0092,5.0092,4.9322,4.8913,4.8913,4.8513,4.8306,4.8306,4.8306,4.8306,4.8306,4.8306,4.8306,4.9499,5.0508,5.1041,5.051,5.038,4.9848,4.7608,4.6892,4.6122,4.3938,4.358,4.3726,4.3955,4.4204,4.4664,4.5634,4.6411,4.721,4.8185,4.9186,5.0029,5.0635,5.1183,5.1202,5.0356,5.0539,5.0712,5.0712,5.0712,5.0712,5.0712,5.0712,5.0712,5.0712,5.0712,5.0712,5.0712,5.0712,5.0712,5.0712,5.0712,5.0712,5.0712,5.0712,5.0712,5.0712,5.0712,5.0712,0.0,5.0712,5.0712,5.0712,5.0712,5.0712,5.0712,5.0712,5.0712,5.0712,5.0712,5.0712,5.0712,5.0712,5.0712,5.0712,5.0712,5.0712,5.0712,5.0712,5.0712,5.0712,5.0712,5.0712,5.0712,5.0712,5.0712,5.0712,5.0712,5.0712,5.0712,5.0712,5.0712,5.0712,5.0712,5.0712,5.0712,5.0712,5.0481,5.0289,5.0289,5.0048,4.9875,4.9875,4.9875,4.9644,4.9048,4.924,4.9644,5.025,5.0172,5.0092,5.0092,4.9341,4.8897,4.8897,4.8495,4.8306,4.8306,4.8306,4.8306,4.8306,4.8306,4.8306,4.8489,4.9554,5.0215,4.9739,4.9996,4.9701,4.7223,4.6636,4.6049,4.3938,4.3515,4.3546,4.3772,4.3909,4.4214,4.4827,4.5975,4.6923,4.7295,4.8528,4.9606,5.0144,5.0644,5.0894,5.0731,5.0712,5.0712,5.0712,5.0712,5.0712,5.0712,5.0712,5.0712,5.0712,5.0712,5.0712,5.0712,5.0712,5.0539,5.0212,5.0539,5.0539,5.0231,5.0558,5.0712,5.0712,5.0712,0.0,0.0,5.0712,5.0712,5.0712,5.0712,5.0712,5.0712,5.0712,5.0712,5.0712,5.0712,5.0712,5.0712,5.0712,5.0712,5.0712,5.0712,5.0712,5.0712,5.0712,5.0712,5.0712,5.0712,5.0712,5.0712,5.0712,5.0712,5.0712,5.0712,5.0712,5.0712,5.0712,5.0712,5.0712,5.0712,5.0712,5.0712,5.0712,5.0712,5.0712,5.0712,5.0712,5.0712,5.0712,5.0712,5.0481,4.9933,4.9894,5.0067,5.0445,5.0092,4.98,4.9645,4.9011,4.8675,4.8675,4.8421,4.8306,4.8306,4.8306,4.8306,4.8306,4.8306,4.8306,0.0,4.9463,4.95,4.9445,4.9482,4.8876,4.6452,4.5902,0.0,4.3845,4.3515,4.3533,4.357,4.3777,4.3902,4.3712,4.5862,4.7462,4.7146,4.8411,4.9413,4.949,4.949,4.9798,5.0616,5.0712,5.0712,5.0712,5.0712,5.0712,5.0712,5.0712,5.0712,5.0712,5.0635,5.0616,5.0616,5.0558,5.0106,4.9317,5.0125,5.0106,4.9433,5.025,5.0635,0.0,5.0712,0.0,0.0,5.0712,5.0712,5.0712,5.0712,5.0712,5.0712,5.0712,5.0712,5.0712,5.0712,5.0712,5.0712,5.0712,5.0712,5.0712,5.0712,5.0712,5.0712,5.0712,5.0712,5.0712,5.0712,5.0712,5.0712,5.0712,5.0712,5.0712,5.0712,5.0712,5.0712,5.0712,5.0712,5.0712,5.0712,5.0712,5.0712,5.0712,5.0712,5.0712,5.0712,5.0712,5.0712,5.0712,5.0712,5.0683,5.0663,5.0663,5.0493,5.0116,4.9706,4.9295,4.8913,4.8513,4.8306,4.8306,4.8306,4.8306,4.8306,4.8306,4.8306,4.8306,4.8306,4.8306,4.7425,0.0,4.8453,4.7847,4.8159,4.8122,0.0,4.5902,4.5443,4.3845,4.3515,4.3681,4.4305,4.3969,4.4002,4.5149,4.6397,4.7167,4.7041,4.8399,4.9644,5.0327,5.0385,5.0481,5.0673,5.0712,5.0712,5.0712,5.0712,5.0712,5.0712,5.0712,5.0712,5.0712,5.0048,4.9702,4.9702,4.9048,4.8606,4.8413,4.8606,4.8952,4.9413,4.9606,5.0067,5.0712,0.0,0.0,5.0712,5.0712,5.0712,5.0712,5.0712,5.0712,5.0712,5.0712,5.0712,5.0712,5.0712,5.0712,5.0712,5.0712,5.0712,5.0712,5.0712,5.0712,5.0712,5.0712,5.0712,5.0712,5.0712,5.0712,5.0712,5.0712,5.0712,5.0712,5.0712,5.0712,5.0712,5.0712,5.0712,5.0712,5.0712,5.0712,5.0712,5.0712,5.0712,5.0712,5.0712,5.0712,5.0712,5.0712,5.0712,5.0584,5.026,5.0249,5.0195,5.0123,4.9426,4.8994,4.8897,4.8513,4.8306,4.8306,4.8306,4.8306,4.8306,4.8306,4.8306,4.8306,4.8306,4.8306,4.7516,4.77,4.7718,4.7663,4.77,4.7406,4.6177,4.5608,4.5002,4.3772,4.3515,4.3676,4.4284,4.4352,4.4656,4.5688,4.7024,4.8112,4.8627,4.9454,5.0164,5.0635,5.0712,5.0712,0.0,5.0712,5.0712,5.0712,5.0712,5.0712,5.0712,5.0712,5.0712,5.0712,4.9856,4.9394,4.9394,4.8548,4.7913,4.7567,4.8336,4.874,4.8836,4.9625,5.025,5.0712,0.0,0.0,5.0712,5.0712,5.0712,5.0712,5.0712,5.0712,5.0712,5.0712,5.0712,5.0712,5.0712,5.0712,5.0712,5.0712,5.0712,5.0712,5.0712,5.0712,5.0712,5.0712,5.0712,5.0712,5.0712,5.0712,5.0712,5.0712,5.0712,5.0712,5.0712,5.0712,5.0712,5.0712,5.0712,5.0712,5.0712,5.0712,5.0712,5.0712,5.0712,5.0712,5.0712,5.0712,5.0624,5.0432,5.0421,5.026,4.9853,4.9645,4.9561,4.9561,4.9139,4.883,4.8621,4.842,4.8306,4.8306,4.8306,4.8306,4.8306,4.8306,4.8306,4.8306,4.8306,4.8306,4.8306,4.7902,4.7608,4.8159,4.7791,4.7039,4.6104,4.5369,4.4617,4.3681,4.3548,4.3736,4.429,4.4931,4.5544,4.61,4.7719,4.9315,5.0519,5.0712,5.0712,5.0712,5.0712,5.0712,5.0712,5.0712,5.0712,5.0712,5.0712,5.0712,5.0712,5.0712,5.0712,5.0712,4.9721,4.9202,4.9202,4.8355,4.7509,4.6721,4.8144,4.8567,4.8144,4.9625,5.0462,5.0712,0.0,0.0,5.0712,5.0712,5.0712,5.0712,5.0712,5.0712,5.0712,5.0712,5.0712,5.0712,5.0712,5.0712,5.0712,5.0712,5.0712,5.0712,5.0712,5.0712,5.0712,5.0712,5.0712,5.0712,5.0712,5.0712,5.0712,5.0712,5.0712,5.0712,5.0712,5.0712,5.0712,5.0712,5.0712,5.0712,5.0712,5.0712,5.0712,5.0712,5.0712,5.0712,5.0712,5.0653,5.0493,5.0206,5.008,4.9885,4.9518,4.9123,4.8863,4.8795,4.8813,4.8657,4.8325,4.8306,4.8306,4.8306,4.8306,4.8306,4.8306,4.8306,4.8306,4.8306,4.8306,4.8306,4.8306,4.8746,4.9058,4.8453,4.8214,4.7737,4.6232,4.5792,4.5296,4.3809,4.3726,4.4368,4.5842,4.5902,4.6199,4.7682,4.8479,4.9315,5.0519,5.0712,5.0712,5.0712,5.0712,5.0712,5.0712,5.0712,5.0712,5.0712,5.0712,5.0712,5.0712,5.0712,5.0712,5.0712,4.9144,4.8298,4.8298,4.749,4.6644,4.5806,4.6056,4.6855,4.8105,4.8375,4.9298,5.0712,0.0,5.0712,5.0712,5.0712,5.0712,5.0712,5.0712,5.0712,5.0712,5.0712,5.0712,5.0712,5.0712,5.0712,5.0712,5.0712,5.0712,5.0712,5.0712,5.0712,5.0712,5.0712,5.0712,5.0712,5.0712,5.0712,5.0712,5.0712,5.0712,5.0712,5.0712,5.0712,5.0712,5.0712,5.0712,5.0712,5.0712,5.0712,5.0712,5.0712,5.0712,5.0712,5.0712,5.041,5.0313,5.0584,4.9987,4.9561,4.9522,4.9123,4.8744,4.8402,4.8383,4.8364,4.8306,4.8306,4.8306,4.8306,4.8306,4.8306,4.8306,4.8306,4.8306,4.8306,4.8306,4.8306,4.735,4.7919,4.8584,4.8623,4.8622,4.8325,4.7141,4.6694,4.6346,4.5615,4.5563,4.5975,4.6922,4.7662,4.8586,5.0014,5.0401,5.0551,5.0673,5.0712,5.0712,5.0712,5.0712,5.0712,5.0712,5.0712,5.0712,5.0712,5.0712,5.0712,5.0712,5.0712,5.0712,5.0712,4.9913,4.9048,4.8105,4.774,4.6894,4.5614,4.6509,4.7355,4.8125,4.9086,4.9933,5.0712,0.0,5.0712,5.0712,5.0712,5.0712,5.0712,5.0712,5.0712,5.0712,5.0712,5.0712,5.0712,5.0712,5.0712,5.0712,5.0712,5.0712,5.0712,5.0712,5.0712,5.0712,5.0712,5.0712,5.0712,5.0712,5.0712,5.0712,5.0712,5.0712,5.0712,5.0712,5.0712,5.0712,5.0712,5.0712,5.0712,5.0712,5.0712,5.0712,5.0712,5.0712,5.0712,5.0712,5.0347,5.008,5.0056,4.9532,4.9094,4.8864,4.8675,4.8495,4.8306,4.8306,4.8306,4.8306,4.8306,4.8306,4.8306,4.8306,4.8306,4.8306,4.8306,4.8306,4.8306,4.8306,4.8306,4.681,4.725,4.7965,4.8583,4.8898,4.8917,4.8389,4.7973,4.7691,4.7686,4.7589,4.7663,4.8097,4.9461,5.076,5.1499,5.1769,5.1625,5.0808,5.0712,5.0712,5.0712,5.0712,5.0712,5.0712,5.0712,5.0712,5.0712,5.0712,5.0712,5.0712,5.0712,5.0712,5.0712,5.05,4.974,4.8413,4.8029,4.7067,4.5614,4.7105,4.7932,4.8144,4.9683,5.0519,5.0712,5.0712,5.0712,5.0712,5.0712,5.0712,5.0712,5.0712,5.0712,5.0712,5.0712,5.0712,5.0712,5.0712,5.0712,5.0712,5.0712,5.0712,5.0712,5.0712,5.0624,5.0594,5.0673,5.0565,5.0432,5.0544,5.0554,5.0554,5.0554,5.0554,5.0554,5.0554,5.0554,5.0554,5.0554,5.0643,5.0712,5.0712,5.0712,5.0712,5.0712,5.0712,5.0663,5.0565,5.0206,4.984,4.9532,4.9062,4.8621,4.8344,4.8306,4.8306,4.8306,4.8306,4.8306,4.8306,4.8306,4.8306,4.8306,4.8306,4.8306,4.8306,4.8306,4.8306,4.8306,4.8306,4.8306,4.7618,4.7891,4.8181,4.8244,4.8861,4.9563,4.9928,4.9715,4.9419,4.9428,4.9068,4.9017,4.9785,5.0938,5.1548,5.0894,5.1414,5.1625,5.0808,5.0712,5.0712,5.0712,5.0712,5.0712,5.0712,5.0712,5.0712,5.0712,5.0712,5.0712,5.0712,5.0712,5.0712,5.0712,4.9913,4.9433,4.9317,4.7759,4.6528,4.5614,4.6547,4.7394,4.8125,4.9067,4.9933,5.0712,5.0712,5.0712,5.0712,5.0712,5.0712,5.0712,5.0712,5.0712,5.0712,5.0712,5.0712,5.0712,5.0712,5.0712,5.0712,5.0712,5.0712,5.0712,5.0712,5.0432,5.0225,5.0585,5.0159,4.9678,5.0043,5.0147,5.0147,5.0147,5.0147,5.0147,5.0147,5.0147,5.0147,5.0147,5.0432,5.0712,5.0712,5.0712,5.0712,5.0712,5.0712,5.0565,5.0183,4.9787,4.9532,4.9504,4.8796,4.8326,4.8306,4.8306,4.8306,4.8306,4.8306,4.8306,4.8306,4.8306,4.8306,4.8306,4.8306,4.8306,4.8306,4.8306,4.8306,4.8306,4.8306,4.8306,4.6229,4.6626,4.737,4.8399,4.9655,5.0675,5.0842,5.0768,5.0882,5.1682,5.1702,5.1672,5.196,5.241,5.2433,5.1587,5.2164,5.2241,5.0885,5.0712,5.0712,5.0712,5.0712,5.0712,5.0712,5.0712,5.0712,5.0712,5.0712,5.0712,5.0712,5.0712,5.0712,5.0712,5.0385,4.9952,4.9413,4.8779,4.8029,4.7163,4.749,4.7817,4.8144,4.9548,5.0385,5.0712,5.0712,5.0712,5.0712,5.0712,5.0712,5.0712,5.0712,5.0712,5.0712,5.0712,5.0712,5.0712,5.0712,5.0712,5.0663,5.041,5.0325,5.0272,5.0031,4.9859,4.976,4.9911,4.9561,4.928,4.9936,4.9924,4.9733,4.9733,4.9733,4.9733,4.9733,4.9733,4.9733,4.9733,4.984,5.0043,5.0272,5.0325,5.041,5.0663,5.0712,5.0554,5.0159,4.9746,4.9401,4.9155,4.864,4.8306,4.8306,4.8306,4.8306,4.8306,4.8306,4.8306,4.8306,4.8306,4.8306,4.8306,4.8306,4.8306,4.8306,4.8306,4.8306,4.8306,4.8306,4.8306,4.5356,4.5543,4.6285,4.79,4.9231,5.0445,5.1478,5.2021,5.2629,5.3757,5.3568,5.3126,5.2837,5.301,5.2837,5.1702,5.2472,5.2606,5.0943,5.0712,5.0712,5.0712,5.0712,5.0712,5.0712,5.0712,5.0712,5.0712,5.0712,5.0712,5.0712,5.0712,5.0712,5.0712,5.0712,5.0423,4.9817,4.9529,4.9106,4.8509,4.8509,4.8509,4.8567,5.0029,5.0712,5.0712,5.0712,5.0712,5.0712,5.0712,5.0712,5.0712,5.0712,5.0712,5.0712,5.0712,5.0712,5.0712,5.0712,5.0614,5.0472,5.0183,4.9999,4.9853,4.9575,4.9416,4.9341,4.946,4.9108,4.8863,4.9547,4.9518,4.9311,4.9311,4.9311,4.9311,4.9311,4.9311,4.9311,4.9311,4.9416,4.9594,4.9853,4.9911,4.9999,5.0272,5.0325,5.0171,4.9773,4.9489,4.9155,4.8744,4.8458,4.8306,4.8306,4.8306,4.8306,4.8306,4.8306,4.8306,4.8306,4.8306,4.8306,4.8306,4.8306,4.8306,4.8306,4.8306,4.8306,4.8306,4.8306,4.8306,4.54,4.4913,4.4995,4.6603,4.7391,4.8602,5.187,5.3583,5.4722,5.553,5.4376,5.2953,5.2077,5.2615,5.2645,5.0981,5.2106,5.2606,5.0943,5.0712,5.0712,5.0712,5.0712,5.0712,5.0712,5.0712,5.0712,5.0712,5.0712,5.0712,5.0712,5.0712,5.0712,5.0712,5.0712,5.0712,5.0712,4.9837,4.9413,4.9413,4.9413,4.9413,4.9433,5.0308,5.0712,5.0712,5.0712,5.0712,5.0712,5.0712,5.0702,5.0683,5.0683,5.0683,5.0683,5.0683,5.0683,5.0683,5.0683,5.0421,5.0092,5.008,4.9813,4.9489,4.9489,4.9218,4.898,4.9371,4.8897,4.8383,4.8796,4.8897,4.8897,4.8897,4.8897,4.8897,4.8897,4.8897,4.8897,4.8897,4.9218,4.9489,4.9489,4.9489,4.9508,4.9489,4.9489,4.9356,4.8963,4.8897,4.8744,4.8345,4.8306,4.8306,4.8306,4.8306,4.8306,4.8306,4.8306,4.8306,4.8306,4.8306,4.8306,4.8306,4.8306,4.8306,4.8306,4.8306,4.8306,4.8306,4.8306,4.8306,4.5067,4.5169,4.5899,4.751,4.933,5.1295,5.3452,5.3751,5.3992,5.5415,5.4857,5.3857,5.2991,5.3029,5.2645,5.0981,5.1587,5.1914,5.0846,5.0712,5.0712,5.0712,5.0712,5.0712,5.0712,5.0712,5.0712,5.0712,5.0712,5.0712,5.0712,5.0712,5.0712,5.0712,5.0712,5.0712,5.0712,5.0442,5.0308,5.0308,5.0308,4.999,4.9433,5.0308,5.0712,5.0712,5.0712,5.0712,5.0712,5.0712,5.0358,4.9866,5.0171,5.0123,4.9872,4.9872,4.9872,4.9872,4.9872,4.9773,4.9617,4.9356,4.9187,4.9029,4.8745,4.8568,4.8495,4.8622,4.8477,4.8344,4.8458,4.8495,4.8495,4.8495,4.8495,4.8495,4.8495,4.8495,4.8495,4.8495,4.8568,4.8745,4.9046,4.9075,4.9171,4.946,4.9489,4.9356,4.8963,4.8639,4.8439,4.8325,4.8306,4.8306,4.8306,4.8306,4.8306,4.8306,4.8306,4.8306,4.8306,4.8306,4.8306,4.8306,4.8306,4.8306,4.8306,4.8306,4.8306,4.8306,4.8306,4.8306,4.5506,4.588,4.6709,4.8181,5.004,5.2061,5.4043,5.4347,5.4485,5.5484,5.5049,5.4222,5.3356,5.3203,5.276,5.1395,5.1587,5.1731,5.1241,5.0894,5.0712,5.0712,5.0712,5.0712,5.0712,5.0712,5.0712,5.0712,5.0712,5.0712,5.0712,5.0712,5.0712,5.0712,5.0712,5.0712,5.0712,5.0712,5.0712,5.0712,5.0712,5.0423,4.9933,5.0462,5.0712,5.0673,5.0327,5.0085,4.9955,5.0124,4.9901,4.9532,4.9936,4.984,4.9489,4.9489,4.9489,4.9489,4.9489,4.9401,4.9218,4.8996,4.8796,4.8622,4.8383,4.8306,4.8306,4.8306,4.8306,4.8306,4.8306,4.8306,4.8306,4.8306,4.8306,4.8306,4.8306,4.8306,4.8306,4.8306,4.8306,4.8383,4.8622,4.8657,4.8727,4.898,4.9029,4.893,4.8692,4.8458,4.8306,4.8306,4.8306,4.8306,4.8306,4.8306,4.8306,4.8306,4.8306,4.8306,4.8306,4.8306,4.8306,4.8306,4.8306,4.8306,4.8306,4.8306,4.8306,4.8306,4.8306,4.8306,4.6411,4.6896,4.7628,4.8863,5.0193,5.1788,5.4081,5.5173,5.5684,5.5607,5.5011,5.4203,5.326,5.3145,5.2895,5.1942,5.1846,5.1865,5.1788,5.1164,5.0712,5.0712,5.0712,5.0712,5.0712,5.0712,5.0712,5.0712,5.0712,5.0712,5.0712,5.0712,5.0712,5.0712,5.0712,5.0712,5.0712,5.0712,5.0712,5.0712,5.0616,5.0558,5.0538,5.0644,5.0635,5.048,4.9615,4.9039,4.8743,4.9137,4.9341,4.9431,4.9827,4.9746,4.9386,4.9386,4.9386,4.9386,4.9386,4.9139,4.8864,4.8864,4.8604,4.8306,4.8306,4.8306,4.8306,4.8306,4.8306,4.8306,4.8306,4.8306,4.8306,4.8306,4.8306,4.8306,4.8306,4.8306,4.8306,4.8306,4.8306,4.8306,4.8306,4.8306,4.8306,4.8306,4.8306,4.8306,4.8306,4.8306,4.8306,4.8306,4.8306,4.8306,4.8306,4.8306,4.8306,4.8306,4.8306,4.8306,4.8306,4.8306,4.8306,4.8306,4.8306,4.8306,4.8306,4.8306,4.8306,4.8306,4.823,4.821,4.6538,4.7791,4.942,5.0945,5.2768,5.4411,5.5255,5.5577,5.5511,5.4895,5.4626,5.403,5.2462,5.2741,5.2702,5.1202,5.1491,5.1673,5.1048,5.0808,5.0712,5.0712,5.0712,5.0712,5.0712,5.0712,5.0712,5.0712,5.0712,5.0712,5.0712,5.0712,5.0712,5.0712,5.0712,5.0712,5.0712,5.0712,5.0712,0.0,5.001,4.9546,4.9315,5.0276,5.0179,4.9247,4.8367,4.7979,4.7984,4.8369,4.8544,4.8586,4.8994,4.8913,4.8568,4.8568,4.8568,4.8568,4.8568,4.8495,4.8421,4.8421,4.8364,4.8306,4.8306,4.8306,4.8306,4.8306,4.8306,4.8306,4.8306,4.8306,4.8306,4.8306,4.8306,4.8306,4.8306,4.8306,4.8306,4.8306,4.8306,4.8306,4.8306,4.8306,4.8306,4.8306,4.8306,4.8306,4.8306,4.8306,4.8306,4.8306,4.8306,4.8306,4.8306,4.8306,4.8306,4.8306,4.8306,4.8306,4.8306,4.8306,4.8306,4.8306,4.8306,4.8306,4.8306,4.8306,4.8306,4.8287,4.7818,4.7593,4.7382,4.8872,5.0627,5.2685,5.4159,5.516,5.5356,5.5566,5.5472,5.4664,5.4491,5.4087,5.2779,5.2538,5.2299,5.1414,5.1298,5.1318,5.1279,5.0933,5.0712,5.0712,5.0712,5.0712,5.0712,5.0712,5.0712,5.0712,5.0712,5.0712,5.0712,5.0712,5.0712,5.0712,5.0712,5.0712,5.0712,5.0289,5.0067,5.0067,4.9026,4.8556,4.8637,4.9267,4.8977,4.7985,4.7928,4.7589,4.7143,4.7931,4.8263,4.8326,4.8744,4.8657,4.8306,4.8306,4.8306,4.8306,4.8306,4.8306,4.8306,4.8306,4.8306,4.8306,4.8306,4.8306,4.8306,4.8306,4.8306,4.8306,4.8306,4.8306,4.8306,4.8306,4.8306,4.8306,4.8306,4.8306,4.8306,4.8306,4.8306,4.8306,4.8306,4.8306,4.8306,4.8306,4.8306,4.8306,4.8306,4.8306,4.8306,4.8306,4.8306,4.8306,4.8306,4.8306,4.8306,4.8306,4.8306,4.8306,4.8306,4.8306,4.8306,4.8306,4.8306,4.8306,4.8306,4.8306,4.8152,4.7858,4.7551,4.7216,4.8071,4.9841,5.1675,5.3928,5.4851,5.5199,5.5199,5.5466,5.5511,5.4838,5.4472,5.401,5.3145,5.2385,5.1846,5.1712,5.1241,5.1087,5.1625,5.1125,5.0712,5.0712,5.0712,5.0712,5.0712,5.0712,5.0712,5.0712,5.0712,5.0712,5.0712,5.0712,5.0712,5.0712,5.0712,5.0635,5.0481,4.976,4.9317,4.9163,4.8032,4.7669,4.798,4.8058,4.7738,4.716,4.7673,4.736,4.6605,4.7588,4.8118,4.8326,4.8657,4.8586,4.8306,4.8306,4.8306,4.8306,4.8306,4.8306,4.8306,4.8306,4.8306,4.8306,4.8306,4.8306,4.8306,4.8306,4.8306,4.8306,4.8306,4.8306,4.8306,4.8306,4.8306,4.8306,4.8306,4.8306,4.8306,4.8306,4.8306,4.8306,4.8306,4.8306,4.8306,4.8306,4.8306,4.8306,4.8306,4.8306,4.8306,4.8306,4.8306,4.8306,4.8306,4.8306,4.8306,4.8306,4.8306,4.8306,4.8306,4.8306,4.8306,4.8306,4.8306,4.8306,4.8306,4.8306,4.7977,4.7385,4.7281,4.6887,4.7403,5.0259,5.3125,5.4219,5.5058,5.561,5.561,5.5662,5.5665,5.5549,5.4376,5.3106,5.2231,5.1981,5.1673,5.0971,5.1356,5.1529,5.0933,5.077,5.0712,5.0712,5.0712,5.0712,5.0712,5.0712,5.0712,5.0712,5.0712,5.0712,5.0712,5.0712,5.0712,5.0712,5.0712,5.0346,4.9586,4.9452,4.9029,4.825,4.7464,4.6944,4.6656,4.7069,4.738,4.7578,4.693,4.678,4.7022,4.7187,4.7666,4.8306,4.8364,4.8345,4.8306,4.8306,4.8306,4.8306,4.8306,4.8306,4.8306,4.8306,4.8306,4.8306,4.8306,4.8306,4.8306,4.8306,4.8306,4.8306,4.8306,4.8306,4.8306,4.8306,4.8306,4.8306,4.8306,4.8306,4.8306,4.8306,4.8306,4.8306,4.8306,4.8306,4.8306,4.8306,4.8306,4.8306,4.8306,4.8306,4.8306,4.8306,4.8306,4.8306,4.8306,4.8306,4.8306,4.8306,4.8306,4.8306,4.8306,4.8306,4.8306,4.8306,4.8306,4.8306,4.8306,4.8306,4.7977,4.7385,4.6801,4.6192,4.775,5.0008,5.2191,5.3775,5.4594,5.5145,5.5588,5.5703,5.5703,5.5703,5.4761,5.3664,5.2799,5.2231,5.1645,5.0827,5.0991,5.1106,5.075,5.0712,5.0712,5.0712,5.0712,5.0712,5.0712,5.0712,5.0712,5.0712,5.0712,5.0712,5.0712,5.0712,5.0712,5.0712,5.0231,4.9779,4.9394,4.8471,4.7596,4.6801,4.6486,4.6499,4.6797,4.7004,4.7206,4.7367,4.7442,4.7334,4.7131,4.759,4.7994,4.8306,4.8306,4.8306,4.8306,4.8306,4.8306,4.8306,4.8306,4.8306,4.8306,4.8306,4.8306,4.8306,4.8306,4.8306,4.8306,4.8306,4.8306,4.8306,4.8306,4.8306,4.8306,4.8306,4.8306,4.8306,4.8306,4.8306,4.8306,4.8306,4.8306,4.8306,4.8306,4.8306,4.8306,4.8306,4.8306,4.8306,4.8306,4.8306,4.8306,4.8306,4.8306,4.8306,4.8306,4.8306,4.8306,4.8306,4.8306,4.8306,4.8306,4.8306,4.8306,4.8306,4.8306,4.8306,4.8306,4.7957,4.747,4.6824,4.6192,4.5571,4.7476,4.8904,5.0292,5.2417,5.3333,5.3955,5.4865,5.5241,5.5395,5.5395,5.5068,5.4472,5.3395,5.2481,5.1645,5.0827,5.0712,5.0712,5.0712,5.0712,5.0712,5.0712,5.0712,5.0712,5.0712,5.0712,5.0712,5.0712,5.0712,5.0712,5.0712,5.0712,5.0712,5.0712,4.9856,4.9298,4.9067,4.7413,4.6313,4.5798,4.6011,4.6448,4.7113,4.7314,4.7388,4.7443,4.8049,4.7957,4.7443,4.8048,4.8306,4.8306,4.8306,4.8306,4.8306,4.8306,4.8306,4.8306,4.8306,4.8306,4.8306,4.8306,4.8306,4.8306,4.8306,4.8306,4.8306,4.8306,4.8306,4.8306,4.8306,4.8306,4.8306,4.8306,4.8306,4.8306,4.8306,4.8306,4.8306,4.8306,4.8306,4.8306,4.8306,4.8306,4.8306,4.8306,4.8306,4.8306,4.8306,4.8306,4.8306,4.8306,4.8306,4.8306,4.8306,4.8306,4.8306,4.8306,4.8306,4.8306,4.8306,4.8306,4.8306,4.8306,4.8152,4.8075,4.8075,4.7614,4.6977,4.6167,4.5707,4.5178,4.5714,4.6603,4.7768,4.9782,5.0935,5.187,5.3055,5.3972,5.4549,5.4549,5.5145,5.5145,5.351,5.2481,5.1645,5.0827,5.0712,5.0712,5.0712,5.0712,5.0712,5.0712,5.0712,5.0712,5.0712,5.0712,5.0712,5.0712,5.0712,5.0712,5.0712,5.0712,5.0712,5.0712,4.9856,4.899,4.8182,4.6509,4.5701,4.5817,4.6576,4.699,4.7131,4.7902,4.8251,4.8251,4.8288,4.8288,4.8251,4.8288,4.8306,4.8306,4.8306,4.8306,4.8306,4.8306,4.8306,4.8306,4.8306,4.8306,4.8306,4.8306,4.8306,4.8306,4.8306,4.8306,4.8306,4.8306,4.8306,4.8306,4.8306,4.8306,4.8306,4.8306,4.8306,4.8306,4.8306,4.8306,4.8306,4.8306,4.8306,4.8306,4.8306,4.8306,4.8306,4.8306,4.8306,4.8306,4.8306,4.8306,4.8306,4.8306,4.8306,4.8306,4.8306,4.8306,4.8306,4.8306,4.8306,4.8306,4.8306,4.8306,4.8306,4.8306,4.7736,4.7467,4.7467,4.7424,4.6751,4.5563,4.5494,4.5178,4.4464,4.5593,4.679,4.765,4.9416,5.1135,5.1882,5.2894,5.3664,5.3664,5.3895,5.3741,5.2577,5.2558,5.2299,5.0923,5.0712,5.0712,5.0712,5.0712,5.0712,5.0712,5.0712,5.0712,5.0712,5.0712,5.0712,5.0712,5.0712,5.0712,5.0712,5.0712,5.0442,4.9875,4.9029,4.7894,4.6509,4.6205,4.623,4.6595,4.7162,4.7607,4.7865,4.8177,4.8306,4.8306,4.8306,4.8306,4.8306,4.8306,4.8306,4.8306,4.8306,4.8306,4.8306,4.8306,4.8306,4.8306,4.8306,4.8306,4.8306,4.8306,4.8306,4.8306,4.8306,4.8306,4.8306,4.8306,4.8306,4.8306,4.8306,4.8306,4.8306,4.8306,4.8306,4.8306,4.8306,4.8306,4.8306,4.8306,4.8306,4.8306,4.8306,4.8306,4.8306,4.8306,4.8306,4.8306,4.8306,4.8306,4.8306,4.8306,4.8306,4.8306,4.8306,4.8306,4.8306,4.8306,4.8306,4.8545,4.9095,4.9132,4.8919,4.8517,4.8698,4.8343,4.7406,4.6589,4.5957,4.5485,4.5115,4.4814,4.2678,4.3901,4.5247,4.5981,4.7629,4.9384,5.0668,5.1697,5.2433,5.2722,5.301,5.2933,5.2058,5.2365,5.2318,5.0923,5.0712,5.0712,5.0712,5.0712,5.0712,5.0712,5.0712,5.0712,5.0712,5.0712,5.0712,5.0712,5.0712,0.0,5.0712,5.0712,5.0173,4.899,4.801,4.6829,4.5448,4.5894,4.6353,4.6809,4.7413,4.7916,4.8306,4.8306,4.8306,4.8306,4.8306,4.8306,4.8306,4.8306,4.8306,4.8306,4.8306,4.8306,4.8306,4.8306,4.8306,4.8306,4.8306,4.8306,4.8306,4.8306,4.8306,4.8306,4.8306,4.8306,4.8306,4.8306,4.8306,4.8306,4.8306,4.8306,4.8306,4.8306,4.8306,4.8306,4.8306,4.8306,4.8306,4.8306,4.8306,4.8306,4.8306,4.8306,4.8306,4.8306,4.8306,4.8306,4.8306,4.8306,4.8306,4.8306,4.8306,4.8306,4.8306,4.8306,4.8416,4.8728,4.8728,4.9114,4.9958,4.9994,4.9779,4.9349,4.9331,4.8848,4.7873,4.648,4.5597,4.5178,4.5031,4.5094,0.0,0.0,0.0,4.474,4.5448,4.6497,4.9295,5.0284,5.0837,5.1654,5.25,5.2837,5.2019,5.1865,5.1606,5.0827,5.0712,5.0712,5.0712,5.0712,5.0712,5.0712,5.0712,5.0712,5.0712,5.0712,5.0712,5.0712,5.0712,5.0683,5.0683,5.0654,4.9836,4.8135,4.6908,4.5916,4.5124,4.5578,4.604,4.6445,4.7303,4.7917,4.8306,4.8306,4.8306,4.8306,4.8306,4.8306,4.8306,4.8306,4.8306,4.8306,4.8306,4.8306,4.8306,4.8306,4.8306,4.8306,4.8306,4.8306,4.8306,4.8306,4.8306,4.8306,4.8306,4.8306,4.8306,4.8306,4.8306,4.8306,4.8306,4.8306,4.8306,4.8306,4.8306,4.8306,4.8306,4.8306,4.8306,4.8306,4.8306,4.8306,4.8306,4.8306,4.8306,4.8306,4.8306,4.8306,4.8306,4.8306,4.8306,4.8306,4.8306,4.8306,4.8306,4.8324,4.8691,4.9555,4.9629,4.9976,5.0782,5.08,5.078,5.0739,4.9505,4.8802,4.8735,4.7172,4.5784,4.4649,4.5365,4.6109,4.0418,0.0,0.0,0.0,0.0,0.0,4.595,4.7338,4.878,4.9875,5.0279,5.0567,5.0952,5.1029,5.0952,5.075,5.0712,5.0712,5.0712,5.0712,5.0712,5.0712,5.0712,5.0712,5.0712,5.0712,5.0712,0.0,5.0712,5.0565,5.0272,4.9397,4.8535,4.7747,4.656,4.5842,4.5603,4.6025,4.6613,4.7357,4.7883,4.8181,4.8306,4.8306,4.8306,4.8306,4.8306,4.8306,4.8306,4.8306,4.8306,4.8306,4.8306,4.8306,4.8306,4.8306,4.8306,4.8306,4.8306,4.8306,4.8306,4.8306,4.8306,4.8306,4.8306,4.8306,4.8306,4.8306,4.8306,4.8306,4.8306,4.8306,4.8306,4.8306,4.8306,4.8306,4.8306,4.8306,4.8306,4.8306,4.8306,4.8306,4.8306,4.8306,4.8306,4.8306,4.8306,4.8306,4.8306,4.8306,4.8306,4.8306,4.8306,4.8306,4.8306,4.8875,4.9353,4.9592,5.0141,5.0581,5.0867,5.0881,5.0435,4.9447,4.9541,4.8855,4.7335,4.6923,4.6237,4.5399,4.5602,4.6397,3.9704,4.0638,4.1402,4.0833,0.0,0.0,4.4679,4.6045,4.7494,4.8907,4.9307,4.9615,5.0329,5.0287,5.023,5.0425,5.0594,5.0712,5.0712,5.0712,5.0712,5.0712,5.0712,5.0712,5.0712,5.0712,5.0624,5.0472,5.0442,5.0272,4.9885,4.8804,4.8077,4.7846,4.635,4.5556,4.5556,4.5985,4.6456,4.6956,4.7868,4.8306,4.8306,4.8306,4.8306,4.8306,4.8306,4.8306,4.8306,4.8306,4.8306,4.8306,4.8306,4.8306,4.8306,4.8306,4.8306,4.8306,4.8306,4.8306,4.8306,4.8306,4.8306,4.8306,4.8306,4.8306,4.8306,4.8306,4.8306,4.8306,4.8306,4.8306,4.8306,4.8306,4.8306,4.8306,4.8306,4.86,4.8728,4.8379,4.8306,4.8306,4.8306,4.8306,4.8306,4.8306,4.8618,4.871,4.8361,4.8618,4.8691,4.8343,4.8636,4.8838,4.8838,4.9609,5.0233,5.0583,5.0741,5.1009,5.1373,5.1132,5.0624,4.9835,4.9888,4.9195,4.7716,4.7333,4.6975,4.6616,4.6312,4.6955,3.8814,3.9761,4.0837,4.1149,4.1579,0.0,4.4373,4.5491,4.6569,4.8105,4.8728,4.9158,4.9685,4.9436,4.9273,4.9692,5.0136,5.0489,5.0664,5.0712,5.0712,5.0712,5.0712,5.0683,5.0653,5.0624,5.0472,5.0068,4.9987,4.9827,4.9504,4.8685,4.8186,4.8154,4.6374,4.5411,4.5411,4.5822,4.6085,4.6177,4.7627,4.8306,4.8306,4.8306,4.8306,4.8306,4.8306,4.8306,4.8306,4.8306,4.8306,4.8306,4.8306,4.8306,4.8306,4.8306,4.8306,4.8306,4.8306,4.8306,4.8306,4.8306,4.8306,4.8306,4.8306,4.8306,4.8306,4.8306,4.8306,4.8306,4.8306,4.8306,4.8306,4.8306,4.8379,4.8434,4.8434,4.9114,4.9499,4.8728,4.8581,4.8581,4.8581,4.8581,4.8581,4.8581,4.9242,4.9444,4.8691,4.9242,4.9445,4.8673,4.926,4.9739,4.9739,5.0393,5.1124,5.1839,5.1275,5.1214,5.1844,5.1292,5.0929,5.085,5.0213,4.9593,4.9001,4.814,4.782,4.799,4.7276,4.7665,3.9644,3.9877,3.9945,4.0013,4.0793,0.0,4.1638,4.314,4.4651,4.5306,4.6001,4.6733,4.7534,4.7605,4.7593,4.7666,4.8293,4.9226,5.0518,5.0712,5.0712,5.0712,5.0712,5.0565,5.0249,5.0225,5.0056,4.965,4.9326,4.9249,4.9475,4.8714,4.8137,4.7799,4.7105,4.6746,4.6746,4.682,4.7186,4.7847,4.8159,4.8306,4.8306,4.8306,4.8306,4.8306,4.8306,4.8306,4.8306,4.8306,4.8306,4.8306,4.8306,4.8306,4.8306,4.8306,4.8306,4.8306,4.8306,4.8306,4.8306,4.8306,4.8306,4.8306,4.8306,4.8306,4.8306,4.8306,4.8306,4.8306,4.8306,4.8306,4.8306,4.8306,4.8838,4.9353,4.9353,4.9976,5.0527,5.0343,5.0306,5.0306,5.0306,5.0306,5.0306,5.0306,5.0453,5.0508,5.0325,5.0453,5.0508,5.0325,5.0453,5.0563,5.0563,5.0769,5.0936,5.1104,5.107,5.0875,5.0445,5.0279,4.9965,4.9419,4.9256,4.9138,4.9001,4.8226,4.8175,4.8781,4.8037,4.8173,4.0011,3.999,3.987,3.9738,0.0,0.0,0.0,4.1805,4.3268,4.4149,4.4495,4.5038,4.6534,4.6285,4.607,4.6703,4.7627,4.8575,4.9394,5.0015,5.0483,5.0673,5.0514,5.0325,5.0123,4.9924,4.9631,4.9234,4.883,4.8692,4.8898,4.8513,4.8218,4.8012,4.7408,4.7094,4.7094,4.7094,4.7296,4.77,4.8122,4.8306,4.8306,4.8306,4.8306,4.8306,4.8306,4.8306,4.8306,4.8306,4.8306,4.8306,4.8306,4.8306,4.8306,4.8306,4.8306,4.8306,4.8306,4.8306,4.8306,4.8306,4.8306,4.8306,4.8306,4.8306,4.8306,4.8306,4.8306,4.8306,4.8306,4.8306,4.8416,4.8838,4.928,4.9721,5.0105,5.082,5.1389,5.1389,5.172,5.1738,5.0949,5.0802,5.0802,5.0802,5.1132,5.1242,5.0857,5.1151,5.1242,5.0839,5.1151,5.1389,5.1389,5.1816,5.2061,5.2061,5.1446,5.0929,5.0554,4.9879,4.9329,4.9001,4.9001,4.9001,4.9001,4.8646,4.8646,4.9001,4.8629,4.8663,4.0096,4.0096,4.0009,3.965,0.0,3.9712,0.0,0.0,0.0,0.0,4.3187,4.3629,4.5568,4.5088,4.4716,4.577,0.0,0.0,0.0,4.8683,0.0,5.0383,5.0183,4.9949,4.9885,4.9353,4.8955,4.8795,4.8348,4.8141,4.8306,4.8306,4.8306,4.8306,4.7663,4.7333,4.7333,4.7333,4.7333,4.7333,4.7975,4.8306,4.8306,4.8306,4.8306,4.8306,4.8306,4.8306,4.8306,4.8306,4.8306,4.8306,4.8306,4.8306,4.8306,4.8306,4.8306,4.8306,4.8306,4.8306,4.8306,4.8306,4.8306,4.8306,4.8306,4.8306,4.8306,4.8306,4.8306,4.8343,4.8508,4.8545,4.8765,4.9647,4.9959,5.0253,5.0894,5.1665,5.2234,5.2234,5.2766,5.2782,5.1499,5.1261,5.1261,5.1261,5.1811,5.1995,5.1353,5.183,5.1935,5.1114,5.1627,5.1968,5.1843,5.2298,5.2572,5.2572,5.1386,5.0707,5.0707,4.961,4.9001,4.9001,4.9001,4.9001,4.9001,4.9001,4.9001,4.9001,4.9001,4.9001,0.0,0.0,0.0,0.0,3.9431,0.0,0.0,0.0,4.0028,4.0601,0.0,0.0,0.0,0.0,0.0,0.0,0.0,0.0,4.5587,4.637,4.7586,4.9419,4.9608,4.9431,4.9075,4.8026,4.7647,4.8309,4.7664,4.7553,4.8269,4.8306,4.8306,4.8306,4.8214,4.8159,4.8159,4.8159,4.8159,4.8159,4.8269,4.8306,4.8306,4.8306,4.8306,4.8306,4.8306,4.8306,4.8306,4.8306,4.8306,4.8306,4.8306,4.8306,4.8306,4.8306,4.8306,4.8306,4.8306,4.8306,4.8306,4.8306,4.8306,4.8306,4.8306,4.8306,4.8306,4.8306,4.8306,4.8489,4.9262,4.9445,4.9665,5.0472,5.1206,5.1738,5.183,5.2509,5.3078,5.3078,5.3151,5.313,5.2947,5.2928,5.2928,5.2928,5.3023,5.3041,5.2949,5.3023,5.2794,5.204,5.2025,5.185,5.1243,5.069,5.0362,5.0362,4.9652,4.9243,4.9243,4.9077,4.9001,4.9001,4.9001,4.9001,4.9001,4.9001,4.9001,4.9001,4.9001,4.9001,0.0,0.0,0.0,0.0,0.0,0.0,3.778,0.0,3.9167,0.0,0.0,0.0,0.0,0.0,0.0,0.0,4.4176,0.0,0.0,0.0,4.6638,0.0,0.0,0.0,4.7198,4.7114,4.7241,4.7571,4.7278,4.7443,4.8269,4.8306,4.8306,4.8306,4.8306,4.8306,4.8306,4.8306,4.8306,4.8306,4.8306,4.8306,4.8306,4.8306,4.8306,4.8306,4.8306,4.8306,4.8306,4.8306,4.8306,4.8306,4.8306,4.8306,4.8306,4.8306,4.8306,4.8306,4.8306,4.8306,4.8306,4.8306,4.8306,4.8306,4.8306,4.8306,4.8306,4.8306,4.8655,4.9132,4.9519,4.9959,5.049,5.1298,5.1738,5.2123,5.2601,5.2968,5.3185,5.3185,5.3185,5.3185,5.3185,5.3185,5.3185,5.3185,5.3185,5.3185,5.3185,5.3185,5.3082,5.2769,5.2358,5.1976,5.1692,5.106,5.0635,5.0635,4.9965,4.9419,4.9032,4.9001,4.9001,4.9001,4.9001,4.9001,4.9001,4.9001,4.9001,4.9001,4.9001,4.9001,4.0468,0.0,0.0,0.0,0.0,0.0,0.0,0.0,0.0,0.0,0.0,0.0,0.0,0.0,0.0,0.0,0.0,4.4145,0.0,4.4766,0.0,0.0,0.0,0.0,0.0,4.6232,4.6636,4.7076,4.6892,4.7204,4.8251,4.8306,4.8306,4.8306,4.8306,4.8306,4.8306,4.8306,4.8306,4.8306,4.8306,4.8306,4.8306,4.8306,4.8306,4.8306,4.8306,4.8306,4.8306,4.8306,4.8306,4.8306,4.8306,4.8306,4.8306,4.8306,4.8306,4.8306,4.8306,4.8306,4.8306,4.8306,4.8306,4.8306,4.8306,4.8306,4.8361,4.86,4.9095,4.9702,5.0143,5.0692,5.1334,5.2142,5.2325,5.2491,5.3057,5.3185,5.3185,5.3185,5.3185,5.3185,5.3185,5.3185,5.3185,5.3185,5.3185,5.3185,5.3185,5.302,5.2831,5.264,5.197,5.1451,5.1266,5.0796,5.0517,5.0517,5.0004,4.9521,4.9032,4.9001,4.9001,4.9001,4.9001,4.9001,4.9001,4.9001,4.9001,4.9001,4.9001,4.9001,0.0,0.0,0.0,3.936,0.0,0.0,0.0,0.0,3.741,0.0,0.0,0.0,0.0,0.0,0.0,0.0,0.0,0.0,0.0,0.0,0.0,0.0,0.0,0.0,0.0,4.5223,4.5406,0.0,4.6379,4.6636,4.8233,4.8306,4.8306,4.8306,4.8306,4.8306,4.8306,4.8306,4.8306,4.8306,4.8306,4.8306,4.8306,4.8306,4.8306,4.8306,4.8306,4.8306,4.8306,4.8306,4.8306,4.8306,4.8306,4.8306,4.8306,4.8306,4.8306,4.8306,4.8306,4.8306,4.8306,4.8306,4.8306,4.8306,4.8306,4.8306,4.8489,4.9335,4.9574,4.9959,5.1518,5.194,5.216,5.2968,5.317,5.3167,5.3185,5.3185,5.3185,5.3185,5.3185,5.3185,5.3185,5.3185,5.3185,5.3185,5.3185,5.3185,5.3185,5.2576,5.188,5.1241,5.05,4.9792,4.9152,4.9077,4.9063,4.9063,4.9063,4.9032,4.9001,4.9001,4.9001,4.9001,4.9001,4.9001,4.9001,4.9001,4.9001,4.9001,4.9001,4.9001,0.0,0.0,4.0967,3.9952,0.0,0.0,0.0,0.0,0.0,0.0,0.0,0.0,0.0,0.0,0.0,0.0,0.0,0.0,0.0,0.0,0.0,0.0,0.0,0.0,0.0,0.0,0.0,4.5461,4.5278,0.0,4.7406,4.7498,4.7736,4.8288,4.8306,4.8306,4.8306,4.8306,4.8306,4.8306,4.8306,4.8306,4.8306,4.8306,4.8306,4.8306,4.8306,4.8306,4.8306,4.8306,4.8306,4.8306,4.8306,4.8306,4.8306,4.8306,4.8306,4.8306,4.8306,4.8306,4.8306,4.8306,4.8306,4.8306,4.8306,4.8691,4.9225,4.9519,5.0381,5.1318,5.1848,5.2399,5.2858,5.3151,5.3185,5.3185,5.3185,5.3185,5.3185,5.3185,5.3185,5.3185,5.3185,5.3185,5.3185,5.3185,5.2769,5.2468,5.2468,5.1874,5.1343,5.1112,5.0445,4.989,4.9664,4.9273,4.9001,4.9001,4.9001,4.9001,4.9001,4.9001,4.9001,4.9001,4.9001,4.9001,4.9001,4.9001,4.9001,4.9001,4.9001,4.9001,4.3185,4.2697,0.0,4.1129,4.0324,0.0,3.9191,0.0,0.0,0.0,0.0,0.0,0.0,0.0,0.0,0.0,0.0,0.0,0.0,4.2142,0.0,0.0,0.0,0.0,0.0,0.0,4.4397,4.4673,4.4691,4.5278,0.0,0.0,4.7333,4.7846,4.8159,4.8306,4.8306,4.8306,4.8306,4.8306,4.8306,4.8306,4.8306,4.8306,4.8306,4.8306,4.8306,4.8306,4.8306,4.8306,4.8306,4.8306,4.8306,4.8306,4.8306,4.8306,4.8306,4.8306,4.8306,4.8306,4.8306,4.8306,4.8306,4.8361,4.8673,4.9132,4.9721,5.029,5.1208,5.2068,5.2344,5.2821,5.3185,5.3185,5.3185,5.3185,5.3185,5.3185,5.3185,5.3185,5.3185,5.3185,5.3185,5.3185,5.3185,5.3185,5.2576,5.2112,5.2112,5.1292,5.0716,5.0716,5.0061,4.9634,4.9634,4.9256,4.9001,4.9001,4.9001,4.9001,4.9001,4.9001,4.9001,4.9001,4.9001,4.9001,4.9001,4.9001,4.9001,4.9001,4.9001,4.9001]}]]